[[{"header":{"parameterUnit":"m.s-1","parameterCategory":1,"la1":30.6,"la2":29.2853,"lo1":-89.7004,"lo2":-87.6739,"dy":0.0162,"dx":0.0183,"nx":112,"ny":82,"refTime":"2024-04-23T12:00:00:Z","depth":0,"parameterNumber":2,"parameterNumberName":"U-component_of_WINDS"},"data":[0.0,0.0,0.0,0.0,0.0,0.0,0.0,0.0,0.0,0.0,0.0,0.0,0.0,0.0,0.0,0.0,0.0,0.0,0.0,0.0,0.0,0.0,0.0,0.0,0.0,0.0,0.0,0.0,0.0,0.0,0.0,0.0,0.0,0.0,0.0,0.0,0.0,0.0,0.0,0.0,0.0,0.0,0.0,0.0,0.0,0.0,0.0,0.0,0.0,0.0,0.0,0.0,0.0,0.0,0.0,0.0,0.0,0.0,0.0,0.0,0.0,0.0,0.0,0.0,0.0,0.0,0.0,0.0,0.0,0.0,0.0,0.0,0.0,0.0,0.0,0.0,0.0,0.0,0.0,0.0,0.0,0.0,0.0,0.0,0.0,0.0,0.0,0.0,0.0,0.0,-5.9306,-5.9306,-5.8784,-5.8464,-5.8464,-5.7942,-5.7623,-5.7623,0.0,0.0,0.0,0.0,0.0,0.0,0.0,0.0,0.0,0.0,0.0,0.0,0.0,0.0,0.0,0.0,0.0,0.0,0.0,0.0,0.0,0.0,0.0,0.0,0.0,0.0,0.0,0.0,0.0,0.0,0.0,0.0,0.0,0.0,0.0,0.0,0.0,0.0,0.0,0.0,0.0,0.0,0.0,0.0,0.0,0.0,0.0,0.0,0.0,0.0,0.0,0.0,0.0,0.0,0.0,0.0,0.0,0.0,0.0,0.0,0.0,0.0,0.0,0.0,0.0,0.0,0.0,0.0,0.0,0.0,0.0,0.0,0.0,0.0,0.0,0.0,0.0,0.0,0.0,0.0,0.0,0.0,0.0,0.0,0.0,0.0,0.0,0.0,0.0,0.0,0.0,0.0,0.0,0.0,0.0,0.0,0.0,0.0,0.0,0.0,0.0,0.0,0.0,0.0,-5.9306,-5.9306,-5.9219,-5.9161,-5.9161,-5.9045,-5.9016,-5.9016,0.0,0.0,0.0,0.0,0.0,0.0,0.0,0.0,0.0,0.0,0.0,0.0,0.0,0.0,0.0,0.0,0.0,0.0,0.0,0.0,0.0,0.0,0.0,0.0,0.0,0.0,0.0,0.0,0.0,0.0,0.0,0.0,0.0,0.0,0.0,0.0,0.0,0.0,0.0,0.0,0.0,0.0,0.0,0.0,0.0,0.0,0.0,0.0,0.0,0.0,0.0,0.0,0.0,0.0,0.0,0.0,0.0,0.0,0.0,0.0,0.0,0.0,0.0,0.0,0.0,0.0,0.0,0.0,0.0,0.0,0.0,0.0,0.0,0.0,0.0,0.0,0.0,0.0,0.0,0.0,0.0,0.0,0.0,0.0,0.0,0.0,0.0,0.0,0.0,0.0,0.0,0.0,0.0,0.0,0.0,0.0,0.0,0.0,0.0,0.0,0.0,0.0,0.0,-6.0322,-6.0322,-6.0322,-6.0003,-5.98,-5.98,-5.948,-5.9306,-5.9306,-5.8726,0.0,0.0,0.0,0.0,0.0,0.0,0.0,0.0,0.0,0.0,0.0,0.0,0.0,0.0,0.0,0.0,0.0,0.0,0.0,0.0,0.0,0.0,0.0,0.0,0.0,0.0,0.0,0.0,0.0,0.0,0.0,0.0,0.0,0.0,0.0,0.0,0.0,0.0,0.0,0.0,0.0,0.0,0.0,0.0,0.0,0.0,0.0,0.0,0.0,0.0,0.0,0.0,0.0,0.0,0.0,0.0,0.0,0.0,0.0,0.0,0.0,0.0,0.0,0.0,0.0,0.0,0.0,0.0,0.0,0.0,0.0,0.0,0.0,0.0,0.0,0.0,0.0,0.0,0.0,0.0,0.0,0.0,0.0,0.0,0.0,0.0,0.0,0.0,0.0,0.0,0.0,0.0,0.0,0.0,0.0,0.0,0.0,0.0,0.0,0.0,0.0,0.0,-6.1193,-6.1193,-6.1193,-6.0729,-6.0438,-6.0438,-6.0003,-5.9742,-5.9742,-5.9742,0.0,0.0,0.0,0.0,0.0,0.0,0.0,0.0,0.0,0.0,0.0,0.0,0.0,0.0,0.0,0.0,0.0,0.0,0.0,0.0,0.0,0.0,0.0,0.0,0.0,0.0,0.0,0.0,0.0,0.0,0.0,0.0,0.0,0.0,0.0,0.0,0.0,0.0,0.0,0.0,0.0,0.0,0.0,0.0,0.0,0.0,0.0,0.0,0.0,0.0,0.0,0.0,0.0,0.0,0.0,0.0,0.0,0.0,0.0,0.0,0.0,0.0,0.0,0.0,0.0,0.0,0.0,0.0,0.0,0.0,0.0,0.0,0.0,0.0,0.0,0.0,0.0,0.0,0.0,0.0,0.0,0.0,0.0,0.0,0.0,0.0,0.0,0.0,0.0,0.0,0.0,0.0,0.0,0.0,0.0,0.0,0.0,0.0,0.0,0.0,0.0,0.0,-6.1193,-6.1193,-6.1193,-6.1164,-6.1135,-6.1135,-6.1077,-6.1077,-6.1077,-6.1077,0.0,0.0,0.0,0.0,0.0,0.0,0.0,0.0,0.0,0.0,0.0,0.0,0.0,0.0,0.0,0.0,0.0,0.0,0.0,0.0,0.0,0.0,0.0,0.0,0.0,0.0,0.0,0.0,0.0,0.0,0.0,0.0,0.0,0.0,0.0,0.0,0.0,0.0,0.0,0.0,0.0,0.0,0.0,0.0,0.0,0.0,0.0,0.0,0.0,0.0,0.0,0.0,0.0,0.0,0.0,0.0,0.0,0.0,0.0,0.0,0.0,0.0,0.0,0.0,0.0,0.0,0.0,0.0,0.0,0.0,0.0,0.0,0.0,0.0,0.0,0.0,0.0,0.0,0.0,0.0,0.0,0.0,0.0,0.0,0.0,0.0,0.0,0.0,0.0,0.0,0.0,0.0,0.0,0.0,0.0,0.0,0.0,0.0,0.0,0.0,0.0,0.0,-6.1193,-6.1193,-6.1193,-6.1193,-6.1193,-6.1193,-6.1193,-6.1193,-6.1193,0.0,0.0,0.0,0.0,0.0,0.0,0.0,0.0,0.0,0.0,0.0,0.0,0.0,0.0,0.0,0.0,0.0,0.0,0.0,0.0,0.0,0.0,0.0,0.0,0.0,0.0,0.0,0.0,0.0,0.0,0.0,0.0,0.0,0.0,0.0,0.0,0.0,0.0,0.0,0.0,0.0,0.0,0.0,0.0,0.0,0.0,0.0,0.0,0.0,0.0,0.0,0.0,0.0,0.0,0.0,0.0,0.0,0.0,0.0,0.0,0.0,0.0,0.0,0.0,0.0,0.0,0.0,0.0,0.0,0.0,0.0,0.0,0.0,0.0,0.0,0.0,0.0,0.0,0.0,0.0,0.0,0.0,0.0,0.0,0.0,0.0,0.0,0.0,0.0,0.0,0.0,0.0,0.0,0.0,0.0,0.0,0.0,0.0,0.0,0.0,0.0,0.0,-6.1193,-6.1193,-6.1193,-6.1193,-6.1193,-6.1193,-6.1193,-6.1193,-6.1193,-6.1193,0.0,0.0,0.0,0.0,0.0,0.0,0.0,0.0,0.0,0.0,0.0,0.0,0.0,0.0,0.0,0.0,0.0,0.0,0.0,0.0,0.0,0.0,0.0,0.0,0.0,0.0,0.0,0.0,0.0,0.0,0.0,0.0,0.0,0.0,0.0,0.0,0.0,0.0,0.0,0.0,0.0,0.0,0.0,0.0,0.0,0.0,0.0,0.0,0.0,0.0,0.0,0.0,0.0,0.0,0.0,0.0,0.0,0.0,0.0,0.0,0.0,0.0,0.0,0.0,0.0,0.0,0.0,0.0,0.0,0.0,0.0,0.0,0.0,0.0,0.0,0.0,0.0,0.0,0.0,0.0,0.0,0.0,0.0,0.0,0.0,0.0,0.0,0.0,0.0,0.0,0.0,0.0,0.0,0.0,0.0,0.0,0.0,0.0,0.0,0.0,0.0,0.0,-6.1193,-6.1193,-6.1193,-6.1193,-6.1193,-6.1193,-6.1193,-6.1133,-6.1133,0.0,0.0,0.0,0.0,0.0,0.0,0.0,0.0,0.0,0.0,0.0,0.0,0.0,0.0,0.0,0.0,0.0,0.0,0.0,0.0,0.0,0.0,0.0,0.0,0.0,0.0,0.0,0.0,0.0,0.0,0.0,0.0,0.0,0.0,0.0,0.0,0.0,0.0,0.0,0.0,0.0,0.0,0.0,0.0,0.0,0.0,0.0,0.0,0.0,0.0,0.0,0.0,0.0,0.0,0.0,0.0,0.0,0.0,0.0,0.0,0.0,0.0,0.0,0.0,0.0,0.0,0.0,0.0,0.0,0.0,0.0,0.0,0.0,0.0,0.0,0.0,0.0,0.0,0.0,0.0,0.0,0.0,0.0,0.0,0.0,0.0,0.0,0.0,0.0,0.0,0.0,0.0,0.0,0.0,0.0,0.0,0.0,0.0,0.0,0.0,0.0,0.0,0.0,-5.9707,-5.9707,-5.9707,-5.9707,-5.9707,-5.9707,-5.9707,-5.878,-5.8655,-5.9645,0.0,0.0,0.0,0.0,0.0,0.0,0.0,0.0,0.0,0.0,0.0,0.0,0.0,0.0,0.0,0.0,0.0,0.0,0.0,0.0,0.0,0.0,0.0,0.0,0.0,0.0,0.0,0.0,0.0,0.0,0.0,0.0,0.0,0.0,0.0,0.0,0.0,0.0,0.0,0.0,0.0,0.0,0.0,0.0,0.0,0.0,0.0,0.0,0.0,0.0,0.0,0.0,0.0,0.0,0.0,0.0,0.0,0.0,0.0,0.0,0.0,0.0,0.0,0.0,0.0,0.0,0.0,0.0,0.0,0.0,0.0,0.0,0.0,0.0,0.0,0.0,0.0,0.0,0.0,0.0,0.0,0.0,0.0,0.0,0.0,0.0,0.0,0.0,0.0,0.0,0.0,0.0,0.0,0.0,0.0,0.0,0.0,0.0,0.0,0.0,0.0,0.0,-5.9058,-5.8592,-5.8277,-5.8277,-5.8277,-5.8277,-5.8277,-5.7487,-5.7359,-5.8214,0.0,0.0,0.0,0.0,0.0,0.0,0.0,0.0,0.0,0.0,0.0,0.0,0.0,0.0,0.0,0.0,0.0,0.0,0.0,0.0,0.0,0.0,0.0,0.0,0.0,0.0,0.0,0.0,0.0,0.0,0.0,0.0,0.0,0.0,0.0,0.0,0.0,0.0,0.0,0.0,0.0,0.0,0.0,0.0,0.0,0.0,0.0,0.0,0.0,0.0,0.0,0.0,0.0,0.0,0.0,0.0,0.0,0.0,0.0,0.0,0.0,0.0,0.0,0.0,0.0,0.0,0.0,0.0,0.0,0.0,0.0,0.0,0.0,0.0,0.0,0.0,0.0,0.0,0.0,0.0,0.0,0.0,0.0,0.0,0.0,0.0,0.0,0.0,0.0,0.0,0.0,0.0,0.0,0.0,0.0,0.0,0.0,0.0,0.0,0.0,0.0,0.0,-5.8613,-5.7697,-5.6861,-5.6861,-5.6915,-5.6915,-5.6861,-5.6796,-5.6704,-5.678,0.0,0.0,0.0,0.0,0.0,0.0,0.0,0.0,0.0,0.0,0.0,0.0,0.0,0.0,0.0,0.0,0.0,0.0,0.0,0.0,0.0,0.0,0.0,0.0,0.0,0.0,0.0,0.0,0.0,0.0,0.0,0.0,0.0,0.0,0.0,0.0,0.0,0.0,0.0,0.0,0.0,0.0,0.0,0.0,0.0,0.0,0.0,0.0,0.0,0.0,0.0,0.0,0.0,0.0,0.0,0.0,0.0,0.0,0.0,0.0,-6.2802,-6.3263,0.0,0.0,0.0,0.0,0.0,0.0,0.0,0.0,0.0,0.0,0.0,0.0,0.0,0.0,0.0,0.0,0.0,0.0,0.0,0.0,0.0,0.0,0.0,0.0,0.0,0.0,0.0,0.0,0.0,0.0,0.0,0.0,0.0,0.0,0.0,0.0,0.0,0.0,0.0,0.0,-5.6492,-5.6225,-5.6091,-5.6091,-5.6419,-5.6525,-5.6077,-5.5038,-5.4721,-5.5353,-5.5723,0.0,0.0,0.0,0.0,0.0,0.0,0.0,0.0,0.0,0.0,0.0,0.0,0.0,0.0,0.0,0.0,0.0,0.0,0.0,0.0,0.0,0.0,0.0,0.0,0.0,0.0,0.0,0.0,0.0,0.0,0.0,0.0,0.0,0.0,0.0,0.0,0.0,0.0,0.0,0.0,0.0,0.0,0.0,0.0,0.0,0.0,0.0,0.0,0.0,0.0,0.0,0.0,0.0,0.0,0.0,0.0,0.0,0.0,0.0,-6.1097,-6.1773,0.0,0.0,0.0,0.0,0.0,0.0,0.0,0.0,0.0,0.0,0.0,0.0,0.0,0.0,0.0,0.0,0.0,0.0,0.0,0.0,0.0,0.0,0.0,0.0,0.0,0.0,0.0,0.0,0.0,0.0,0.0,0.0,0.0,0.0,0.0,0.0,0.0,0.0,0.0,0.0,-5.6086,-5.5633,-5.5245,-5.5245,-5.5432,-5.5509,-5.527,-5.4575,-5.4138,-5.4133,-5.4738,0.0,0.0,0.0,0.0,0.0,0.0,0.0,0.0,0.0,0.0,0.0,0.0,0.0,0.0,0.0,0.0,0.0,0.0,0.0,0.0,0.0,0.0,0.0,0.0,0.0,0.0,0.0,0.0,0.0,0.0,0.0,0.0,0.0,0.0,0.0,0.0,0.0,0.0,0.0,0.0,0.0,0.0,0.0,0.0,0.0,0.0,0.0,0.0,0.0,0.0,0.0,0.0,0.0,-5.9931,-5.9862,-5.9862,-5.9862,-5.9192,-5.8063,-5.9306,-6.0,-6.0208,-6.0208,0.0,0.0,0.0,0.0,0.0,0.0,0.0,0.0,0.0,0.0,0.0,0.0,0.0,0.0,0.0,0.0,0.0,0.0,0.0,0.0,0.0,0.0,-5.4421,-5.4719,-5.457,-5.43,-5.4157,0.0,0.0,0.0,0.0,0.0,0.0,0.0,0.0,0.0,0.0,0.0,-5.6088,-5.5228,-5.4498,-5.4498,-5.4574,-5.4599,-5.4498,-5.457,-5.4248,-5.3275,-5.4366,-5.4569,0.0,0.0,0.0,0.0,0.0,0.0,0.0,0.0,0.0,0.0,0.0,0.0,0.0,0.0,0.0,0.0,0.0,0.0,0.0,0.0,0.0,0.0,0.0,0.0,0.0,0.0,0.0,0.0,0.0,0.0,0.0,0.0,-6.1165,-6.1165,0.0,0.0,0.0,0.0,0.0,0.0,0.0,0.0,0.0,0.0,0.0,0.0,0.0,-6.0825,-6.062,-5.9306,-5.8701,-5.8701,-5.7374,-5.6776,-5.6776,-5.6776,-5.6703,-5.6485,-5.6703,0.0,-5.8701,-5.8701,0.0,0.0,0.0,0.0,0.0,0.0,0.0,0.0,0.0,0.0,0.0,0.0,0.0,0.0,0.0,0.0,0.0,0.0,0.0,0.0,0.0,0.0,-5.3897,-5.3972,-5.3897,-5.3873,-5.3876,-5.435,-5.482,-5.482,-5.4893,-5.4967,0.0,0.0,0.0,0.0,0.0,0.0,-5.4543,-5.4325,-5.4277,-5.4277,-5.4696,-5.4795,-5.4302,-5.4568,-5.4392,-5.3416,-5.3868,-5.3761,-5.2791,-5.2837,0.0,0.0,0.0,0.0,0.0,0.0,0.0,0.0,0.0,0.0,0.0,0.0,0.0,0.0,0.0,0.0,0.0,0.0,0.0,0.0,0.0,0.0,0.0,0.0,0.0,0.0,0.0,0.0,0.0,-6.2242,-6.1504,-6.0688,-6.1908,-6.2442,0.0,0.0,0.0,0.0,0.0,0.0,0.0,0.0,0.0,-5.9375,-5.9375,-5.8982,-5.8134,-5.7518,-5.7184,-5.7184,-5.6485,-5.6219,-5.6219,-5.6219,-5.6219,-5.6219,-5.5999,-5.6267,-5.6823,-5.6823,-5.7086,-5.7492,0.0,0.0,0.0,0.0,-5.7179,-5.7107,-5.6721,-5.6141,-5.5654,-5.5654,0.0,0.0,0.0,0.0,0.0,0.0,0.0,-5.4645,-5.4496,-5.4122,-5.3822,-5.3822,-5.3822,-5.3822,-5.3822,-5.4047,-5.4421,-5.4645,-5.4645,-5.4794,-5.5189,-5.5263,0.0,0.0,0.0,-5.5211,-5.4966,-5.4966,-5.4966,-5.4966,-5.4967,-5.4868,-5.4623,-5.4844,-5.4524,-5.3595,-5.3716,-5.3398,-5.2452,-5.2351,-5.2201,0.0,0.0,0.0,0.0,0.0,0.0,0.0,0.0,0.0,0.0,0.0,0.0,0.0,0.0,0.0,0.0,0.0,0.0,0.0,0.0,0.0,0.0,0.0,0.0,0.0,0.0,0.0,0.0,-6.188,-6.1138,-5.9654,-6.0798,-6.1206,0.0,0.0,0.0,0.0,0.0,0.0,-6.007,-6.0,-5.9375,-5.7876,-5.7876,-5.7328,-5.6219,-5.6219,-5.6219,-5.6219,-5.6219,-5.6219,-5.6219,-5.6219,-5.6219,-5.6219,-5.5779,-5.5558,-5.5485,-5.5485,-5.5263,-5.4967,-5.4967,-5.4967,-5.4967,-5.4892,-5.4892,-5.4794,-5.4421,-5.4272,-5.4272,-5.4272,-5.4272,-5.4322,-5.4719,0.0,0.0,0.0,0.0,-5.4397,-5.4248,-5.4047,-5.3822,-5.3822,-5.3822,-5.3822,-5.3822,-5.3822,-5.3897,-5.4197,-5.4272,-5.4347,-5.4794,-5.4892,0.0,-5.4892,-5.509,-5.5238,-5.5164,-5.5164,-5.5164,-5.5164,-5.4868,-5.4669,-5.4669,-5.4818,-5.4474,-5.369,-5.374,-5.3447,-5.2573,-5.2381,-5.2307,-5.2233,0.0,0.0,0.0,0.0,0.0,0.0,0.0,0.0,0.0,0.0,0.0,0.0,0.0,0.0,0.0,0.0,0.0,0.0,0.0,0.0,0.0,0.0,0.0,0.0,0.0,0.0,0.0,0.0,0.0,-5.6631,-5.7733,0.0,0.0,0.0,0.0,-6.062,-6.062,-6.0,-5.856,-5.8489,-5.7804,-5.634,-5.6267,-5.6292,-5.6219,-5.6219,-5.6219,-5.6219,-5.6219,-5.6219,-5.6219,-5.6219,-5.6219,-5.6219,-5.5779,-5.5411,-5.5041,-5.5041,-5.5041,-5.4967,-5.4967,-5.4967,-5.4967,-5.457,-5.4397,-5.4322,-5.3972,-5.3822,-5.3822,-5.3822,-5.3822,-5.3897,-5.4322,-5.4397,0.0,0.0,-5.4397,-5.4322,-5.3972,-5.3822,-5.3822,-5.3822,-5.3822,-5.3822,-5.3822,-5.3822,-5.3822,-5.3822,-5.3822,-5.3972,-5.4322,0.0,-5.4397,-5.4397,-5.4496,-5.4322,-5.3972,-5.3897,-5.3897,-5.3897,-5.3897,-5.3897,-5.3897,-5.4197,-5.4248,-5.3774,-5.4149,-5.3981,-5.3127,-5.3078,-5.2961,-5.2792,-5.2257,0.0,0.0,0.0,0.0,0.0,0.0,0.0,0.0,0.0,0.0,0.0,0.0,0.0,0.0,0.0,0.0,0.0,0.0,0.0,0.0,0.0,0.0,0.0,0.0,0.0,0.0,0.0,0.0,-5.634,-5.7518,0.0,-5.7112,-5.8347,-5.8771,-5.7876,-5.7804,-5.7518,-5.704,-5.6968,-5.675,-5.6219,-5.6219,-5.6219,-5.6219,-5.6219,-5.6219,-5.6219,-5.5926,-5.5852,-5.5779,-5.5558,-5.5411,-5.5411,-5.5016,-5.4719,-5.457,-5.4347,-5.4197,-5.4197,-5.4197,-5.4197,-5.4197,-5.4047,-5.4047,-5.3972,-5.3822,-5.3822,-5.3822,-5.3822,-5.3822,-5.3822,-5.3972,-5.4047,-5.4047,-5.4047,-5.4047,-5.3972,-5.3822,-5.3822,-5.3822,-5.3822,-5.3822,-5.3822,-5.3822,-5.3822,-5.3822,-5.3822,-5.3822,-5.3822,-5.3972,-5.4047,-5.4047,-5.4047,-5.4248,-5.4322,-5.4173,-5.4197,-5.4197,-5.4197,-5.3972,-5.3822,-5.3822,-5.3972,-5.3972,-5.3822,-5.3972,-5.3876,-5.3558,-5.3245,-5.3054,-5.2985,-5.2478,-5.2284,0.0,0.0,0.0,0.0,0.0,0.0,0.0,0.0,0.0,0.0,0.0,0.0,0.0,0.0,0.0,0.0,0.0,0.0,0.0,0.0,0.0,0.0,0.0,0.0,0.0,-5.8418,-5.7876,-5.634,-5.704,-5.7256,-5.6267,-5.7112,-5.7256,-5.6267,-5.6219,-5.6219,-5.6219,-5.6219,-5.6219,-5.6219,-5.6219,-5.6219,-5.6219,-5.6219,-5.6219,-5.6219,-5.5779,-5.5632,-5.5632,-5.5189,-5.4967,-5.4967,-5.457,-5.4397,-5.4322,-5.3972,-5.3822,-5.3822,-5.3822,-5.3822,-5.3822,-5.3822,-5.3822,-5.3822,-5.3822,-5.3822,-5.3822,-5.3822,-5.3822,-5.3822,-5.3822,-5.3822,-5.3822,-5.3822,-5.3822,-5.3822,-5.3822,-5.3822,-5.3822,-5.3822,-5.3822,-5.3822,-5.3822,-5.3822,-5.3822,-5.3822,-5.3822,-5.3822,-5.3822,-5.3822,-5.3822,-5.3822,-5.4047,-5.4197,-5.4197,-5.4197,-5.4197,-5.4197,-5.3972,-5.3822,-5.3822,-5.3822,-5.3822,-5.3822,-5.3822,-5.3822,-5.3822,-5.3485,-5.3317,-5.3317,-5.2812,-5.2451,-5.2283,0.0,0.0,0.0,0.0,0.0,0.0,0.0,0.0,0.0,0.0,0.0,0.0,0.0,0.0,0.0,0.0,0.0,0.0,0.0,0.0,0.0,0.0,0.0,-5.8134,-5.8347,-5.7804,-5.634,-5.6219,-5.6219,-5.6219,-5.6219,-5.6219,-5.6219,-5.6219,-5.6219,-5.6219,-5.6219,-5.6219,-5.6219,-5.6219,-5.6219,-5.6219,-5.6219,-5.6219,-5.6219,-5.5779,-5.5632,-5.5558,-5.5189,-5.4967,-5.4967,-5.457,-5.4397,-5.4322,-5.3972,-5.3822,-5.3822,-5.3822,-5.3822,-5.3822,-5.3822,-5.3822,-5.3822,-5.3822,-5.3822,-5.3822,-5.3822,-5.3822,-5.3822,-5.3822,-5.3822,-5.3822,-5.3822,-5.3822,-5.3822,-5.3822,-5.3822,-5.3822,-5.3822,-5.3822,-5.3822,-5.3822,-5.3822,-5.3822,-5.3822,-5.3822,-5.3822,-5.3822,-5.3822,-5.3822,-5.3822,-5.3822,0.0,-5.3822,-5.3822,-5.3822,-5.3822,-5.3822,-5.3822,-5.3822,-5.3822,-5.3822,-5.3822,-5.3822,-5.3822,-5.3822,-5.3822,-5.3822,-5.3822,-5.3341,-5.2836,-5.2307,0.0,0.0,0.0,0.0,0.0,0.0,0.0,0.0,0.0,0.0,0.0,0.0,0.0,0.0,0.0,0.0,0.0,0.0,0.0,0.0,0.0,-5.6219,-5.634,-5.6776,-5.6823,-5.6631,-5.6292,-5.6219,-5.6219,-5.6219,-5.6219,-5.6219,-5.6219,-5.6219,-5.6219,-5.6219,-5.6219,-5.6219,-5.6219,-5.6219,-5.6072,-5.5779,-5.6072,-5.6072,-5.5779,-5.5632,-5.5485,-5.5189,-5.4719,-5.4421,-5.4122,-5.4047,-5.3972,-5.3972,-5.3822,-5.3822,-5.3822,-5.3822,-5.3822,-5.3822,-5.3822,-5.3822,-5.3822,-5.3822,-5.3822,-5.3822,-5.3822,-5.3822,-5.3822,-5.3822,-5.3822,-5.3822,-5.3822,-5.3822,-5.3822,-5.3822,-5.3822,-5.3822,-5.3822,-5.3822,-5.3822,-5.3822,-5.3822,-5.3822,-5.3822,-5.3822,-5.3822,-5.3822,-5.3822,-5.3822,-5.3822,-5.3822,-5.3822,-5.3822,-5.3822,-5.3822,-5.3822,-5.3822,-5.3822,-5.3822,-5.3822,-5.3822,-5.3822,-5.3822,-5.3822,-5.3822,-5.3822,-5.3822,-5.3822,-5.3678,-5.3365,0.0,0.0,0.0,0.0,0.0,0.0,0.0,0.0,0.0,0.0,0.0,0.0,0.0,0.0,0.0,0.0,0.0,0.0,0.0,0.0,0.0,0.0,-5.6219,-5.6219,-5.6219,-5.6219,-5.6219,-5.6219,-5.6219,-5.6219,-5.6219,-5.6219,-5.6219,-5.6219,-5.6219,-5.6219,-5.6219,-5.6219,-5.6219,-5.6219,-5.6219,-5.6072,-5.5852,-5.6072,-5.5999,-5.5632,-5.5411,-5.5115,-5.4719,-5.4347,-5.4047,-5.3822,-5.3822,-5.3822,-5.3822,-5.3822,-5.3822,0.0,0.0,0.0,0.0,0.0,-5.3822,-5.3822,-5.3822,-5.3822,-5.3822,-5.3822,-5.3822,-5.3822,-5.3822,-5.3822,-5.3822,-5.3822,-5.3822,-5.3822,-5.3822,-5.3822,-5.3822,-5.3822,-5.3822,-5.3822,-5.3822,-5.3822,-5.3822,-5.3822,-5.3822,0.0,-5.3822,-5.3822,-5.3822,-5.3822,-5.3822,-5.3822,-5.3822,-5.3822,-5.3822,-5.3822,-5.3822,-5.3822,-5.3822,-5.3822,0.0,0.0,0.0,-5.3822,-5.3822,-5.3822,0.0,0.0,0.0,-5.3678,-5.3389,0.0,0.0,0.0,-5.2817,-5.2623,0.0,0.0,0.0,0.0,0.0,0.0,0.0,0.0,0.0,0.0,0.0,0.0,0.0,0.0,0.0,0.0,-5.6219,-5.6219,-5.6219,-5.6219,-5.6219,-5.6219,-5.6219,-5.6219,-5.6219,-5.6219,-5.6219,-5.6219,-5.6219,-5.6219,-5.6219,-5.6219,0.0,0.0,0.0,-5.6319,-5.6321,-5.6321,-5.6101,-5.5732,-5.5362,-5.4989,-5.4591,-5.4168,-5.3918,-5.3918,-5.3846,-5.3822,-5.3822,-5.3822,-5.3822,-5.3822,-5.3822,-5.3822,-5.3822,-5.3822,-5.3822,-5.3822,-5.3822,0.0,0.0,-5.3822,-5.3822,-5.3822,-5.3822,-5.3822,-5.3822,-5.3822,-5.3822,-5.3822,-5.3822,-5.3822,-5.3822,-5.3822,-5.3822,-5.3822,-5.3822,-5.3822,-5.3822,-5.3822,-5.3822,-5.3822,-5.3822,-5.3822,-5.3822,-5.3822,-5.3822,-5.3822,-5.3822,-5.3822,-5.3822,-5.3822,0.0,0.0,-5.3822,-5.3822,-5.3822,-5.3822,-5.3822,-5.3822,-5.3822,-5.3822,-5.3822,-5.3822,-5.3822,-5.3822,-5.3822,-5.3822,-5.3822,-5.3798,-5.2884,-5.2451,0.0,0.0,0.0,0.0,0.0,0.0,0.0,0.0,0.0,0.0,0.0,0.0,0.0,0.0,0.0,-5.6219,-5.6219,-5.6219,-5.6219,-5.6219,-5.6219,-5.6219,-5.6219,-5.6219,-5.6219,-5.6219,-5.6219,-5.6219,-5.6219,-5.6219,-5.6219,-5.6219,-5.642,-5.6872,-5.6872,-5.6949,-5.7074,-5.6999,-5.6773,-5.642,-5.6344,0.0,-5.5634,-5.5172,-5.4751,-5.4423,-5.3991,-5.3822,-5.3822,-5.3822,-5.3822,-5.3822,-5.3822,-5.3822,-5.3822,-5.3822,-5.3822,-5.3822,-5.3822,-5.3822,-5.3822,-5.3822,-5.3822,-5.3822,-5.3822,-5.3822,0.0,-5.3822,-5.3822,-5.3822,-5.3822,-5.3822,-5.3822,-5.3822,-5.3822,-5.3822,-5.3822,-5.3822,-5.3822,-5.3822,-5.3822,-5.3822,-5.3822,-5.3822,-5.3822,-5.3822,-5.3822,-5.3822,-5.3822,-5.3822,-5.3822,-5.3822,-5.3822,-5.3822,-5.3822,-5.3822,-5.3822,-5.3822,-5.3822,-5.3822,-5.3822,-5.3822,-5.3822,-5.3822,-5.3822,-5.3822,-5.3822,-5.3822,-5.3822,-5.3822,-5.3606,-5.351,0.0,0.0,0.0,0.0,0.0,0.0,0.0,0.0,0.0,0.0,0.0,-5.6219,-5.6219,0.0,-5.6219,-5.6219,-5.6219,-5.6219,-5.6219,-5.6219,-5.6219,-5.6219,-5.6219,-5.6219,-5.6219,-5.6219,-5.6219,-5.6219,-5.6219,-5.6344,-5.662,-5.662,-5.6872,-5.7449,-5.7474,-5.7375,-5.7247,-5.7423,-5.712,-5.6281,-5.6486,-5.6256,-5.5718,-5.5428,-5.5231,-5.4977,-5.4447,-5.4207,-5.4183,-5.3918,-5.3822,-5.3822,-5.3822,-5.3822,-5.3822,-5.3822,-5.3822,-5.3822,-5.3822,-5.3822,-5.3822,-5.3822,-5.3822,-5.3822,-5.3822,-5.3822,-5.3822,-5.3822,-5.3822,-5.3822,-5.3822,-5.3822,-5.3822,-5.3822,-5.3822,-5.3822,-5.3822,-5.3822,-5.3822,-5.3822,-5.4039,-5.4207,-5.4207,-5.4423,-5.4423,-5.3894,-5.4039,-5.4207,-5.4207,-5.4447,-5.4616,-5.4616,-5.4375,-5.4207,-5.4207,-5.3966,-5.3822,-5.3822,-5.3822,-5.3822,-5.3822,-5.3822,-5.3822,-5.3822,-5.3822,-5.3822,-5.3822,-5.3822,-5.3822,-5.3822,-5.3822,-5.3822,0.0,0.0,0.0,0.0,0.0,0.0,0.0,-5.6219,-5.6219,-5.6219,-5.6219,-5.6219,-5.6219,-5.6219,-5.6219,-5.6219,-5.6219,-5.6219,-5.6219,-5.6219,-5.6219,-5.6219,-5.6219,-5.6219,-5.6219,-5.6219,-5.6219,-5.6219,-5.6319,-5.657,-5.7022,-5.7148,-5.7399,-5.7901,-5.7901,-5.7799,-5.7494,-5.7747,-5.7366,-5.6444,-5.6574,-5.6342,-5.5698,-5.5602,-5.5554,-5.553,-5.5001,-5.4712,-5.4568,-5.4159,-5.3918,-5.3822,-5.3822,-5.3822,-5.3822,-5.3822,-5.3822,-5.3822,-5.3822,-5.3822,-5.3822,-5.3822,-5.3822,-5.3822,-5.3822,-5.3822,-5.3822,-5.3822,-5.3822,-5.3822,-5.3822,-5.3822,-5.3822,-5.3822,-5.3822,-5.3822,-5.3822,-5.3894,-5.3966,-5.3966,-5.4399,-5.476,-5.476,-5.5121,-5.5097,-5.4255,-5.4496,-5.476,-5.476,-5.5145,-5.5385,-5.5385,-5.5025,-5.476,-5.476,-5.4375,-5.4087,-5.3966,-5.3966,-5.3918,-5.3822,-5.3822,-5.3822,-5.3822,-5.3822,-5.3822,-5.3822,-5.3822,-5.3822,-5.3822,-5.3822,-5.3822,-5.6219,-5.6219,-5.6219,-5.6219,-5.6219,-5.6219,0.0,-5.6219,-5.6219,-5.6219,-5.6219,-5.6219,-5.6219,-5.6219,-5.6219,-5.6219,-5.6219,-5.6219,-5.6219,-5.6219,-5.6219,-5.6219,-5.6219,-5.6219,-5.6219,-5.6219,-5.6219,-5.6219,-5.6671,-5.6972,-5.7022,-5.7524,-5.7901,-5.8069,-5.8094,-5.8318,-5.8688,-5.8011,-5.78,-5.8035,-5.7327,-5.6932,-5.6828,-5.6347,-5.6131,-5.6107,-5.5554,-5.5049,-5.4592,-5.4544,-5.4255,-5.3822,-5.3822,-5.3822,-5.3822,-5.3822,-5.3822,-5.3822,-5.3822,-5.3822,-5.3822,-5.3822,-5.3822,-5.3822,-5.3822,-5.3822,-5.3822,-5.3822,-5.3822,-5.3822,-5.3822,-5.3822,-5.3822,-5.3822,-5.3822,-5.3822,-5.3822,-5.4183,-5.452,-5.452,-5.4952,-5.5313,-5.5313,-5.5361,-5.5361,-5.5241,-5.5265,-5.5313,-5.5313,-5.5361,-5.5385,-5.5385,-5.5337,-5.5313,-5.5313,-5.5265,-5.5025,-5.4544,-5.452,-5.4303,-5.3846,-5.3822,-5.3822,-5.3822,-5.3822,-5.3822,-5.3822,-5.3822,-5.3822,-5.3822,-5.3822,-5.3822,-5.6219,-5.6219,-5.6219,-5.6219,-5.6219,-5.6219,-5.6219,-5.6219,-5.6219,-5.6219,-5.6219,-5.6219,-5.6219,-5.6219,-5.6219,-5.6219,-5.6219,-5.6219,-5.6219,-5.6219,-5.6219,-5.6219,-5.6219,-5.6219,-5.6219,-5.6219,-5.6344,-5.6671,-5.6897,-5.7323,-5.7976,-5.8252,-5.8553,-5.8925,-5.8925,-5.8818,-5.8599,-5.8418,-5.8104,-5.7576,-5.7418,-5.7259,-5.7021,-5.6804,-5.6516,-5.6227,-5.5987,-5.5578,-5.5073,-5.5073,-5.4928,-5.4712,-5.4399,-5.4279,-5.4231,-5.3942,-5.3822,-5.3822,-5.3822,-5.3822,-5.3822,-5.3822,-5.3822,-5.3822,-5.3822,-5.3822,-5.3822,-5.3822,-5.3822,-5.3822,-5.3822,-5.3822,-5.3894,-5.4207,-5.4279,-5.4351,-5.4664,-5.4904,-5.5073,-5.5073,-5.5506,-5.589,-5.589,-5.6131,-5.6347,-5.6347,-5.6083,-5.589,-5.589,-5.6155,-5.6227,-5.5914,-5.589,-5.5746,-5.5433,-5.5385,-5.5289,-5.5073,-5.5073,-5.4832,-5.4303,-5.4279,-5.4135,-5.3822,-5.3822,-5.3822,-5.3822,-5.3822,-5.3822,-5.3822,-5.3822,-5.3822,-5.6219,-5.6219,-5.6219,-5.6219,-5.6219,-5.6219,-5.6219,-5.6219,-5.6219,-5.6219,-5.6219,-5.6219,-5.6219,-5.6219,-5.6219,-5.6219,-5.6219,-5.6219,-5.6219,-5.6344,-5.6445,-5.6445,-5.657,-5.6671,-5.6671,-5.652,-5.6671,-5.7223,-5.7424,-5.7851,-5.8679,-5.8702,-5.8875,-5.9198,-5.9043,-5.8731,-5.8129,-5.8261,-5.7947,-5.718,-5.7339,-5.7259,-5.7021,-5.7021,-5.6804,-5.6444,-5.6444,-5.6131,-5.5626,-5.5626,-5.553,-5.5361,-5.4977,-5.4832,-5.4784,-5.4399,-5.4063,-5.3822,-5.3822,-5.3822,-5.3822,-5.3822,-5.3822,-5.3822,-5.3822,-5.3822,-5.3846,-5.3991,-5.4039,-5.4063,-5.4207,-5.4255,-5.4351,-5.4736,-5.4832,-5.4928,-5.5313,-5.553,-5.5626,-5.5626,-5.6059,-5.6444,-5.6444,-5.6756,-5.7021,-5.7021,-5.6708,-5.6444,-5.6444,-5.678,-5.6876,-5.6492,-5.6444,-5.6275,-5.5866,-5.5842,-5.5794,-5.565,-5.5626,-5.5385,-5.4832,-5.4832,-5.4568,-5.4039,-5.4039,-5.3966,-5.3822,-5.3822,-5.3822,-5.3822,-5.3822,-5.3822,-5.6219,-5.6219,-5.6219,-5.6219,-5.6219,-5.6219,-5.6219,-5.6219,-5.6219,-5.6219,-5.6219,-5.6219,-5.6219,-5.6219,-5.6219,-5.6219,-5.6219,-5.6219,-5.6219,-5.6671,-5.7022,-5.7022,-5.7499,-5.7851,-5.7851,-5.7349,-5.7248,-5.7826,-5.8353,-5.8679,-5.873,-5.8821,-5.8706,-5.8364,-5.7892,-5.7631,-5.7631,-5.7259,-5.7259,-5.7576,-5.718,-5.7021,-5.7021,-5.7021,-5.7021,-5.6997,-5.6997,-5.6708,-5.6203,-5.6203,-5.589,-5.5385,-5.5385,-5.5385,-5.5361,-5.5361,-5.4688,-5.3822,-5.3822,-5.3822,-5.3822,-5.3822,-5.3822,-5.3822,-5.3822,-5.3822,-5.3918,-5.4447,-5.4592,-5.4712,-5.5217,-5.5337,-5.5361,-5.5361,-5.5385,-5.5385,-5.5385,-5.5818,-5.6203,-5.6203,-5.6636,-5.6997,-5.6997,-5.7021,-5.7021,-5.7021,-5.6997,-5.6997,-5.6997,-5.7021,-5.7021,-5.6997,-5.6997,-5.6997,-5.6973,-5.6973,-5.6756,-5.6251,-5.6203,-5.5963,-5.5385,-5.5385,-5.5121,-5.4592,-5.4592,-5.4327,-5.3822,-5.3822,-5.3822,-5.3822,-5.3822,-5.3822,-5.6219,-5.6219,-5.6219,-5.6219,-5.6219,-5.6219,-5.6219,-5.6219,-5.6219,-5.6219,-5.6219,-5.6219,-5.6219,-5.6219,-5.6344,-5.6696,-5.6746,-5.6897,-5.7273,-5.7499,-5.76,-5.76,-5.7775,-5.8052,-5.8403,-5.7951,-5.7851,-5.8403,-5.8604,-5.8727,-5.8846,-5.8865,-5.8731,-5.831,-5.8129,-5.7892,-5.7552,-5.7497,-5.7339,-5.718,-5.71,-5.7021,-5.7021,-5.7021,-5.7021,-5.7021,-5.7021,-5.6925,-5.6756,-5.6756,-5.6636,-5.6444,-5.6083,-5.5963,-5.5914,-5.553,-5.5169,-5.4856,-5.4856,-5.4856,-5.4856,-5.4856,-5.4856,-5.4856,-5.4856,-5.4856,-5.4904,-5.5073,-5.5121,-5.5169,-5.5337,-5.5385,-5.5482,-5.5866,-5.5963,-5.6059,-5.6395,-5.6612,-5.6756,-5.6756,-5.69,-5.7021,-5.7021,-5.7021,-5.7021,-5.7021,-5.7021,-5.7021,-5.7021,-5.7021,-5.7021,-5.7021,-5.7021,-5.7021,-5.7021,-5.7021,-5.6949,-5.6756,-5.6756,-5.6516,-5.5963,-5.5963,-5.5698,-5.5145,-5.5121,-5.5049,-5.4856,-5.4856,-5.4688,-5.4351,-5.4351,-5.4159,-5.6219,-5.6219,-5.6219,-5.6219,-5.6219,-5.6219,-5.6219,-5.6219,-5.6219,-5.6219,-5.6219,-5.6219,-5.6219,-5.6369,-5.662,-5.6972,-5.7198,-5.7474,-5.7851,-5.8077,-5.8202,-5.8202,-5.8353,-5.8528,-5.8725,-5.8603,-5.8553,-5.875,-5.8775,-5.8771,-5.8706,-5.8496,-5.834,-5.805,-5.7892,-5.7753,-5.7684,-5.7684,-5.7525,-5.7285,-5.7117,-5.7021,-5.7021,-5.7021,-5.7021,-5.7021,-5.7021,-5.7021,-5.7021,-5.7021,-5.7021,-5.6997,-5.666,-5.6516,-5.6468,-5.6107,-5.5987,-5.5914,-5.553,-5.5385,-5.5385,-5.5385,-5.5385,-5.5385,-5.5385,-5.5385,-5.5433,-5.565,-5.5698,-5.5746,-5.5938,-5.5987,-5.6059,-5.6419,-5.6516,-5.6612,-5.6949,-5.7021,-5.7021,-5.7021,-5.7021,-5.7021,-5.7021,-5.6438,-5.6013,-5.6013,-5.5506,-5.5587,-5.6861,-5.7021,-5.7021,-5.7021,-5.7021,-5.7021,-5.7021,-5.7021,-5.7021,-5.7021,-5.7021,-5.6876,-5.654,-5.6516,-5.6251,-5.5698,-5.5698,-5.5602,-5.5385,-5.5385,-5.5217,-5.488,-5.488,-5.4712,-5.6219,-5.6219,-5.6219,-5.6219,-5.6219,-5.6219,-5.6219,-5.6219,-5.6219,-5.6219,-5.6219,-5.6219,-5.6219,-5.6671,-5.7047,-5.7072,-5.7549,-5.7951,-5.7976,-5.8428,-5.8755,-5.8755,-5.9207,-5.9328,-5.894,-5.9276,-5.9328,-5.894,-5.894,-5.8731,-5.831,-5.7892,-5.7655,-5.7601,-5.7228,-5.7309,-5.7838,-5.7838,-5.7838,-5.7838,-5.7309,-5.7069,-5.7069,-5.7045,-5.7021,-5.7021,-5.7021,-5.7021,-5.7021,-5.7021,-5.7021,-5.7021,-5.7021,-5.7021,-5.7021,-5.7021,-5.7021,-5.6876,-5.5842,-5.5482,-5.5482,-5.5482,-5.5482,-5.5482,-5.5482,-5.5482,-5.5578,-5.6131,-5.6275,-5.6395,-5.69,-5.7021,-5.7021,-5.7021,-5.7021,-5.6941,-5.6861,-5.6861,-5.6861,-5.6782,-5.6758,-5.6861,-5.6861,-5.5426,-5.4242,-5.4161,-5.2763,-5.2928,-5.6278,-5.6758,-5.6758,-5.6758,-5.6758,-5.6758,-5.6758,-5.6758,-5.6758,-5.6758,-5.6758,-5.6758,-5.6758,-5.6837,-5.6622,-5.596,-5.6197,-5.5932,-5.5326,-5.5404,-5.5458,-5.5433,-5.5433,-5.5433,-5.6219,-5.6219,-5.6219,-5.6219,-5.6219,-5.6219,-5.6219,-5.6219,-5.6219,-5.6219,-5.6219,-5.6219,-5.6219,-5.6671,-5.7173,-5.76,-5.8152,-5.8654,-5.9031,-5.9207,-5.9307,-5.9307,-5.9408,-5.9483,-5.9353,-5.9405,-5.9328,-5.894,-5.9198,-5.9043,-5.831,-5.8232,-5.8008,-5.7759,-5.7678,-5.7862,-5.8392,-5.8392,-5.8392,-5.8392,-5.7862,-5.7622,-5.7598,-5.7189,-5.7021,-5.7021,-5.7021,-5.7021,-5.7021,-5.7021,-5.7021,-5.7021,-5.7021,-5.7021,-5.7021,-5.7021,-5.7021,-5.6973,-5.6708,-5.6612,-5.6612,-5.6612,-5.6612,-5.6612,-5.6612,-5.6612,-5.6636,-5.678,-5.6828,-5.6852,-5.6997,-5.7021,-5.7021,-5.7021,-5.7021,-5.6598,-5.5264,-5.4998,-5.4592,-5.3258,-5.4102,-5.4998,-5.4998,-5.4592,-5.3834,-5.2597,-5.2015,-5.2015,-5.2928,-5.3011,-5.3011,-5.3011,-5.3011,-5.3011,-5.3011,-5.3011,-5.3011,-5.3011,-5.3011,-5.3011,-5.3011,-5.4347,-5.4278,-5.2914,-5.548,-5.6073,-5.4603,-5.593,-5.6395,-5.6011,-5.6011,-5.5794,-5.6219,-5.6219,-5.6219,-5.6219,-5.6219,-5.6219,-5.6219,-5.6219,-5.6219,-5.6219,-5.6219,-5.6219,-5.6219,-5.6872,-5.7524,-5.7851,-5.8554,-5.9156,-5.9458,-5.9483,-5.9483,-5.9483,-5.9328,-5.9198,-5.8965,-5.912,-5.894,-5.8418,-5.8887,-5.8887,-5.805,-5.8191,-5.8142,-5.779,-5.8031,-5.8416,-5.8945,-5.8945,-5.8945,-5.8945,-5.8416,-5.8151,-5.8127,-5.7598,-5.7357,-5.7357,-5.7117,-5.7021,-5.7021,-5.7021,-5.7021,-5.7021,-5.7021,-5.7021,-5.7021,-5.7021,-5.7021,-5.7021,-5.7021,-5.7021,-5.7021,-5.7021,-5.7021,-5.7021,-5.7021,-5.7021,-5.7021,-5.7021,-5.7021,-5.7021,-5.7021,-5.7021,-5.7021,-5.7021,-5.7021,-5.6678,-5.5668,-5.4835,-5.3752,-5.2015,-5.2514,-5.3176,-5.3176,-5.2492,-5.166,-5.0674,-4.9828,-4.9338,-4.9338,-5.0758,-5.1682,-5.1682,-5.1682,-5.1682,-5.1682,-5.1682,-5.1682,-5.1682,-5.1682,-5.1682,-5.1682,-5.268,-5.268,-5.1682,-5.367,-5.4592,-5.4324,-5.5345,-5.6032,-5.6588,-5.6588,-5.6419,-5.6219,-5.6219,-5.6219,-5.6219,-5.6219,-5.6219,-5.6219,-5.6219,-5.6219,-5.6219,-5.6219,-5.6219,-5.6219,-5.7148,-5.7901,-5.7901,-5.8805,-5.9483,-5.9483,-5.9483,-5.9483,-5.9483,-5.9198,-5.8809,-5.8443,-5.8727,-5.8673,-5.7832,-5.8591,-5.8669,-5.7753,-5.8183,-5.8338,-5.8007,-5.8536,-5.9017,-5.9498,-5.9498,-5.9498,-5.9474,-5.8945,-5.8704,-5.868,-5.8151,-5.7886,-5.779,-5.7333,-5.7093,-5.7021,-5.7021,-5.7021,-5.7021,-5.7021,-5.7021,-5.7021,-5.7021,-5.7021,-5.7021,-5.7021,-5.7021,-5.7021,-5.7021,-5.7021,-5.7021,-5.7021,-5.7021,-5.7021,-5.7021,-5.7021,-5.7021,-5.7021,-5.7021,-5.7021,-5.7021,-5.6861,-5.6598,-5.6358,-5.4673,-5.2823,-5.1598,-5.1347,-5.1347,-5.1347,-4.9998,-4.8911,-4.8654,-4.7314,-4.6308,-4.6308,-4.9082,-5.1011,-5.1011,-5.1011,-5.1011,-5.1011,-5.1011,-5.1011,-5.1011,-5.1011,-5.1011,-5.1011,-5.1179,-5.1263,-5.1011,-5.1431,-5.2348,-5.3587,-5.3834,-5.4917,-5.6598,-5.6598,-5.6758,-5.6219,-5.6219,-5.6219,-5.6219,-5.6219,-5.6219,-5.6219,-5.6219,-5.6219,-5.6219,-5.6219,-5.6219,-5.6219,-5.7148,-5.7901,-5.7901,-5.8805,-5.9483,-5.9483,-5.9483,-5.9483,-5.9483,-5.9405,-5.9276,-5.8809,-5.9231,-5.9346,-5.8895,-5.9367,-5.9232,-5.8312,-5.8798,-5.9065,-5.9089,-5.9618,-5.9955,-6.0027,-6.0027,-6.0027,-6.0027,-5.9498,-5.9257,-5.9233,-5.8704,-5.8223,-5.779,-5.7718,-5.743,-5.7021,-5.7021,-5.7021,-5.7021,-5.7021,-5.7021,-5.7021,-5.7021,-5.7021,-5.7021,-5.7021,-5.7021,-5.7021,-5.7021,-5.7021,-5.7021,-5.7021,-5.7021,-5.7021,-5.7021,-5.7021,-5.7021,-5.7021,-5.7021,-5.7021,-5.7021,-5.5852,-5.4324,-5.2928,-4.9998,-4.8073,-4.9253,-4.9488,-4.9488,-4.9488,-4.9253,-4.8482,-4.6967,-4.6464,-4.6308,-4.6308,-4.69,-4.7228,-4.7228,-4.7228,-4.7228,-4.7228,-4.7228,-4.7228,-4.7228,-4.7228,-4.7228,-4.7228,-4.8654,-4.874,-4.7228,-5.0167,-5.1095,-4.9913,-5.1409,-5.3093,-5.4754,-5.4754,-5.5587,-5.6219,-5.6219,-5.6219,-5.6219,-5.6219,-5.6219,-5.6219,-5.6219,-5.6219,-5.6219,-5.6219,-5.6219,-5.6219,-5.7148,-5.7901,-5.7901,-5.8805,-5.9483,-5.9483,-5.9483,-5.9483,-5.9483,-5.9328,-5.9095,-5.894,-5.9384,-5.939,-5.8778,-5.9698,-5.9837,-5.8896,-5.9113,-5.9481,-5.9786,-6.0051,-6.0171,-6.0171,-6.0171,-6.0171,-6.0171,-5.9907,-5.9786,-5.9786,-5.9257,-5.8704,-5.8199,-5.7935,-5.7502,-5.7021,-5.7021,-5.7021,-5.7021,-5.7021,-5.7021,-5.7021,-5.7021,-5.7021,-5.7021,-5.7021,-5.7021,-5.7021,-5.7021,-5.7021,-5.7021,-5.7021,-5.7021,-5.7021,-5.7021,-5.7021,-5.7021,-5.7021,-5.7021,-5.6758,-5.5852,-5.4265,-5.2431,-5.0674,-4.8911,-4.7641,-4.7661,-4.7554,-4.7554,-4.7554,-4.7554,-4.7314,-4.6464,-4.6308,-4.6308,-4.6308,-4.6308,-4.6308,-4.6308,-4.6308,-4.6308,-4.6308,-4.6308,-4.6308,-4.6308,-4.6308,-4.6308,-4.6308,-4.7141,-4.7228,-4.6308,-4.7986,-4.8911,-4.8997,-4.9828,-5.1179,-5.2928,-5.2928,-5.3423,-5.6219,-5.6219,-5.6219,-5.6219,-5.6219,-5.6219,-5.6219,-5.6219,-5.6219,-5.6219,-5.6219,-5.6219,-5.6219,-5.7148,-5.7901,-5.7901,-5.8805,-5.9483,-5.9483,-5.9483,-5.9508,-5.9405,-5.9198,-5.899,-5.8801,-5.9454,-5.9508,-5.8774,-6.0,-6.0367,-5.9437,-5.9495,-5.9738,-6.0171,-6.0171,-6.0171,-6.0171,-6.0171,-6.0171,-6.0171,-6.0171,-6.0171,-6.0171,-5.9738,-5.9209,-5.8584,-5.8151,-5.7622,-5.7021,-5.7021,-5.7021,-5.7021,-5.7021,-5.7021,-5.7021,-5.7021,-5.7021,-5.7021,-5.7021,-5.7021,-5.7021,-5.7021,-5.7021,-5.7021,-5.7021,-5.7021,-5.7021,-5.7021,-5.7021,-5.6941,-5.6518,-5.6438,-5.5852,-5.367,-5.2077,-5.059,-4.8826,-4.8397,-4.7986,-4.6551,-4.6308,-4.6308,-4.6308,-4.6308,-4.6308,-4.6308,-4.6308,-4.6308,-4.6308,-4.6308,-4.6308,-4.6308,-4.6308,-4.6308,-4.6308,-4.6308,-4.6308,-4.6308,-4.6308,-4.6308,-4.6308,-4.6308,-4.6308,-4.6308,-4.6308,-4.6967,-4.8397,-4.8397,-4.9338,-5.1095,-5.1095,-5.1347,-5.6219,-5.6219,-5.6219,-5.6219,-5.6219,-5.6219,-5.6219,-5.6219,-5.6219,-5.6219,-5.6219,-5.6219,-5.6219,-5.7148,-5.7901,-5.7901,-5.8805,-5.9483,-5.9483,-5.9483,-5.9328,-5.9043,-5.9251,-5.9139,-5.8472,-5.965,-6.0249,-5.9844,-6.0428,-6.0577,-6.0111,-6.0159,-6.0123,-6.0171,-6.0171,-6.0171,-6.0171,-6.0171,-6.0171,-6.0171,-6.0171,-6.0171,-6.0171,-6.0123,-5.9546,-5.8608,-5.8536,-5.7959,-5.7021,-5.7021,-5.7021,-5.7021,-5.7021,-5.7021,-5.7021,-5.7021,-5.7021,-5.7021,-5.7021,-5.7021,-5.7021,-5.7021,-5.7021,-5.7021,-5.7021,-5.7021,-5.7021,-5.7021,-5.7021,-5.6598,-5.4998,-5.4568,-5.367,-5.0336,-4.9318,-4.874,-4.6967,-4.6551,-4.6464,-4.6308,-4.6308,-4.6308,-4.6308,-4.6308,-4.6308,-4.6308,-4.6308,-4.6308,-4.6308,-4.6308,-4.6308,-4.6308,-4.6308,-4.6308,-4.6308,-4.6308,-4.6308,-4.6308,-4.6308,-4.6308,-4.6308,-4.6308,-4.6308,-4.6308,-4.6308,-4.6396,-4.6551,-4.6551,-4.7488,-4.9253,-4.9253,-5.0167,-5.6219,-5.6219,-5.6219,-5.6219,-5.6219,-5.6219,-5.6219,-5.6219,-5.6219,-5.6219,-5.6219,-5.6219,-5.6219,-5.7148,-5.7901,-5.7901,-5.8805,-5.9483,-5.9483,-5.9483,-5.9405,-5.9251,-5.9198,-5.9189,-5.9207,-5.9724,-6.0252,-6.0452,-6.0469,-6.0339,-6.0171,-6.0171,-6.0171,-6.0171,-6.0171,-6.0171,-6.0171,-6.0171,-6.0171,-6.0171,-6.0171,-6.0171,-6.0171,-6.0171,-5.9594,-5.8608,-5.8608,-5.8007,-5.7021,-5.7021,-5.7021,-5.7021,-5.7021,-5.7021,-5.7021,-5.7021,-5.7021,-5.7021,-5.7021,-5.7021,-5.7021,-5.7021,-5.7021,-5.7021,-5.7021,-5.7021,-5.7021,-5.7021,-5.7021,-5.6861,-5.6094,-5.4347,-5.2077,-4.9573,-4.8159,-4.7141,-4.6483,-4.6308,-4.6308,-4.6308,-4.6308,-4.6308,-4.6308,-4.6308,-4.6308,-4.6308,-4.6308,-4.6308,-4.6308,-4.6308,-4.6308,-4.6308,-4.6308,-4.6308,-4.6308,-4.6308,-4.6308,-4.6308,-4.6308,-4.6308,-4.6308,-4.6308,-4.6308,-4.6308,-4.6308,-4.6308,-4.6308,-4.6308,-4.6638,-4.7401,-4.7401,-4.7727,-5.6219,-5.6219,-5.6219,-5.6219,-5.6219,-5.6219,-5.6219,-5.6219,-5.6219,-5.6219,-5.6219,-5.6219,-5.6219,-5.6997,-5.77,-5.7876,-5.8679,-5.9332,-5.9483,-5.9483,-5.9508,-5.9353,-5.9198,-5.916,-5.9508,-5.9877,-6.0367,-6.0768,-6.0507,-6.0339,-6.0171,-6.0171,-6.0171,-6.0171,-6.0171,-6.0171,-6.0171,-6.0171,-6.0171,-6.0171,-6.0171,-6.0171,-6.0171,-6.0171,-5.9594,-5.8608,-5.8608,-5.8007,-5.7021,-5.7021,-5.7021,-5.7021,-5.7021,-5.7021,-5.7021,-5.7021,-5.7021,-5.7021,-5.7021,-5.7021,-5.7021,-5.7021,-5.7021,-5.7021,-5.7021,-5.7021,-5.7021,-5.7021,-5.6254,-5.5426,-5.5426,-5.2763,-4.9743,-4.8482,-4.7228,-4.6308,-4.6308,-4.6308,-4.6308,-4.6308,-4.6308,-4.6308,-4.6308,-4.6308,-4.6308,-4.6308,-4.6308,-4.6308,-4.6308,-4.6308,-4.6308,-4.6308,-4.6308,-4.6308,-4.6308,-4.6308,-4.6308,-4.6308,-4.6308,-4.6308,-4.6308,-4.6308,-4.6308,-4.6308,-4.6308,-4.6308,-4.6308,-4.6308,-4.6308,-4.6308,-4.6308,-4.6308,-5.6219,-5.6219,-5.6219,-5.6219,-5.6219,-5.6219,-5.6219,-5.6219,-5.6219,-5.6219,-5.6219,-5.6219,-5.6219,-5.6671,-5.7223,-5.7801,-5.8353,-5.8905,-5.9433,-5.9483,-5.9328,-5.8965,-5.9276,-5.9388,-5.9195,-6.0184,-6.0817,-6.0841,-6.0841,-6.059,-6.0255,-6.0171,-6.0171,-6.0171,-6.0171,-6.0171,-6.0171,-6.0171,-6.0171,-6.0171,-6.0171,-6.0171,-6.0171,-6.0171,-5.9594,-5.8608,-5.8608,-5.8007,-5.7021,-5.7021,-5.7021,-5.7021,-5.7021,-5.7021,-5.7021,-5.7021,-5.7021,-5.7021,-5.7021,-5.7021,-5.7021,-5.7021,-5.7021,-5.7021,-5.7021,-5.7021,-5.7021,-5.7021,-5.4429,-5.1765,-5.1765,-4.9082,-4.6396,-4.6308,-4.6308,-4.6308,-4.6308,-4.6308,-4.6308,-4.6308,-4.6308,-4.6308,-4.6308,-4.6308,-4.6308,-4.6308,-4.6308,-4.6308,-4.6308,-4.6308,-4.6308,-4.6308,-4.6308,-4.6308,-4.6308,-4.6308,-4.6308,-4.6308,-4.6308,-4.6308,-4.6308,-4.6308,-4.6308,-4.6308,-4.6308,-4.6308,-4.6308,-4.6308,-4.6308,-4.6308,-4.6308,-4.6308,-5.6219,-5.6219,-5.6219,-5.6219,-5.6219,-5.6219,-5.6219,-5.6219,-5.6219,-5.6219,-5.6219,-5.6219,-5.6219,-5.6671,-5.7223,-5.7801,-5.8353,-5.8905,-5.9433,-5.9483,-5.9328,-5.8965,-5.8817,-5.8778,-5.8781,-5.9481,-6.0036,-6.0399,-6.0423,-6.0339,-6.0171,-6.0171,-6.0171,-6.0171,-6.0171,-6.0171,-6.0171,-6.0171,-6.0171,-6.0171,-6.0171,-6.0171,-6.0171,-6.0171,-5.9594,-5.8608,-5.8608,-5.8007,-5.7021,-5.7021,-5.7021,-5.7021,-5.7021,-5.7021,-5.7021,-5.7021,-5.7021,-5.7021,-5.7021,-5.7021,-5.7021,-5.7021,-5.7021,-5.7021,-5.7021,-5.7021,-5.7021,-5.7021,-5.5345,-5.3176,-5.2015,-4.9913,-4.7814,-4.6551,-4.6308,-4.6308,-4.6308,-4.6308,-4.6308,-4.6308,-4.6308,-4.6308,-4.6308,-4.6308,-4.6308,-4.6308,-4.6308,-4.6308,-4.6308,-4.6308,-4.6308,-4.6308,-4.6308,-4.6308,-4.6308,-4.6308,-4.6308,-4.6308,-4.6308,-4.6308,-4.6308,-4.6308,-4.6308,-4.6308,-4.6308,-4.6308,-4.6308,-4.6308,-4.6308,-4.6308,-4.6308,-4.6308,-5.6219,-5.6219,-5.6219,-5.6219,-5.6219,-5.6219,-5.6219,-5.6219,-5.6219,-5.6219,-5.6219,-5.6219,-5.6219,-5.6495,-5.6972,-5.7775,-5.8177,-5.8654,-5.9382,-5.9483,-5.9328,-5.8965,-5.857,-5.8491,-5.8781,-5.9147,-5.9594,-6.0123,-6.0171,-6.0171,-6.0171,-6.0171,-6.0171,-6.0171,-6.0171,-6.0171,-6.0171,-6.0171,-6.0171,-6.0171,-6.0171,-6.0171,-6.0171,-5.9979,-5.9402,-5.8584,-5.8392,-5.7814,0.0,-5.7021,-5.7021,-5.7021,-5.7021,-5.7021,-5.7021,-5.7021,-5.7021,-5.7021,-5.7021,-5.7021,-5.7021,-5.7021,-5.7021,-5.7021,-5.7021,-5.7021,-5.7021,-5.7021,-5.5264,-5.3093,-5.2015,-5.0336,-4.874,-4.7554,-4.7314,-4.7314,-4.7314,-4.6813,-4.6308,-4.6308,-4.6308,-4.6308,-4.6308,-4.6308,-4.6308,-4.6308,-4.6308,-4.6308,-4.6308,-4.6308,-4.6308,-4.6308,-4.6308,-4.6308,-4.6308,-4.6308,-4.6308,-4.6308,-4.6308,-4.6308,-4.6308,-4.6308,-4.6308,-4.6308,-4.6308,-4.6308,-4.6308,-4.6308,-4.6308,-4.6308,-4.6308,-4.6308,0.0,-5.6219,-5.6219,-5.6219,-5.6219,-5.6219,-5.6219,-5.6219,0.0,-5.6219,-5.6219,-5.6219,-5.6219,-5.6219,-5.657,-5.77,-5.7901,-5.8278,-5.9332,-5.9508,-5.9328,-5.894,-5.8545,-5.8604,-5.9187,-5.9288,-5.957,-6.0123,-6.0171,-6.0171,-6.0171,-6.0171,-6.0171,-6.0171,-6.0171,-6.0171,-6.0171,-6.0171,-6.0171,-6.0171,-6.0171,-6.0171,-6.0147,-5.9618,-5.9089,-5.856,-5.8031,-5.7502,-5.7021,-5.7021,-5.7021,-5.7021,-5.7021,-5.7021,-5.7021,-5.7021,-5.7021,-5.7021,-5.7021,-5.7021,-5.7021,-5.7021,-5.7021,-5.7021,-5.7021,-5.7021,-5.7021,-5.7021,-5.451,-5.1849,-5.1849,-5.059,-4.9168,-4.8997,-4.8997,-4.8997,-4.8826,-4.7488,-4.6308,-4.6308,-4.6308,-4.6308,-4.6308,-4.6308,-4.6308,-4.6308,-4.6308,-4.6308,-4.6308,-4.6308,-4.6308,-4.6308,-4.6308,-4.6308,-4.6308,-4.6308,-4.6308,-4.6308,-4.6308,-4.6308,-4.6308,-4.6308,-4.6308,-4.6308,-4.6308,-4.6308,-4.6308,-4.6308,-4.6308,-4.6308,-4.6308,-4.6308,-5.6219,0.0,-5.6219,-5.6219,-5.6219,-5.6219,0.0,-5.6219,-5.6219,-5.6219,-5.6219,-5.6219,-5.6219,-5.6219,-5.657,-5.77,-5.7901,-5.8278,-5.9332,-5.9276,-5.9043,-5.8862,-5.8227,-5.8111,-5.9139,-5.895,-5.9161,-6.0099,-6.0171,-6.0171,-6.0171,-6.0171,-6.0171,-6.0171,-6.0171,-6.0171,-6.0171,-6.0171,-6.0171,-6.0171,-6.0171,-6.0171,-6.0147,-5.9618,-5.9089,-5.856,-5.8031,-5.7502,-5.7021,-5.7021,-5.7021,-5.7021,-5.7021,-5.7021,-5.7021,-5.7021,-5.7021,-5.7021,-5.7021,-5.7021,-5.7021,-5.7021,-5.7021,-5.7021,-5.7021,-5.7021,-5.7021,-5.7021,-5.5426,-5.367,-5.367,-5.2409,-5.0758,-4.9338,-4.8997,-4.8654,-4.7228,-4.6638,-4.6308,-4.6308,-4.6308,-4.6308,-4.6308,-4.6308,-4.6308,-4.6308,-4.6308,-4.6308,-4.6308,-4.6308,-4.6308,-4.6308,-4.6308,-4.6308,-4.6308,-4.6308,-4.6308,-4.6308,-4.6308,-4.6308,-4.6308,-4.6308,-4.6308,-4.6308,-4.6308,-4.6308,-4.6308,-4.6308,-4.6308,-4.6308,-4.6308,-4.6308,-5.6219,-5.6219,-5.6219,-5.6219,-5.6219,-5.6219,-5.6219,-5.6219,-5.6219,-5.6219,-5.6219,-5.6219,-5.6219,-5.642,-5.6872,-5.775,-5.8102,-5.8554,-5.9382,-5.9173,-5.8809,-5.8653,-5.8025,-5.7989,-5.8814,-5.8747,-5.9041,-6.0099,-6.0171,-6.0171,-6.0171,-6.0171,-6.0171,-6.0171,-6.0171,-6.0171,-6.0171,-6.0171,-6.0171,-6.0171,-6.0171,-6.0051,-5.9786,-5.9257,-5.8728,-5.8199,-5.767,-5.7285,-5.7021,-5.7021,-5.7021,-5.7021,-5.7021,-5.7021,-5.7021,-5.7021,-5.7021,-5.7021,-5.7021,-5.7021,-5.7021,-5.7021,-5.7021,-5.7021,-5.7021,-5.7021,-5.7021,-5.7021,-5.5668,-5.4324,-5.4324,-5.3587,-5.2409,-5.0674,-5.0252,-4.9743,-4.79,-4.69,-4.6308,-4.6308,-4.6308,-4.6308,-4.6308,-4.6308,-4.6308,-4.6308,-4.6308,-4.6308,-4.6308,-4.6308,-4.6308,-4.6308,-4.6308,-4.6308,-4.6308,-4.6308,-4.6308,-4.6308,-4.6308,-4.6308,-4.6308,-4.6308,-4.6308,-4.6308,-4.6308,-4.6308,-4.6308,-4.6308,-4.6308,-4.6308,-4.6308,-4.6308,-5.6219,-5.6219,-5.6219,-5.6219,-5.6219,-5.6219,-5.6219,-5.6219,-5.6219,-5.6219,-5.6219,-5.6219,-5.6219,-5.6671,-5.7223,-5.7801,-5.8428,-5.8981,-5.9355,-5.9198,-5.8809,-5.8389,-5.7971,-5.7989,-5.8651,-5.869,-5.9041,-6.0099,-6.0171,-6.0171,-6.0171,-6.0171,-6.0171,-6.0171,-6.0171,-6.0171,-6.0171,-6.0171,-6.0171,-6.0171,-6.0171,-5.9907,-5.9378,-5.8848,-5.8319,-5.779,-5.7237,0.0,-5.7021,-5.7021,-5.7021,-5.7021,-5.7021,-5.7021,-5.7021,-5.7021,-5.7021,-5.7021,-5.7021,-5.7021,-5.7021,-5.7021,-5.7021,-5.7021,-5.7021,-5.7021,-5.7021,-5.7021,-5.5933,-5.4673,-5.4673,-5.4673,-5.4161,-5.2182,-5.1682,-5.1095,-4.9082,-4.7401,-4.6308,-4.6308,-4.6308,-4.6308,-4.6308,-4.6308,-4.6308,-4.6308,-4.6308,-4.6308,-4.6308,-4.6308,-4.6308,-4.6308,-4.6308,-4.6308,-4.6308,-4.6308,-4.6308,-4.6308,-4.6308,-4.6308,-4.6308,-4.6308,-4.6308,-4.6308,-4.6308,-4.6308,-4.6308,-4.6308,-4.6308,-4.6308,-4.6308,-4.6308,-5.6219,-5.6219,-5.6219,-5.6219,-5.6219,-5.6219,-5.6219,-5.6219,-5.6219,-5.6219,-5.6219,-5.6219,-5.6219,-5.6671,-5.7223,-5.7801,-5.873,-5.933,-5.9018,-5.9251,-5.912,-5.8389,-5.8232,-5.8411,-5.9058,-5.8829,-5.9041,-6.0099,-6.0171,-6.0171,-6.0171,-6.0171,-6.0171,-6.0171,-6.0171,-6.0171,-6.0171,-6.0171,-6.0171,-6.0171,-6.0171,-5.9907,-5.9378,-5.8848,-5.8319,-5.779,0.0,-5.7021,-5.7021,-5.7021,-5.7021,-5.7021,-5.7021,-5.7021,-5.7021,-5.7021,-5.7021,-5.7021,-5.7021,-5.7021,-5.7021,-5.7021,-5.7021,-5.7021,-5.7021,-5.7021,-5.7021,-5.7021,-5.6758,-5.6598,-5.6598,-5.6598,-5.5772,-5.2514,-5.1682,-5.0758,-4.7488,-4.6464,-4.6308,-4.6308,-4.6308,-4.6308,-4.6308,-4.6308,-4.6308,-4.6308,-4.6308,-4.6308,-4.6308,-4.6308,-4.6308,-4.6308,-4.6308,-4.6308,-4.6308,-4.6308,-4.6308,-4.6308,-4.6308,-4.6308,-4.6308,-4.6308,-4.6308,-4.6308,-4.6308,-4.6308,-4.6308,-4.6308,-4.6308,-4.6308,-4.6308,-4.6308,-5.6219,-5.6219,-5.6219,-5.6219,-5.6219,-5.6219,-5.6219,-5.6219,-5.6219,-5.6219,-5.6219,-5.6219,-5.6219,-5.6922,-5.77,-5.8324,-5.8873,-5.9043,-5.8653,-5.8756,-5.8599,-5.7971,-5.7892,-5.8051,-5.8403,-5.8521,-5.8921,-5.969,-6.0027,-6.0171,-6.0171,-6.0171,-6.0171,-6.0171,-5.9907,-5.9738,-5.9738,-5.9474,-5.9474,-5.9738,-5.9738,-5.9329,-5.8536,-5.8271,-5.7886,-5.7357,0.0,-5.7021,-5.7021,-5.7021,-5.7021,-5.7021,-5.7021,-5.7021,-5.7021,-5.7021,-5.7021,-5.7021,-5.7021,-5.7021,-5.7021,-5.7021,-5.7021,-5.7021,-5.7021,-5.7021,-5.7021,-5.7021,-5.7021,-5.7021,-5.7021,-5.6254,-5.4917,-5.2348,-5.0927,-4.9509,-4.69,-4.6308,-4.6308,-4.6308,-4.6308,-4.6308,-4.6308,-4.6308,-4.6308,-4.6308,-4.6308,-4.6308,-4.6308,-4.6308,-4.6308,-4.6308,-4.6308,-4.6308,-4.6308,-4.6308,-4.6308,-4.6308,-4.6308,-4.6308,-4.6308,-4.6308,-4.6308,-4.6308,-4.6308,-4.6308,-4.6308,-4.6308,-4.6308,-4.6308,-4.6308,-4.6308,-5.6219,-5.6219,-5.6219,-5.6219,-5.6219,-5.6219,-5.6219,-5.6219,-5.6219,-5.6219,-5.6219,-5.6219,-5.6219,-5.7048,-5.8025,-5.8766,-5.8809,-5.8575,-5.8207,-5.8232,-5.805,-5.7497,-5.7576,-5.7612,-5.7766,-5.8175,-5.8632,-5.9161,-5.957,-5.981,-5.981,-5.981,-5.981,-5.981,-5.9402,-5.9209,-5.9209,-5.88,-5.88,-5.9209,-5.9209,-5.8704,-5.7814,-5.7814,-5.7526,-5.7021,-5.7021,-5.7021,-5.7021,-5.7021,-5.7021,-5.7021,-5.7021,-5.7021,-5.7021,-5.7021,-5.7021,-5.7021,-5.7021,-5.7021,-5.7021,-5.7021,-5.7021,-5.7021,-5.7021,-5.7021,-5.7021,-5.7021,-5.7021,-5.6941,-5.6518,-5.5345,-5.3752,-5.1598,-4.9998,-4.8482,-4.6726,-4.6308,-4.6308,-4.6308,-4.6308,-4.6308,-4.6308,-4.6308,-4.6308,-4.6308,-4.6308,-4.6308,-4.6308,-4.6308,-4.6308,-4.6308,-4.6308,-4.6308,-4.6308,-4.6308,-4.6308,-4.6308,-4.6308,-4.6308,-4.6308,-4.6308,-4.6308,-4.6308,-4.6308,-4.6308,-4.6308,-4.6308,-4.6308,-4.6308,-4.6308,-4.6308,-5.6219,-5.6219,-5.6219,-5.6219,-5.6219,-5.6219,-5.6219,-5.6219,-5.6219,-5.6219,-5.6219,-5.6219,-5.6219,-5.675,-5.762,-5.8688,-5.8599,-5.8207,-5.7734,-5.805,-5.7971,-5.71,-5.7418,-5.7612,-5.7766,-5.7838,-5.8079,-5.8608,-5.868,-5.8704,-5.8704,-5.8704,-5.8704,-5.8704,-5.868,-5.8656,-5.8656,-5.8608,-5.8608,-5.8656,-5.8656,-5.8367,-5.7814,-5.7814,-5.7526,-5.7021,-5.7021,-5.7021,-5.7021,-5.7021,-5.7021,-5.7021,-5.7021,-5.7021,-5.7021,-5.7021,-5.7021,-5.7021,-5.7021,-5.7021,-5.7021,-5.7021,-5.7021,-5.7021,-5.7021,-5.7021,-5.7021,-5.7021,-5.7021,-5.6598,-5.4917,-5.4406,-5.3423,-4.9998,-4.9082,-4.8482,-4.6726,-4.6308,-4.6308,-4.6308,-4.6308,-4.6308,-4.6308,-4.6308,-4.6308,-4.6308,-4.6308,-4.6308,-4.6308,-4.6308,-4.6308,-4.6308,-4.6308,-4.6308,-4.6308,-4.6308,-4.6308,-4.6308,-4.6308,-4.6308,-4.6308,-4.6308,-4.6308,-4.6308,-4.6308,-4.6308,-4.6308,-4.6308,-4.6308,-4.6308,-4.6308,-4.6308,-5.6219,-5.6219,-5.6219,-5.6219,-5.6219,-5.6219,-5.6219,-5.6219,-5.6219,-5.6219,-5.6219,-5.642,-5.7123,-5.7224,-5.7467,-5.8426,-5.8129,-5.7734,-5.7259,-5.7418,-5.7339,-5.7021,-5.71,-5.7252,-5.7309,-5.7622,-5.7886,-5.8103,-5.8416,-5.8608,-5.8608,-5.8608,-5.8608,-5.8608,-5.8271,-5.8103,-5.8103,-5.779,-5.7622,-5.7622,-5.7959,-5.7838,-5.7309,-5.7309,-5.7213,-5.7021,-5.7021,-5.7021,-5.7021,-5.7021,-5.7021,-5.7021,-5.7021,-5.7021,-5.7021,-5.7021,-5.7021,-5.7021,-5.7021,-5.7021,-5.7021,-5.7021,-5.7021,-5.7021,-5.7021,-5.7021,-5.7021,-5.7021,-5.7021,-5.6861,-5.6174,-5.4347,-5.2348,-5.1011,-4.8997,-4.7141,-4.6464,-4.6308,-4.6308,-4.6308,-4.6308,-4.6308,-4.6308,-4.6308,-4.6308,-4.6308,-4.6308,-4.6308,-4.6308,-4.6308,-4.6308,-4.6308,-4.6308,-4.6308,-4.6308,-4.6308,-4.6308,-4.6308,-4.6308,-4.6308,-4.6308,-4.6308,-4.6308,-4.6308,-4.6308,-4.6308,-4.6308,-4.6308,-4.6308,-4.6308,-4.6308,-4.6308,-5.6219,-5.6219,-5.6219,-5.6219,-5.6219,-5.6219,-5.6219,-5.6219,-5.6219,-5.6219,-5.6219,-5.6472,-5.7525,-5.7348,-5.7314,-5.8192,-5.7813,-5.7339,-5.7021,-5.7021,-5.7021,-5.7021,-5.7021,-5.7021,-5.7021,-5.7357,-5.755,-5.755,-5.7886,-5.8103,-5.8103,-5.8103,-5.8103,-5.8103,-5.7742,-5.755,-5.755,-5.7189,-5.7021,-5.7021,-5.7381,-5.7381,-5.7021,-5.7021,-5.7021,-5.7021,-5.7021,-5.7021,-5.7021,-5.7021,-5.7021,-5.7021,-5.7021,-5.7021,-5.7021,-5.7021,-5.7021,-5.7021,-5.7021,-5.7021,-5.7021,-5.7021,-5.7021,-5.7021,-5.7021,-5.7021,-5.7021,-5.7021,-5.7021,-5.7021,-5.7021,-5.4754,-5.2265,-5.1095,-4.8997,-4.6987,-4.6376,-4.6308,-4.6308,-4.6308,-4.6308,-4.6308,-4.6308,-4.6308,-4.6308,-4.6308,-4.6308,-4.6308,-4.6308,-4.6308,-4.6308,-4.6308,-4.6308,-4.6308,-4.6308,-4.6308,-4.6308,-4.6308,-4.6308,-4.6308,-4.6308,-4.6308,-4.6308,-4.6308,-4.6308,-4.6308,-4.6308,-4.6308,-4.6308,-4.6308,-4.6308,-4.6308,-5.6219,-5.6219,-5.6219,-5.6219,-5.6219,-5.6219,-5.6219,-5.6219,-5.6219,-5.6219,-5.6219,-5.6398,-5.7124,-5.6943,-5.6931,-5.8114,-5.7576,-5.7021,-5.7021,-5.7021,-5.7021,-5.7021,-5.7021,-5.7021,-5.7021,-5.7021,-5.7021,-5.7021,-5.7021,-5.7021,-5.7021,-5.7021,-5.7021,-5.7021,-5.7021,-5.7021,-5.7021,-5.7021,-5.7021,-5.7021,-5.7021,-5.7021,-5.7021,-5.7021,-5.7021,-5.7021,-5.7021,-5.7021,-5.7021,-5.7021,-5.7021,-5.7021,-5.7021,-5.7021,-5.7021,-5.7021,-5.7021,-5.7021,-5.7021,-5.7021,-5.7021,-5.7021,-5.7021,-5.7021,-5.7021,-5.7021,-5.7021,-5.7021,-5.7021,-5.7021,-5.7021,-5.5668,-5.3423,-4.9913,-4.8997,-4.8482,-4.6726,-4.6308,-4.6308,-4.6308,-4.6308,-4.6308,-4.6308,-4.6308,-4.6308,-4.6308,-4.6308,-4.6308,-4.6308,-4.6308,-4.6308,-4.6308,-4.6308,-4.6308,-4.6308,-4.6308,-4.6308,-4.6308,-4.6308,-4.6308,-4.6308,-4.6308,-4.6308,-4.6308,-4.6308,-4.6308,-4.6308,-4.6308,-4.6308,-4.6308,-4.6308,-4.6308,-5.6219,-5.6219,-5.6219,-5.6219,-5.6219,-5.6219,-5.6219,-5.6219,-5.6146,-5.5852,-5.5779,-5.5955,-5.667,-5.6486,-5.6545,-5.7643,-5.7339,-5.7021,-5.7021,-5.7021,-5.7021,-5.7021,-5.7021,-5.7021,-5.7021,-5.7021,-5.7021,-5.7021,-5.7021,-5.7021,-5.7021,-5.7021,-5.7021,-5.7021,-5.7021,-5.7021,-5.7021,-5.7021,-5.7021,-5.7021,-5.7021,-5.7021,-5.7021,-5.7021,-5.7021,-5.7021,-5.7021,-5.7021,-5.7021,-5.7021,-5.7021,-5.7021,-5.7021,-5.7021,-5.7021,-5.7021,-5.7021,-5.7021,-5.7021,-5.7021,-5.7021,-5.7021,-5.7021,-5.7021,-5.7021,-5.7021,-5.7021,-5.7021,-5.7021,-5.6678,-5.5426,-5.4673,-5.3752,-5.1409,-4.8997,-4.6967,-4.6376,-4.6308,-4.6308,-4.6308,-4.6308,-4.6308,-4.6308,-4.6308,-4.6308,-4.6308,-4.6308,-4.6308,-4.6308,-4.6308,-4.6308,-4.6308,-4.6308,-4.6308,-4.6308,-4.6308,-4.6308,-4.6308,-4.6308,-4.6308,-4.6308,-4.6308,-4.6308,-4.6308,-4.6308,-4.6308,-4.6308,-4.6308,-4.6308,-4.6308,-4.6308,-4.6308,-5.6219,-5.6219,-5.6219,-5.6219,-5.6219,-5.6219,-5.6219,-5.6219,-5.6072,-5.5485,-5.5485,-5.5732,-5.629,-5.6204,-5.6314,-5.7461,-5.7259,-5.7021,-5.7021,-5.7021,-5.7021,-5.7021,-5.7021,-5.7021,-5.7021,-5.7021,-5.7021,-5.7021,-5.7021,-5.7021,-5.7021,-5.7021,-5.7021,-5.7021,-5.7021,-5.7021,-5.7021,-5.7021,-5.7021,-5.7021,-5.7021,-5.7021,-5.7021,-5.7021,-5.7021,-5.7021,-5.7021,-5.7021,-5.7021,-5.7021,-5.7021,-5.7021,-5.7021,-5.7021,-5.7021,-5.7021,-5.7021,-5.7021,-5.7021,-5.7021,-5.7021,-5.7021,-5.7021,-5.7021,-5.7021,-5.7021,-5.7021,-5.7021,-5.7021,-5.6598,-5.4754,-5.3752,-5.2846,-5.1095,-4.8997,-4.7141,-4.6483,-4.6308,-4.6308,-4.6308,-4.6308,-4.6308,-4.6308,-4.6308,-4.6308,-4.6308,-4.6308,-4.6308,-4.6308,-4.6308,-4.6308,-4.6308,-4.6308,-4.6308,-4.6308,-4.6308,-4.6308,-4.6308,-4.6308,-4.6308,-4.6308,-4.6308,-4.6308,-4.6308,-4.6308,-4.6308,-4.6308,-4.6308,-4.6308,-4.6308,-4.6308,-4.6308,-5.6219,-5.6219,-5.6219,-5.6219,-5.6219,-5.6219,-5.6219,-5.6146,-5.5926,-5.5189,-5.5263,-5.5584,-5.5985,-5.5974,-5.6314,-5.7382,-5.7259,-5.7021,-5.7021,-5.7021,-5.7021,-5.7021,-5.7021,-5.7021,-5.7021,-5.7021,-5.7021,-5.7021,-5.7021,-5.7021,-5.7021,-5.7021,-5.7021,-5.7021,-5.7021,-5.7021,-5.7021,-5.7021,-5.7021,-5.7021,-5.7021,-5.7021,-5.7021,-5.7021,-5.7021,-5.7021,-5.7021,-5.7021,-5.7021,-5.7021,-5.7021,-5.7021,-5.7021,-5.7021,-5.7021,-5.7021,-5.7021,-5.7021,-5.7021,-5.7021,-5.7021,-5.7021,-5.7021,-5.7021,-5.7021,-5.7021,-5.7021,-5.7021,-5.7021,-5.6518,-5.4592,-5.2928,-5.1179,-4.9253,-4.874,-4.8311,-4.6638,-4.6308,-4.6308,-4.6308,-4.6308,-4.6308,-4.6308,-4.6308,-4.6308,-4.6308,-4.6308,-4.6308,-4.6308,-4.6308,-4.6308,-4.6308,-4.6308,-4.6308,-4.6308,-4.6308,-4.6308,-4.6308,-4.6308,-4.6308,-4.6308,-4.6308,-4.6308,-4.6308,-4.6308,-4.6308,-4.6308,-4.6308,-4.6308,-4.6308,-4.6308,-4.6308,-5.6219,-5.6219,-5.6219,-5.6219,-5.6219,-5.6219,-5.6219,-5.5999,-5.5632,-5.5115,-5.4794,-5.4812,-5.5424,-5.5564,-5.5902,-5.6932,-5.71,-5.7021,-5.7021,-5.7021,-5.7021,-5.7021,-5.7021,-5.7021,-5.7021,-5.7021,-5.7021,-5.7021,-5.7021,-5.7021,-5.7021,-5.7021,-5.7021,-5.7021,-5.7021,-5.7021,-5.7021,-5.7021,-5.7021,-5.7021,-5.7021,-5.7021,-5.7021,-5.7021,-5.7021,-5.7021,-5.7021,-5.7021,-5.7021,-5.7021,-5.7021,-5.7021,-5.7021,-5.7021,-5.7021,-5.7021,-5.7021,-5.7021,-5.7021,-5.7021,-5.7021,-5.7021,-5.7021,-5.7021,-5.7021,-5.7021,-5.7021,-5.7021,-5.7021,-5.6278,-5.3093,-5.2015,-5.0927,-4.7641,-4.69,-4.6813,-4.6376,-4.6308,-4.6308,-4.6308,-4.6308,-4.6308,-4.6308,-4.6308,-4.6308,-4.6308,-4.6308,-4.6308,-4.6308,-4.6308,-4.6308,-4.6308,-4.6308,-4.6308,-4.6308,-4.6308,-4.6308,-4.6308,-4.6308,-4.6308,-4.6308,-4.6308,-4.6308,-4.6308,-4.6308,-4.6308,-4.6308,-4.6308,-4.6308,-4.6308,-4.6308,-4.6308,-5.6219,-5.6219,-5.6219,-5.6219,-5.6219,-5.6146,-5.5999,-5.5779,-5.5411,-5.4868,-5.457,-5.4587,-5.527,-5.5385,-5.5746,-5.6852,-5.7021,-5.7021,-5.7021,-5.7021,-5.7021,-5.7021,-5.7021,-5.7021,-5.7021,-5.7021,-5.7021,-5.7021,-5.7021,-5.7021,-5.7021,-5.7021,-5.7021,-5.7021,-5.7021,-5.7021,-5.7021,-5.7021,-5.7021,-5.7021,-5.7021,-5.7021,-5.7021,-5.7021,-5.7021,-5.7021,-5.7021,-5.7021,-5.7021,-5.7021,-5.7021,-5.7021,-5.7021,-5.7021,-5.7021,-5.7021,-5.7021,-5.7021,-5.7021,-5.7021,-5.7021,-5.7021,-5.7021,-5.7021,-5.7021,-5.7021,-5.7021,-5.7021,-5.7021,-5.6197,-5.2597,-5.1682,-5.0758,-4.7141,-4.6308,-4.6308,-4.6308,-4.6308,-4.6308,-4.6308,-4.6308,-4.6308,-4.6308,-4.6308,-4.6308,-4.6308,-4.6308,-4.6308,-4.6308,-4.6308,-4.6308,-4.6308,-4.6308,-4.6308,-4.6308,-4.6308,-4.6308,-4.6308,-4.6308,-4.6308,-4.6308,-4.6308,-4.6308,-4.6308,-4.6308,-4.6308,-4.6308,-4.6308,-4.6308,-4.6308,-4.6308,-4.6308,-5.6219,-5.6219,-5.6219,-5.6219,-5.6219,-5.6146,-5.5779,-5.5632,-5.5337,-5.4645,-5.4496,-5.4563,-5.515,-5.5337,-5.5722,-5.6732,-5.6949,-5.7021,-5.7021,-5.7021,-5.7021,-5.7021,-5.7021,-5.7021,-5.7021,-5.7021,-5.7021,-5.7021,-5.7021,-5.7021,-5.7021,-5.7021,-5.7021,-5.7021,-5.7021,-5.7021,-5.7021,-5.7021,-5.7021,-5.7021,-5.7021,-5.7021,-5.7021,-5.7021,-5.7021,-5.7021,-5.7021,-5.7021,-5.7021,-5.7021,-5.7021,-5.7021,-5.7021,-5.7021,-5.7021,-5.7021,-5.7021,-5.7021,-5.7021,-5.7021,-5.7021,-5.7021,-5.7021,-5.7021,-5.7021,-5.7021,-5.7021,-5.7021,-5.7021,-5.6197,-5.2597,-5.1682,-5.0758,-4.7141,-4.6308,-4.6308,-4.6308,-4.6308,-4.6308,-4.6308,-4.6308,-4.6308,-4.6308,-4.6308,-4.6308,-4.6308,-4.6308,-4.6308,-4.6308,-4.6308,-4.6308,-4.6308,-4.6308,-4.6308,-4.6308,-4.6308,-4.6308,-4.6308,-4.6308,-4.6308,-4.6308,-4.6308,-4.6308,-4.6308,-4.6308,-4.6308,-4.6308,-4.6308,-4.6308,-4.6308,-4.6308,-4.6308,-5.6219,-5.6219,-5.6219,-5.6219,-5.6219,-5.6219,-5.6146,-5.5558,-5.5041,-5.4967,-5.4645,-5.4442,-5.4668,-5.5097,-5.5602,-5.6227,-5.6732,-5.7021,-5.7021,-5.7021,-5.7021,-5.7021,-5.7021,-5.7021,-5.7021,-5.7021,-5.7021,-5.7021,-5.7021,-5.7021,-5.7021,-5.7021,-5.7021,-5.7021,-5.7021,-5.7021,-5.7021,-5.7021,-5.7021,-5.7021,-5.7021,-5.7021,-5.7021,-5.7021,-5.7021,-5.7021,-5.7021,-5.7021,-5.7021,-5.7021,-5.7021,-5.7021,-5.7021,-5.7021,-5.7021,-5.7021,-5.7021,-5.7021,-5.7021,-5.7021,-5.7021,-5.7021,-5.7021,-5.7021,-5.7021,-5.7021,-5.7021,-5.7021,-5.7021,-5.6197,-5.2597,-5.1682,-5.0758,-4.7141,-4.6308,-4.6308,-4.6308,-4.6308,-4.6308,-4.6308,-4.6308,-4.6308,-4.6308,-4.6308,-4.6308,-4.6308,-4.6308,-4.6308,-4.6308,-4.6308,-4.6308,-4.6308,-4.6308,-4.6308,-4.6308,-4.6308,-4.6308,-4.6308,-4.6308,-4.6308,-4.6308,-4.6308,-4.6308,-4.6308,-4.6308,-4.6308,-4.6308,-4.6308,-4.6308,-4.6308,-4.6308,-4.6308,-5.6219,-5.6219,-5.6219,-5.6219,-5.6072,-5.5779,-5.5558,-5.5263,-5.4892,-5.4421,-5.4347,-5.4417,-5.4572,-5.5049,-5.5578,-5.6131,-5.6684,-5.7021,-5.7021,-5.7021,-5.7021,-5.7021,-5.7021,-5.7021,-5.7021,-5.7021,-5.7021,-5.7021,-5.7021,-5.7021,-5.7021,-5.7021,-5.7021,-5.7021,-5.7021,-5.7021,-5.7021,-5.7021,-5.7021,-5.7021,-5.7021,-5.7021,-5.7021,-5.7021,-5.7021,-5.7021,-5.7021,-5.7021,-5.7021,-5.7021,-5.7021,-5.7021,-5.7021,-5.7021,-5.7021,-5.7021,-5.7021,-5.7021,-5.7021,-5.7021,-5.7021,-5.7021,-5.7021,-5.7021,-5.7021,-5.7021,-5.7021,-5.7021,-5.7021,-5.6438,-5.3834,-5.2431,-5.1011,-4.8397,-4.7814,-4.7814,-4.7814,-4.7054,-4.6308,-4.6308,-4.6308,-4.6308,-4.6308,-4.6308,-4.6308,-4.6308,-4.6308,-4.6308,-4.6308,-4.6308,-4.6308,-4.6308,-4.6308,-4.6308,-4.6308,-4.6308,-4.6308,-4.6308,-4.6308,-4.6308,-4.6308,-4.6308,-4.6308,-4.6308,-4.6308,-4.6308,-4.6308,-4.6308,-4.6308,-4.6308,-4.6308,-4.6308,-5.6219,-5.6219,-5.6219,-5.6219,-5.5926,-5.5558,-5.5189,-5.4967,-5.4645,-5.4047,-5.4122,-5.4318,-5.4403,-5.4952,-5.553,-5.5963,-5.6588,-5.7021,-5.7021,-5.7021,-5.7021,-5.7021,-5.7021,-5.7021,-5.7021,-5.7021,-5.7021,-5.7021,-5.7021,-5.7021,-5.7021,-5.7021,-5.7021,-5.7021,-5.7021,-5.7021,-5.7021,-5.7021,-5.7021,-5.7021,-5.7021,-5.7021,-5.7021,-5.7021,-5.7021,-5.7021,-5.7021,-5.7021,-5.7021,-5.7021,-5.7021,-5.7021,-5.7021,-5.7021,-5.7021,-5.7021,-5.7021,-5.7021,-5.7021,-5.7021,-5.7021,-5.7021,-5.7021,-5.7021,-5.7021,-5.7021,-5.7021,-5.7021,-5.7021,-5.6598,-5.4754,-5.3341,-5.1743,-4.9573,-4.8997,-4.8997,-4.8997,-4.79,-4.69,-4.6396,-4.6308,-4.6308,-4.6308,-4.6308,-4.6308,-4.6308,-4.6308,-4.6308,-4.6308,-4.6308,-4.6308,-4.6308,-4.6308,-4.6308,-4.6308,-4.6308,-4.6308,-4.6308,-4.6308,-4.6308,-4.6308,-4.6308,-4.6308,-4.6308,-4.6308,-4.6308,-4.6308,-4.6308,-4.6308,-4.6308,-4.6308,-4.6308,-5.6219,-5.6219,-5.6219,-5.6219,-5.5926,-5.5632,-5.5558,-5.5016,-5.4397,-5.4397,-5.4098,-5.3822,-5.3846,-5.4712,-5.5409,-5.5433,-5.6323,-5.7021,-5.7021,-5.7021,-5.7021,-5.7021,-5.7021,-5.7021,-5.7021,-5.7021,-5.7021,-5.7021,-5.7021,-5.7021,-5.7021,-5.7021,-5.7021,-5.7021,-5.7021,-5.7021,-5.7021,-5.7021,-5.7021,-5.7021,-5.7021,-5.7021,-5.7021,-5.7021,-5.7021,-5.7021,-5.7021,-5.7021,-5.7021,-5.7021,-5.7021,-5.7021,-5.7021,-5.7021,-5.7021,-5.7021,-5.7021,-5.7021,-5.7021,-5.7021,-5.7021,-5.7021,-5.7021,-5.7021,-5.7021,-5.7021,-5.7021,-5.7021,-5.7021,-5.6598,-5.4754,-5.4242,-5.3341,-4.9828,-4.8997,-4.8997,-4.8997,-4.8911,-4.8311,-4.6638,-4.6308,-4.6308,-4.6308,-4.6308,-4.6308,-4.6308,-4.6308,-4.6308,-4.6308,-4.6308,-4.6308,-4.6308,-4.6308,-4.6308,-4.6308,-4.6308,-4.6308,-4.6308,-4.6308,-4.6308,-4.6308,-4.6308,-4.6308,-4.6308,-4.6308,-4.6308,-4.6308,-4.6308,-4.6308,-4.6308,-4.6308,-4.6308,-5.6219,-5.6219,-5.6219,-5.6219,-5.5926,-5.5558,-5.5263,-5.4794,-5.4322,-5.4047,-5.3897,-5.3822,-5.3822,-5.4399,-5.5001,-5.5337,-5.6035,-5.6636,-5.6973,-5.7021,-5.7021,-5.7021,-5.7021,-5.7021,-5.7021,-5.7021,-5.7021,-5.7021,-5.7021,-5.7021,-5.7021,-5.7021,-5.7021,-5.7021,-5.7021,-5.7021,-5.7021,-5.7021,-5.7021,-5.7021,-5.7021,-5.7021,-5.7021,-5.7021,-5.7021,-5.7021,-5.7021,-5.7021,-5.7021,-5.7021,-5.7021,-5.7021,-5.7021,-5.7021,-5.7021,-5.7021,-5.7021,-5.7021,-5.7021,-5.7021,-5.7021,-5.7021,-5.7021,-5.7021,-5.7021,-5.7021,-5.7021,-5.7021,-5.7021,-5.6861,-5.6174,-5.516,-5.367,-5.1325,-4.9828,-4.8997,-4.8997,-4.8997,-4.8482,-4.6638,-4.6308,-4.6308,-4.6308,-4.6308,-4.6308,-4.6308,-4.6308,-4.6308,-4.6308,-4.6308,-4.6308,-4.6308,-4.6308,-4.6308,-4.6308,-4.6308,-4.6308,-4.6308,-4.6308,-4.6308,-4.6308,-4.6308,-4.6308,-4.6308,-4.6308,-4.6308,-4.6308,-4.6308,-4.6308,-4.6308,-4.6308,-4.6308,-5.6072,-5.5999,-5.5999,-5.5852,-5.546,-5.509,-5.4868,-5.4496,-5.4098,-5.3897,-5.3822,-5.3822,-5.3822,-5.4111,-5.4568,-5.5289,-5.5866,-5.6419,-5.6949,-5.7021,-5.7021,-5.7021,-5.7021,-5.7021,-5.7021,-5.7021,-5.7021,-5.7021,-5.7021,-5.7021,-5.7021,-5.7021,-5.7021,-5.7021,-5.7021,-5.7021,-5.7021,-5.7021,-5.7021,-5.7021,-5.7021,-5.7021,-5.7021,-5.7021,-5.7021,-5.7021,-5.7021,-5.7021,-5.7021,-5.7021,-5.7021,-5.7021,-5.7021,-5.7021,-5.7021,-5.7021,-5.7021,-5.7021,-5.7021,-5.7021,-5.7021,-5.7021,-5.7021,-5.7021,-5.7021,-5.7021,-5.7021,-5.7021,-5.7021,-5.7021,-5.7021,-5.5264,-5.3011,-5.1179,-4.9424,-4.8073,-4.8073,-4.8568,-4.8482,-4.6638,-4.6308,-4.6308,-4.6308,-4.6308,-4.6308,-4.6308,-4.6308,-4.6308,-4.6308,-4.6308,-4.6308,-4.6308,-4.6308,-4.6308,-4.6308,-4.6308,-4.6308,-4.6308,-4.6308,-4.6308,-4.6308,-4.6308,-4.6308,-4.6308,-4.6308,-4.6308,-4.6308,-4.6308,-4.6308,-4.6308,-4.6308,-4.6308,0.0,0.0,0.0,-5.5115,-5.4719,-5.4397,-5.4397,-5.4122,-5.3822,-5.3822,-5.3822,-5.3822,-5.3822,-5.3822,-5.4159,-5.5193,-5.5842,-5.6395,-5.6925,-5.7021,-5.7021,-5.7021,-5.7021,-5.7021,-5.7021,-5.7021,-5.7021,-5.7021,-5.7021,-5.7021,-5.7021,-5.7021,-5.7021,-5.7021,-5.7021,-5.7021,-5.7021,-5.7021,-5.7021,-5.7021,-5.7021,-5.7021,-5.7021,-5.7021,-5.7021,-5.7021,-5.7021,-5.7021,-5.7021,-5.7021,-5.7021,-5.7021,-5.7021,-5.7021,-5.7021,-5.7021,-5.7021,-5.7021,-5.7021,-5.7021,-5.7021,-5.7021,-5.7021,-5.7021,-5.7021,-5.7021,-5.7021,-5.7021,-5.7021,-5.7021,-5.6941,-5.4265,-5.1179,-4.9403,-4.7641,-4.6308,-4.6308,-4.7641,-4.8397,-4.6638,-4.6308,-4.6308,-4.6308,-4.6308,-4.6308,-4.6308,-4.6308,-4.6308,-4.6308,-4.6308,-4.6308,-4.6308,-4.6308,-4.6308,-4.6308,-4.6308,-4.6308,-4.6308,-4.6308,-4.6308,-4.6308,-4.6308,-4.6308,-4.6308,-4.6308,-4.6308,-4.6308,-4.6308,-4.6308,-4.6308,-4.6308,-4.6308,-5.5705,0.0,0.0,0.0,0.0,0.0,-5.4496,-5.4322,-5.4197,-5.3897,-5.3822,-5.3822,-5.3822,-5.3822,-5.4039,-5.4712,-5.5265,-5.5818,-5.6371,-5.678,-5.7021,-5.7021,-5.7021,-5.7021,-5.7021,-5.7021,-5.7021,-5.7021,-5.7021,-5.7021,-5.7021,-5.7021,-5.7021,-5.7021,-5.7021,-5.7021,-5.7021,-5.7021,-5.7021,-5.7021,-5.7021,-5.7021,-5.7021,-5.7021,-5.7021,-5.7021,-5.7021,-5.7021,-5.7021,-5.7021,-5.7021,-5.7021,-5.7021,-5.7021,-5.7021,-5.7021,-5.7021,-5.7021,-5.7021,-5.7021,-5.7021,-5.7021,-5.7021,-5.7021,-5.7021,-5.7021,-5.7021,-5.7021,-5.7021,-5.6678,-5.5426,-5.2409,-4.9573,-4.9168,-4.7641,-4.6308,-4.6308,-4.6726,-4.69,-4.6396,-4.6308,-4.6308,-4.6308,-4.6308,-4.6308,-4.6308,-4.6308,-4.6308,-4.6308,-4.6308,-4.6308,-4.6308,-4.6308,-4.6308,-4.6308,-4.6308,-4.6308,-4.6308,-4.6308,-4.6308,-4.6308,-4.6308,-4.6308,-4.6308,-4.6308,-4.6308,-4.6308,-4.6308,-4.6308,-4.6308,-4.6308,-4.6308,-5.5485,-5.5238,-5.5016,-5.457,0.0,0.0,-5.4197,-5.4197,-5.4098,-5.3822,-5.3822,-5.3822,-5.3822,-5.3822,-5.3918,-5.4231,-5.4904,-5.5602,-5.6155,-5.6684,-5.7021,-5.7021,-5.7021,-5.7021,-5.7021,-5.7021,-5.7021,-5.7021,-5.7021,-5.7021,-5.7021,-5.7021,-5.7021,-5.7021,-5.7021,-5.7021,-5.7021,-5.7021,-5.7021,-5.7021,-5.7021,-5.7021,-5.7021,-5.7021,-5.7021,-5.7021,-5.7021,-5.7021,-5.7021,-5.7021,-5.7021,-5.7021,-5.7021,-5.7021,-5.7021,-5.7021,-5.7021,-5.7021,-5.7021,-5.7021,-5.7021,-5.7021,-5.7021,-5.7021,-5.7021,-5.6438,-5.5852,-5.5852,-5.5852,-5.5587,-5.4592,-5.2243,-4.9913,-4.9168,-4.7641,-4.6308,-4.6308,-4.6308,-4.6308,-4.6308,-4.6308,-4.6308,-4.6308,-4.6308,-4.6308,-4.6308,-4.6308,-4.6308,-4.6308,-4.6308,-4.6308,-4.6308,-4.6308,-4.6308,-4.6308,-4.6308,-4.6308,-4.6308,-4.6308,-4.6308,-4.6308,-4.6308,-4.6308,-4.6308,-4.6308,-4.6308,-4.6308,-4.6308,-4.6308,-4.6308,-4.6308,-4.6308,-5.5041,-5.4645,-5.4322,-5.3897,-5.3822,0.0,-5.3822,-5.3822,-5.3822,-5.3822,-5.3822,-5.3822,-5.3822,-5.3822,-5.3822,-5.3822,-5.4664,-5.5506,-5.6059,-5.666,-5.7021,-5.7021,-5.7021,-5.7021,-5.7021,-5.7021,-5.7021,-5.7021,-5.7021,-5.7021,-5.7021,-5.7021,-5.7021,-5.7021,-5.7021,-5.7021,-5.7021,-5.7021,-5.7021,-5.7021,-5.7021,-5.7021,-5.7021,-5.7021,-5.7021,-5.7021,-5.7021,-5.7021,-5.7021,-5.7021,-5.7021,-5.7021,-5.7021,-5.7021,-5.7021,-5.7021,-5.7021,-5.7021,-5.7021,-5.7021,-5.7021,-5.7021,-5.7021,-5.7021,-5.7021,-5.5852,-5.4592,-5.4592,-5.451,-5.4324,-5.4324,-5.2846,-5.1011,-4.9403,-4.7641,-4.6308,-4.6308,-4.6308,-4.6308,-4.6308,-4.6308,-4.6308,-4.6308,-4.6308,-4.6308,-4.6308,-4.6308,-4.6308,-4.6308,-4.6308,-4.6308,-4.6308,-4.6308,-4.6308,-4.6308,-4.6308,-4.6308,-4.6308,-4.6308,-4.6308,-4.6308,-4.6308,-4.6308,-4.6308,-4.6308,-4.6308,-4.6308,-4.6308,-4.6308,-4.6308,-4.6308,-4.6308,-5.4719,-5.4472,-5.4322,-5.3897,-5.3822,0.0,-5.3822,-5.3822,-5.3822,-5.3822,-5.3822,-5.3822,-5.3822,-5.3822,-5.3822,-5.3822,-5.4351,-5.4952,-5.5482,-5.6395,-5.7021,-5.7021,-5.7021,-5.7021,-5.7021,-5.7021,-5.7021,-5.7021,-5.7021,-5.7021,-5.7021,-5.7021,-5.7021,-5.7021,-5.7021,-5.7021,-5.7021,-5.7021,-5.7021,-5.7021,-5.7021,-5.7021,-5.7021,-5.7021,-5.7021,-5.7021,-5.7021,-5.7021,-5.7021,-5.7021,-5.7021,-5.7021,-5.7021,-5.7021,-5.7021,-5.7021,-5.7021,-5.7021,-5.7021,-5.7021,-5.7021,-5.7021,-5.7021,-5.7021,-5.7021,-5.6758,-5.6438,-5.6438,-5.5426,-5.4324,-5.4324,-5.191,-4.9424,-4.9082,-4.7641,-4.6308,-4.6308,-4.6308,-4.6308,-4.6308,-4.6308,-4.6308,-4.6308,-4.6308,-4.6308,-4.6308,-4.6308,-4.6308,-4.6308,-4.6308,-4.6308,-4.6308,-4.6308,-4.6308,-4.6308,-4.6308,-4.6308,-4.6308,-4.6308,-4.6308,-4.6308,-4.6308,-4.6308,-4.6308,-4.6308,-4.6308,-4.6308,-4.6308,-4.6308,-4.6308,-4.6308,-4.6308,-5.4472,-5.4248,-5.4047,-5.3822,-5.3822,0.0,0.0,-5.3822,-5.3822,-5.3822,-5.3822,-5.3822,-5.3822,-5.3822,-5.3822,-5.3822,-5.4255,-5.4784,-5.5313,-5.6107,-5.6732,-5.6997,-5.7021,-5.7021,-5.7021,-5.7021,-5.7021,-5.7021,-5.7021,-5.7021,-5.7021,-5.7021,-5.7021,-5.7021,-5.7021,-5.7021,-5.7021,-5.7021,-5.7021,-5.7021,-5.7021,-5.7021,-5.7021,-5.7021,-5.7021,-5.7021,-5.7021,-5.7021,-5.7021,-5.7021,-5.7021,-5.7021,-5.7021,-5.7021,-5.7021,-5.7021,-5.7021,-5.7021,-5.7021,-5.7021,-5.7021,-5.7021,-5.7021,-5.6861,-5.5933,-5.5021,-5.451,-5.5426,-5.4998,-5.4324,-5.4324,-5.2988,-5.1157,-4.9403,-4.8997,-4.8482,-4.6726,-4.6967,-4.7401,-4.6464,-4.6308,-4.6308,-4.6308,-4.6308,-4.6308,-4.6308,-4.6308,-4.6308,-4.6308,-4.6308,-4.6308,-4.6308,-4.6308,-4.6308,-4.6308,-4.6308,-4.6308,-4.6308,-4.6308,-4.6308,-4.6308,-4.6308,-4.6308,-4.6308,-4.6308,-4.6308,-4.6308,-4.6308,-4.6308,-4.6308,-4.6308,-4.6308,-5.4322,-5.4047,-5.3822,-5.3822,-5.3822,-5.3822,0.0,0.0,0.0,-5.3822,-5.3822,-5.3822,-5.3822,-5.3822,-5.3822,-5.3822,-5.4183,-5.4688,-5.5313,-5.5794,-5.6299,-5.6949,-5.7021,-5.7021,-5.7021,-5.7021,-5.7021,-5.7021,-5.7021,-5.7021,-5.7021,-5.7021,-5.7021,-5.7021,-5.7021,-5.7021,-5.7021,-5.7021,-5.7021,-5.7021,-5.7021,-5.7021,-5.7021,-5.7021,-5.7021,-5.7021,-5.7021,-5.7021,-5.6941,-5.6598,-5.6518,-5.6518,-5.6861,-5.6782,-5.6518,-5.6518,-5.6518,-5.6518,-5.6518,-5.6678,-5.7021,-5.7021,-5.6758,-5.6174,-5.4754,-5.3341,-5.2597,-5.4324,-5.4835,-5.4754,-5.4406,-5.4324,-5.3505,-5.0252,-5.0674,-5.0843,-4.7574,-4.7986,-4.8482,-4.6638,-4.6308,-4.6308,-4.6308,-4.6308,-4.6308,-4.6308,-4.6308,-4.6308,-4.6308,-4.6308,-4.6308,-4.6308,-4.6308,-4.6308,-4.6308,-4.6308,-4.6308,-4.6308,-4.6308,-4.6308,-4.6308,-4.6308,-4.6308,-4.6308,-4.6308,-4.6308,-4.6308,-4.6308,-4.6308,-4.6308,-4.6308,-4.6308,-5.3972,-5.3822,-5.3822,-5.3822,-5.3822,-5.3822,-5.3822,0.0,-5.3822,-5.3822,0.0,-5.3822,-5.3822,0.0,0.0,-5.3822,-5.387,-5.4255,-5.5265,-5.5458,-5.5866,-5.69,-5.7021,-5.7021,-5.7021,-5.7021,-5.7021,-5.7021,-5.7021,-5.7021,-5.7021,-5.7021,-5.7021,-5.7021,-5.7021,-5.7021,-5.7021,-5.7021,-5.7021,-5.7021,-5.7021,-5.7021,-5.7021,-5.7021,-5.7021,-5.7021,-5.7021,-5.7021,-5.6861,-5.5264,-5.4592,-5.4754,-5.6358,-5.6013,-5.4592,-5.4592,-5.4592,-5.4592,-5.4592,-5.5668,-5.7021,-5.7021,-5.5933,-5.4592,-5.4324,-5.4161,-5.4406,-5.6174,-5.6678,-5.6334,-5.4754,-5.4324,-5.3834,-5.1849,-5.1514,-5.1179,-4.9168,-4.8826,-4.8482,-4.6638,-4.6308,-4.6308,-4.6308,-4.6308,-4.6308,-4.6308,-4.6308,-4.6308,-4.6308,-4.6308,-4.6308,-4.6308,-4.6308,-4.6308,-4.6308,-4.6308,-4.6308,-4.6308,-4.6308,-4.6308,-4.6308,-4.6308,-4.6308,-4.6308,-4.6308,-4.6308,-4.6308,-4.6308,-4.6308,-4.6308,-4.6308,-4.6308,-5.3822,-5.3822,-5.3822,-5.3822,-5.3822,-5.3822,-5.3822,-5.3822,-5.3822,-5.3822,0.0,0.0,0.0,0.0,0.0,0.0,-5.3822,-5.4087,-5.4832,-5.5193,-5.5794,-5.69,-5.7021,-5.7021,-5.7021,-5.7021,-5.7021,-5.7021,-5.7021,-5.7021,-5.7021,-5.7021,-5.7021,-5.7021,-5.7021,-5.7021,-5.7021,-5.7021,-5.7021,-5.7021,-5.7021,-5.7021,-5.7021,-5.7021,-5.7021,-5.7021,-5.7021,-5.6438,-5.5345,-5.4592,-5.367,-5.2846,-5.3587,-5.3423,-5.2763,-5.2763,-5.2763,-5.2763,-5.2763,-5.3258,-5.3938,-5.3938,-5.3423,-5.3011,-5.3997,-5.4324,-5.4673,-5.6518,-5.6254,-5.4998,-5.3258,-5.3587,-5.3341,-4.9488,-5.0905,-5.216,-4.8225,-4.8245,-4.8482,-4.6638,-4.6308,-4.6308,-4.6308,-4.6308,-4.6308,-4.6308,-4.6308,-4.6308,-4.6308,-4.6308,-4.6308,-4.6308,-4.6308,-4.6308,-4.6308,-4.6308,-4.6308,-4.6308,-4.6308,-4.6308,-4.6308,-4.6308,-4.6308,-4.6308,-4.6308,-4.6308,-4.6308,-4.6308,-4.6308,-4.6308,-4.6308,-4.6308,-5.3822,-5.3822,-5.3822,-5.3822,-5.3822,-5.3822,-5.3822,-5.3822,-5.3822,-5.3822,-5.3822,0.0,0.0,0.0,-5.3822,-5.3822,0.0,-5.3991,-5.4544,-5.5073,-5.5746,-5.6684,-5.6925,-5.7021,-5.7021,-5.7021,-5.7021,-5.7021,-5.7021,-5.7021,-5.7021,-5.7021,-5.7021,-5.7021,-5.7021,-5.7021,-5.7021,-5.7021,-5.7021,-5.7021,-5.7021,-5.7021,-5.7021,-5.7021,-5.7021,-5.7021,-5.7021,-5.6013,-5.4242,-5.3752,-5.2575,-5.0927,-5.0421,-5.0252,-5.0252,-5.0758,-5.0927,-5.0927,-5.0927,-5.1263,-5.1598,-5.1095,-5.0927,-5.1179,-5.2492,-5.3176,-5.3834,-5.5183,-5.4917,-5.3752,-5.1492,-5.2265,-5.2492,-4.8073,-5.04,-5.2409,-4.7986,-4.8073,-4.8482,-4.6638,-4.6308,-4.6308,-4.6308,-4.6308,-4.6308,-4.6308,-4.6308,-4.6308,-4.6308,-4.6308,-4.6308,-4.6308,-4.6308,-4.6308,-4.6308,-4.6308,-4.6308,-4.6308,-4.6308,-4.6308,-4.6308,-4.6308,-4.6308,-4.6308,-4.6308,-4.6308,-4.6308,-4.6426,-4.6465,-4.6465,-4.6348,-4.6367,-5.3822,-5.3822,-5.3822,-5.3822,-5.3822,-5.3822,-5.3822,-5.3822,-5.3822,-5.3822,-5.3822,-5.3822,-5.3822,-5.3822,-5.3822,-5.3822,-5.3822,0.0,0.0,-5.5073,-5.5602,-5.6179,-5.6708,-5.7021,-5.7021,-5.7021,-5.7021,-5.7021,-5.7021,-5.7021,-5.7021,-5.7021,-5.7021,-5.7021,-5.7021,-5.7021,-5.7021,-5.7021,-5.7021,-5.7021,-5.7021,-5.7021,-5.7021,-5.7021,-5.7021,-5.7021,-5.7021,-5.6013,-5.4161,-5.2514,-5.0758,-4.8911,-4.7141,-4.6464,-4.6726,-4.8397,-4.9082,-4.9082,-4.9082,-5.0252,-5.1431,-4.9658,-4.9082,-4.9082,-4.9168,-5.0421,-5.1765,-5.1849,-5.3011,-5.3505,-4.9998,-5.0421,-5.1263,-4.9403,-5.0421,-5.1263,-4.9338,-4.8997,-4.8482,-4.6638,-4.6308,-4.6308,-4.6308,-4.6308,-4.6308,-4.6308,-4.6308,-4.6308,-4.6308,-4.6308,-4.6308,-4.6308,-4.6308,-4.6308,-4.6308,-4.6308,-4.6308,-4.6308,-4.6308,-4.6308,-4.6308,-4.6308,-4.6308,-4.6308,-4.6308,-4.6308,-4.6308,-4.6719,-4.6914,-4.6894,-4.6484,-4.6523,0.0,0.0,-5.3822,-5.3822,-5.3822,-5.3822,-5.3822,-5.3822,-5.3822,-5.3822,-5.3822,-5.3822,-5.3822,-5.3822,-5.3822,-5.3822,-5.3822,-5.387,0.0,-5.4832,-5.5746,-5.6636,-5.69,-5.7021,-5.7021,-5.7021,-5.7021,-5.7021,-5.7021,0.0,-5.7021,-5.7021,-5.7021,-5.7021,-5.7021,-5.7021,-5.7021,-5.7021,-5.7021,-5.7021,-5.7021,-5.7021,-5.7021,-5.7021,-5.7021,-5.7021,-5.7021,-5.6013,-5.4161,-5.2431,-5.0674,-4.8826,-4.6967,-4.6308,-4.6376,-4.6967,-4.7228,-4.7228,-4.7228,-4.7641,-4.8073,-4.7401,-4.7986,-4.8997,-4.8997,-5.0252,-5.1682,-5.1682,-5.1241,-5.0505,-4.9318,-4.9403,-4.9509,-4.7641,-4.8568,-4.9403,-4.7554,-4.7228,-4.7054,-4.6376,-4.6308,-4.6308,-4.6308,-4.6308,-4.6308,-4.6308,-4.6308,-4.6308,-4.6308,-4.6308,-4.6308,-4.6308,-4.6308,-4.6308,-4.6308,-4.6308,-4.6308,-4.6308,-4.6308,-4.6308,-4.6308,-4.6308,-4.6308,-4.6308,-4.6308,-4.6445,-4.6719,-4.6855,-4.707,-4.7363,-4.7207,-4.7226,-5.3822,-5.3822,0.0,-5.3822,-5.3822,0.0,-5.3822,-5.3822,-5.3822,-5.3822,-5.3822,-5.3822,-5.3822,-5.3822,-5.3822,-5.3822,-5.3822,-5.3942,0.0,-5.4977,-5.5794,-5.69,-5.7021,-5.7021,-5.7021,-5.7021,-5.7021,-5.7021,-5.7021,-5.7021,-5.7021,-5.7021,-5.7021,-5.7021,-5.7021,-5.7021,-5.7021,-5.7021,-5.7021,-5.7021,-5.7021,-5.7021,-5.7021,-5.7021,-5.7021,-5.6941,-5.6334,-5.4998,-5.3258,-5.1492,-4.9658,-4.79,-4.6726,-4.6308,-4.6308,-4.6308,-4.6308,-4.6308,-4.6308,-4.6308,-4.6308,-4.6308,-4.7054,-4.8073,-4.8073,-4.9338,-5.059,-4.9998,-4.9403,-4.8826,-4.8245,-4.8073,-4.7727,-4.6551,-4.7228,-4.7727,-4.6551,-4.6308,-4.6308,-4.6308,-4.6308,-4.6308,-4.6308,-4.6308,-4.6308,-4.6308,-4.6308,-4.6308,-4.6308,-4.6308,-4.6308,-4.6308,-4.6308,-4.6308,-4.6308,-4.6308,-4.6308,-4.6308,-4.6308,-4.6308,-4.6308,-4.6308,-4.6523,-4.6973,-4.668,-4.6894,-4.7617,-4.7461,-4.7539,-4.7812,-4.7969,-4.8027]},{"header":{"parameterUnit":"m.s-1","parameterCategory":1,"la1":30.6,"la2":29.2853,"lo1":-89.7004,"lo2":-87.6739,"dy":0.0162,"dx":0.0183,"nx":112,"ny":82,"refTime":"2024-04-23T12:00:00:Z","depth":0,"parameterNumber":3,"parameterNumberName":"V-component_of_WINDS"},"data":[0.0,0.0,0.0,0.0,0.0,0.0,0.0,0.0,0.0,0.0,0.0,0.0,0.0,0.0,0.0,0.0,0.0,0.0,0.0,0.0,0.0,0.0,0.0,0.0,0.0,0.0,0.0,0.0,0.0,0.0,0.0,0.0,0.0,0.0,0.0,0.0,0.0,0.0,0.0,0.0,0.0,0.0,0.0,0.0,0.0,0.0,0.0,0.0,0.0,0.0,0.0,0.0,0.0,0.0,0.0,0.0,0.0,0.0,0.0,0.0,0.0,0.0,0.0,0.0,0.0,0.0,0.0,0.0,0.0,0.0,0.0,0.0,0.0,0.0,0.0,0.0,0.0,0.0,0.0,0.0,0.0,0.0,0.0,0.0,0.0,0.0,0.0,0.0,0.0,0.0,5.34,5.34,5.2929,5.2642,5.2642,5.2171,5.1884,5.1884,0.0,0.0,0.0,0.0,0.0,0.0,0.0,0.0,0.0,0.0,0.0,0.0,0.0,0.0,0.0,0.0,0.0,0.0,0.0,0.0,0.0,0.0,0.0,0.0,0.0,0.0,0.0,0.0,0.0,0.0,0.0,0.0,0.0,0.0,0.0,0.0,0.0,0.0,0.0,0.0,0.0,0.0,0.0,0.0,0.0,0.0,0.0,0.0,0.0,0.0,0.0,0.0,0.0,0.0,0.0,0.0,0.0,0.0,0.0,0.0,0.0,0.0,0.0,0.0,0.0,0.0,0.0,0.0,0.0,0.0,0.0,0.0,0.0,0.0,0.0,0.0,0.0,0.0,0.0,0.0,0.0,0.0,0.0,0.0,0.0,0.0,0.0,0.0,0.0,0.0,0.0,0.0,0.0,0.0,0.0,0.0,0.0,0.0,0.0,0.0,0.0,0.0,0.0,0.0,5.34,5.34,5.3321,5.3269,5.3269,5.3164,5.3138,5.3138,0.0,0.0,0.0,0.0,0.0,0.0,0.0,0.0,0.0,0.0,0.0,0.0,0.0,0.0,0.0,0.0,0.0,0.0,0.0,0.0,0.0,0.0,0.0,0.0,0.0,0.0,0.0,0.0,0.0,0.0,0.0,0.0,0.0,0.0,0.0,0.0,0.0,0.0,0.0,0.0,0.0,0.0,0.0,0.0,0.0,0.0,0.0,0.0,0.0,0.0,0.0,0.0,0.0,0.0,0.0,0.0,0.0,0.0,0.0,0.0,0.0,0.0,0.0,0.0,0.0,0.0,0.0,0.0,0.0,0.0,0.0,0.0,0.0,0.0,0.0,0.0,0.0,0.0,0.0,0.0,0.0,0.0,0.0,0.0,0.0,0.0,0.0,0.0,0.0,0.0,0.0,0.0,0.0,0.0,0.0,0.0,0.0,0.0,0.0,0.0,0.0,0.0,0.0,5.4314,5.4314,5.4314,5.4027,5.3844,5.3844,5.3556,5.34,5.34,5.2877,0.0,0.0,0.0,0.0,0.0,0.0,0.0,0.0,0.0,0.0,0.0,0.0,0.0,0.0,0.0,0.0,0.0,0.0,0.0,0.0,0.0,0.0,0.0,0.0,0.0,0.0,0.0,0.0,0.0,0.0,0.0,0.0,0.0,0.0,0.0,0.0,0.0,0.0,0.0,0.0,0.0,0.0,0.0,0.0,0.0,0.0,0.0,0.0,0.0,0.0,0.0,0.0,0.0,0.0,0.0,0.0,0.0,0.0,0.0,0.0,0.0,0.0,0.0,0.0,0.0,0.0,0.0,0.0,0.0,0.0,0.0,0.0,0.0,0.0,0.0,0.0,0.0,0.0,0.0,0.0,0.0,0.0,0.0,0.0,0.0,0.0,0.0,0.0,0.0,0.0,0.0,0.0,0.0,0.0,0.0,0.0,0.0,0.0,0.0,0.0,0.0,0.0,5.5099,5.5099,5.5099,5.468,5.4419,5.4419,5.4027,5.3792,5.3792,5.3792,0.0,0.0,0.0,0.0,0.0,0.0,0.0,0.0,0.0,0.0,0.0,0.0,0.0,0.0,0.0,0.0,0.0,0.0,0.0,0.0,0.0,0.0,0.0,0.0,0.0,0.0,0.0,0.0,0.0,0.0,0.0,0.0,0.0,0.0,0.0,0.0,0.0,0.0,0.0,0.0,0.0,0.0,0.0,0.0,0.0,0.0,0.0,0.0,0.0,0.0,0.0,0.0,0.0,0.0,0.0,0.0,0.0,0.0,0.0,0.0,0.0,0.0,0.0,0.0,0.0,0.0,0.0,0.0,0.0,0.0,0.0,0.0,0.0,0.0,0.0,0.0,0.0,0.0,0.0,0.0,0.0,0.0,0.0,0.0,0.0,0.0,0.0,0.0,0.0,0.0,0.0,0.0,0.0,0.0,0.0,0.0,0.0,0.0,0.0,0.0,0.0,0.0,5.5099,5.5099,5.5099,5.5072,5.5046,5.5046,5.4994,5.4994,5.4994,5.4994,0.0,0.0,0.0,0.0,0.0,0.0,0.0,0.0,0.0,0.0,0.0,0.0,0.0,0.0,0.0,0.0,0.0,0.0,0.0,0.0,0.0,0.0,0.0,0.0,0.0,0.0,0.0,0.0,0.0,0.0,0.0,0.0,0.0,0.0,0.0,0.0,0.0,0.0,0.0,0.0,0.0,0.0,0.0,0.0,0.0,0.0,0.0,0.0,0.0,0.0,0.0,0.0,0.0,0.0,0.0,0.0,0.0,0.0,0.0,0.0,0.0,0.0,0.0,0.0,0.0,0.0,0.0,0.0,0.0,0.0,0.0,0.0,0.0,0.0,0.0,0.0,0.0,0.0,0.0,0.0,0.0,0.0,0.0,0.0,0.0,0.0,0.0,0.0,0.0,0.0,0.0,0.0,0.0,0.0,0.0,0.0,0.0,0.0,0.0,0.0,0.0,0.0,5.5099,5.5099,5.5099,5.5099,5.5099,5.5099,5.5099,5.5099,5.5099,0.0,0.0,0.0,0.0,0.0,0.0,0.0,0.0,0.0,0.0,0.0,0.0,0.0,0.0,0.0,0.0,0.0,0.0,0.0,0.0,0.0,0.0,0.0,0.0,0.0,0.0,0.0,0.0,0.0,0.0,0.0,0.0,0.0,0.0,0.0,0.0,0.0,0.0,0.0,0.0,0.0,0.0,0.0,0.0,0.0,0.0,0.0,0.0,0.0,0.0,0.0,0.0,0.0,0.0,0.0,0.0,0.0,0.0,0.0,0.0,0.0,0.0,0.0,0.0,0.0,0.0,0.0,0.0,0.0,0.0,0.0,0.0,0.0,0.0,0.0,0.0,0.0,0.0,0.0,0.0,0.0,0.0,0.0,0.0,0.0,0.0,0.0,0.0,0.0,0.0,0.0,0.0,0.0,0.0,0.0,0.0,0.0,0.0,0.0,0.0,0.0,0.0,5.5099,5.5099,5.5099,5.5099,5.5099,5.5099,5.5099,5.5099,5.5099,5.5099,0.0,0.0,0.0,0.0,0.0,0.0,0.0,0.0,0.0,0.0,0.0,0.0,0.0,0.0,0.0,0.0,0.0,0.0,0.0,0.0,0.0,0.0,0.0,0.0,0.0,0.0,0.0,0.0,0.0,0.0,0.0,0.0,0.0,0.0,0.0,0.0,0.0,0.0,0.0,0.0,0.0,0.0,0.0,0.0,0.0,0.0,0.0,0.0,0.0,0.0,0.0,0.0,0.0,0.0,0.0,0.0,0.0,0.0,0.0,0.0,0.0,0.0,0.0,0.0,0.0,0.0,0.0,0.0,0.0,0.0,0.0,0.0,0.0,0.0,0.0,0.0,0.0,0.0,0.0,0.0,0.0,0.0,0.0,0.0,0.0,0.0,0.0,0.0,0.0,0.0,0.0,0.0,0.0,0.0,0.0,0.0,0.0,0.0,0.0,0.0,0.0,0.0,5.5099,5.5099,5.5099,5.5099,5.5099,5.5099,5.5099,5.5165,5.5165,0.0,0.0,0.0,0.0,0.0,0.0,0.0,0.0,0.0,0.0,0.0,0.0,0.0,0.0,0.0,0.0,0.0,0.0,0.0,0.0,0.0,0.0,0.0,0.0,0.0,0.0,0.0,0.0,0.0,0.0,0.0,0.0,0.0,0.0,0.0,0.0,0.0,0.0,0.0,0.0,0.0,0.0,0.0,0.0,0.0,0.0,0.0,0.0,0.0,0.0,0.0,0.0,0.0,0.0,0.0,0.0,0.0,0.0,0.0,0.0,0.0,0.0,0.0,0.0,0.0,0.0,0.0,0.0,0.0,0.0,0.0,0.0,0.0,0.0,0.0,0.0,0.0,0.0,0.0,0.0,0.0,0.0,0.0,0.0,0.0,0.0,0.0,0.0,0.0,0.0,0.0,0.0,0.0,0.0,0.0,0.0,0.0,0.0,0.0,0.0,0.0,0.0,0.0,5.6536,5.6536,5.6536,5.6536,5.6536,5.6536,5.6536,5.7386,5.7515,5.6601,0.0,0.0,0.0,0.0,0.0,0.0,0.0,0.0,0.0,0.0,0.0,0.0,0.0,0.0,0.0,0.0,0.0,0.0,0.0,0.0,0.0,0.0,0.0,0.0,0.0,0.0,0.0,0.0,0.0,0.0,0.0,0.0,0.0,0.0,0.0,0.0,0.0,0.0,0.0,0.0,0.0,0.0,0.0,0.0,0.0,0.0,0.0,0.0,0.0,0.0,0.0,0.0,0.0,0.0,0.0,0.0,0.0,0.0,0.0,0.0,0.0,0.0,0.0,0.0,0.0,0.0,0.0,0.0,0.0,0.0,0.0,0.0,0.0,0.0,0.0,0.0,0.0,0.0,0.0,0.0,0.0,0.0,0.0,0.0,0.0,0.0,0.0,0.0,0.0,0.0,0.0,0.0,0.0,0.0,0.0,0.0,0.0,0.0,0.0,0.0,0.0,0.0,5.7157,5.7578,5.7897,5.7897,5.7897,5.7897,5.7897,5.8627,5.8752,5.7961,0.0,0.0,0.0,0.0,0.0,0.0,0.0,0.0,0.0,0.0,0.0,0.0,0.0,0.0,0.0,0.0,0.0,0.0,0.0,0.0,0.0,0.0,0.0,0.0,0.0,0.0,0.0,0.0,0.0,0.0,0.0,0.0,0.0,0.0,0.0,0.0,0.0,0.0,0.0,0.0,0.0,0.0,0.0,0.0,0.0,0.0,0.0,0.0,0.0,0.0,0.0,0.0,0.0,0.0,0.0,0.0,0.0,0.0,0.0,0.0,0.0,0.0,0.0,0.0,0.0,0.0,0.0,0.0,0.0,0.0,0.0,0.0,0.0,0.0,0.0,0.0,0.0,0.0,0.0,0.0,0.0,0.0,0.0,0.0,0.0,0.0,0.0,0.0,0.0,0.0,0.0,0.0,0.0,0.0,0.0,0.0,0.0,0.0,0.0,0.0,0.0,0.0,5.7725,5.8585,5.9397,5.9397,5.9454,5.9454,5.9397,5.9459,5.9493,5.9313,0.0,0.0,0.0,0.0,0.0,0.0,0.0,0.0,0.0,0.0,0.0,0.0,0.0,0.0,0.0,0.0,0.0,0.0,0.0,0.0,0.0,0.0,0.0,0.0,0.0,0.0,0.0,0.0,0.0,0.0,0.0,0.0,0.0,0.0,0.0,0.0,0.0,0.0,0.0,0.0,0.0,0.0,0.0,0.0,0.0,0.0,0.0,0.0,0.0,0.0,0.0,0.0,0.0,0.0,0.0,0.0,0.0,0.0,0.0,0.0,6.0647,6.0165,0.0,0.0,0.0,0.0,0.0,0.0,0.0,0.0,0.0,0.0,0.0,0.0,0.0,0.0,0.0,0.0,0.0,0.0,0.0,0.0,0.0,0.0,0.0,0.0,0.0,0.0,0.0,0.0,0.0,0.0,0.0,0.0,0.0,0.0,0.0,0.0,0.0,0.0,0.0,0.0,6.0979,6.1225,6.1347,6.1347,6.1841,6.1957,6.1466,6.2346,6.2261,6.0805,6.0413,0.0,0.0,0.0,0.0,0.0,0.0,0.0,0.0,0.0,0.0,0.0,0.0,0.0,0.0,0.0,0.0,0.0,0.0,0.0,0.0,0.0,0.0,0.0,0.0,0.0,0.0,0.0,0.0,0.0,0.0,0.0,0.0,0.0,0.0,0.0,0.0,0.0,0.0,0.0,0.0,0.0,0.0,0.0,0.0,0.0,0.0,0.0,0.0,0.0,0.0,0.0,0.0,0.0,0.0,0.0,0.0,0.0,0.0,0.0,6.2309,6.1639,0.0,0.0,0.0,0.0,0.0,0.0,0.0,0.0,0.0,0.0,0.0,0.0,0.0,0.0,0.0,0.0,0.0,0.0,0.0,0.0,0.0,0.0,0.0,0.0,0.0,0.0,0.0,0.0,0.0,0.0,0.0,0.0,0.0,0.0,0.0,0.0,0.0,0.0,0.0,0.0,6.2564,6.302,6.3412,6.3412,6.3767,6.3855,6.3441,6.404,6.395,6.2824,6.2142,0.0,0.0,0.0,0.0,0.0,0.0,0.0,0.0,0.0,0.0,0.0,0.0,0.0,0.0,0.0,0.0,0.0,0.0,0.0,0.0,0.0,0.0,0.0,0.0,0.0,0.0,0.0,0.0,0.0,0.0,0.0,0.0,0.0,0.0,0.0,0.0,0.0,0.0,0.0,0.0,0.0,0.0,0.0,0.0,0.0,0.0,0.0,0.0,0.0,0.0,0.0,0.0,0.0,6.3431,6.3496,6.3496,6.3496,6.4174,6.5198,6.4016,6.3366,6.3169,6.3169,0.0,0.0,0.0,0.0,0.0,0.0,0.0,0.0,0.0,0.0,0.0,0.0,0.0,0.0,0.0,0.0,0.0,0.0,0.0,0.0,0.0,0.0,6.8417,6.8179,6.8298,6.8264,6.7478,0.0,0.0,0.0,0.0,0.0,0.0,0.0,0.0,0.0,0.0,0.0,6.3816,6.4664,6.5382,6.5382,6.5472,6.5502,6.5382,6.5323,6.5082,6.4772,6.3654,6.2913,0.0,0.0,0.0,0.0,0.0,0.0,0.0,0.0,0.0,0.0,0.0,0.0,0.0,0.0,0.0,0.0,0.0,0.0,0.0,0.0,0.0,0.0,0.0,0.0,0.0,0.0,0.0,0.0,0.0,0.0,0.0,0.0,6.2242,6.2242,0.0,0.0,0.0,0.0,0.0,0.0,0.0,0.0,0.0,0.0,0.0,0.0,0.0,6.2575,6.2773,6.4016,6.4624,6.4624,6.5856,6.6476,6.6476,6.6476,6.6538,6.6723,6.6538,0.0,6.4624,6.4624,0.0,0.0,0.0,0.0,0.0,0.0,0.0,0.0,0.0,0.0,0.0,0.0,0.0,0.0,0.0,0.0,0.0,0.0,0.0,0.0,0.0,0.0,6.883,6.8772,6.883,6.88,6.8649,6.8174,6.7697,6.7697,6.7637,6.7577,0.0,0.0,0.0,0.0,0.0,0.0,6.6461,6.6639,6.6728,6.6728,6.7243,6.7365,6.6759,6.6491,6.613,6.5817,6.5347,6.4928,6.4613,6.4525,0.0,0.0,0.0,0.0,0.0,0.0,0.0,0.0,0.0,0.0,0.0,0.0,0.0,0.0,0.0,0.0,0.0,0.0,0.0,0.0,0.0,0.0,0.0,0.0,0.0,0.0,0.0,0.0,0.0,6.1165,6.1908,6.2707,6.1504,6.0961,0.0,0.0,0.0,0.0,0.0,0.0,0.0,0.0,0.0,6.3952,6.3952,6.4368,6.5134,6.5731,6.6073,6.6073,6.6723,6.6999,6.6999,6.6999,6.6999,6.6999,6.7182,6.6908,6.6384,6.6384,6.6106,6.5702,0.0,0.0,0.0,0.0,6.5922,6.5985,6.6266,6.6758,6.7215,6.7215,0.0,0.0,0.0,0.0,0.0,0.0,0.0,6.8238,6.8358,6.8654,6.8889,6.8889,6.8889,6.8889,6.8889,6.8713,6.8417,6.8238,6.8238,6.8119,6.785,6.7789,0.0,0.0,0.0,6.7125,6.7275,6.7275,6.7275,6.7275,6.7728,6.7908,6.7604,6.7425,6.7182,6.6777,6.663,6.6384,6.609,6.5521,6.5041,0.0,0.0,0.0,0.0,0.0,0.0,0.0,0.0,0.0,0.0,0.0,0.0,0.0,0.0,0.0,0.0,0.0,0.0,0.0,0.0,0.0,0.0,0.0,0.0,0.0,0.0,0.0,0.0,6.1476,6.2214,6.3692,6.2547,6.2148,0.0,0.0,0.0,0.0,0.0,0.0,6.33,6.3366,6.3952,6.5416,6.5416,6.5948,6.6999,6.6999,6.6999,6.6999,6.6999,6.6999,6.6999,6.6999,6.6999,6.6999,6.7365,6.7548,6.7608,6.7608,6.7789,6.803,6.803,6.803,6.803,6.809,6.809,6.8119,6.8417,6.8535,6.8535,6.8535,6.8535,6.8446,6.8179,0.0,0.0,0.0,0.0,6.8386,6.8505,6.8713,6.8889,6.8889,6.8889,6.8889,6.8889,6.8889,6.883,6.8595,6.8535,6.8476,6.8119,6.809,0.0,6.809,6.7879,6.7759,6.7819,6.7819,6.7819,6.7819,6.8059,6.8269,6.8269,6.815,6.8025,6.7801,6.7711,6.7494,6.7139,6.6445,6.5906,6.5666,0.0,0.0,0.0,0.0,0.0,0.0,0.0,0.0,0.0,0.0,0.0,0.0,0.0,0.0,0.0,0.0,0.0,0.0,0.0,0.0,0.0,0.0,0.0,0.0,0.0,0.0,0.0,0.0,0.0,6.66,6.5543,0.0,0.0,0.0,0.0,6.2773,6.2773,6.3366,6.4752,6.4816,6.548,6.6846,6.6908,6.6937,6.6999,6.6999,6.6999,6.6999,6.6999,6.6999,6.6999,6.6999,6.6999,6.6999,6.7365,6.7669,6.797,6.797,6.797,6.803,6.803,6.803,6.803,6.8298,6.8386,6.8446,6.8772,6.8889,6.8889,6.8889,6.8889,6.883,6.8446,6.8386,0.0,0.0,6.8386,6.8446,6.8772,6.8889,6.8889,6.8889,6.8889,6.8889,6.8889,6.8889,6.8889,6.8889,6.8889,6.8772,6.8446,0.0,6.8386,6.8386,6.8358,6.8446,6.8772,6.883,6.883,6.883,6.883,6.883,6.883,6.8595,6.8505,6.8828,6.8533,6.8168,6.7846,6.7785,6.7331,6.6369,6.5696,0.0,0.0,0.0,0.0,0.0,0.0,0.0,0.0,0.0,0.0,0.0,0.0,0.0,0.0,0.0,0.0,0.0,0.0,0.0,0.0,0.0,0.0,0.0,0.0,0.0,0.0,0.0,0.0,6.6846,6.5731,0.0,6.6136,6.4944,6.456,6.5416,6.548,6.5731,6.6198,6.626,6.6446,6.6999,6.6999,6.6999,6.6999,6.6999,6.6999,6.6999,6.7243,6.7304,6.7365,6.7548,6.7669,6.7669,6.7939,6.8179,6.8298,6.8476,6.8595,6.8595,6.8595,6.8595,6.8595,6.8713,6.8713,6.8772,6.8889,6.8889,6.8889,6.8889,6.8889,6.8889,6.8772,6.8713,6.8713,6.8713,6.8713,6.8772,6.8889,6.8889,6.8889,6.8889,6.8889,6.8889,6.8889,6.8889,6.8889,6.8889,6.8889,6.8889,6.8772,6.8713,6.8713,6.8713,6.8505,6.8446,6.8564,6.8595,6.8595,6.8595,6.8772,6.8889,6.8889,6.8772,6.8772,6.8889,6.8772,6.8649,6.8551,6.815,6.7754,6.7362,6.6717,6.6322,0.0,0.0,0.0,0.0,0.0,0.0,0.0,0.0,0.0,0.0,0.0,0.0,0.0,0.0,0.0,0.0,0.0,0.0,0.0,0.0,0.0,0.0,0.0,0.0,0.0,6.488,6.5416,6.6846,6.6198,6.6011,6.6908,6.6136,6.6011,6.6908,6.6999,6.6999,6.6999,6.6999,6.6999,6.6999,6.6999,6.6999,6.6999,6.6999,6.6999,6.6999,6.7365,6.7487,6.7487,6.785,6.803,6.803,6.8298,6.8386,6.8446,6.8772,6.8889,6.8889,6.8889,6.8889,6.8889,6.8889,6.8889,6.8889,6.8889,6.8889,6.8889,6.8889,6.8889,6.8889,6.8889,6.8889,6.8889,6.8889,6.8889,6.8889,6.8889,6.8889,6.8889,6.8889,6.8889,6.8889,6.8889,6.8889,6.8889,6.8889,6.8889,6.8889,6.8889,6.8889,6.8889,6.8889,6.8713,6.8595,6.8595,6.8595,6.8595,6.8595,6.8772,6.8889,6.8889,6.8889,6.8889,6.8889,6.8889,6.8889,6.8889,6.8458,6.8243,6.8243,6.7596,6.7135,6.6919,0.0,0.0,0.0,0.0,0.0,0.0,0.0,0.0,0.0,0.0,0.0,0.0,0.0,0.0,0.0,0.0,0.0,0.0,0.0,0.0,0.0,0.0,0.0,6.5134,6.4944,6.548,6.6846,6.6999,6.6999,6.6999,6.6999,6.6999,6.6999,6.6999,6.6999,6.6999,6.6999,6.6999,6.6999,6.6999,6.6999,6.6999,6.6999,6.6999,6.6999,6.7365,6.7487,6.7548,6.785,6.803,6.803,6.8298,6.8386,6.8446,6.8772,6.8889,6.8889,6.8889,6.8889,6.8889,6.8889,6.8889,6.8889,6.8889,6.8889,6.8889,6.8889,6.8889,6.8889,6.8889,6.8889,6.8889,6.8889,6.8889,6.8889,6.8889,6.8889,6.8889,6.8889,6.8889,6.8889,6.8889,6.8889,6.8889,6.8889,6.8889,6.8889,6.8889,6.8889,6.8889,6.8889,6.8889,0.0,6.8889,6.8889,6.8889,6.8889,6.8889,6.8889,6.8889,6.8889,6.8889,6.8889,6.8889,6.8889,6.8889,6.8889,6.8889,6.8889,6.8274,6.7627,6.695,0.0,0.0,0.0,0.0,0.0,0.0,0.0,0.0,0.0,0.0,0.0,0.0,0.0,0.0,0.0,0.0,0.0,0.0,0.0,0.0,0.0,6.6999,6.6846,6.6476,6.6384,6.66,6.6937,6.6999,6.6999,6.6999,6.6999,6.6999,6.6999,6.6999,6.6999,6.6999,6.6999,6.6999,6.6999,6.6999,6.7121,6.7365,6.7121,6.7121,6.7365,6.7487,6.7608,6.785,6.8179,6.8417,6.8654,6.8713,6.8772,6.8772,6.8889,6.8889,6.8889,6.8889,6.8889,6.8889,6.8889,6.8889,6.8889,6.8889,6.8889,6.8889,6.8889,6.8889,6.8889,6.8889,6.8889,6.8889,6.8889,6.8889,6.8889,6.8889,6.8889,6.8889,6.8889,6.8889,6.8889,6.8889,6.8889,6.8889,6.8889,6.8889,6.8889,6.8889,6.8889,6.8889,6.8889,6.8889,6.8889,6.8889,6.8889,6.8889,6.8889,6.8889,6.8889,6.8889,6.8889,6.8889,6.8889,6.8889,6.8889,6.8889,6.8889,6.8889,6.8889,6.8705,6.8304,0.0,0.0,0.0,0.0,0.0,0.0,0.0,0.0,0.0,0.0,0.0,0.0,0.0,0.0,0.0,0.0,0.0,0.0,0.0,0.0,0.0,0.0,6.6999,6.6999,6.6999,6.6999,6.6999,6.6999,6.6999,6.6999,6.6999,6.6999,6.6999,6.6999,6.6999,6.6999,6.6999,6.6999,6.6999,6.6999,6.6999,6.7121,6.7304,6.7121,6.7182,6.7487,6.7669,6.791,6.8179,6.8476,6.8713,6.8889,6.8889,6.8889,6.8889,6.8889,6.8889,0.0,0.0,0.0,0.0,0.0,6.8889,6.8889,6.8889,6.8889,6.8889,6.8889,6.8889,6.8889,6.8889,6.8889,6.8889,6.8889,6.8889,6.8889,6.8889,6.8889,6.8889,6.8889,6.8889,6.8889,6.8889,6.8889,6.8889,6.8889,6.8889,0.0,6.8889,6.8889,6.8889,6.8889,6.8889,6.8889,6.8889,6.8889,6.8889,6.8889,6.8889,6.8889,6.8889,6.8889,0.0,0.0,0.0,6.8889,6.8889,6.8889,0.0,0.0,0.0,6.8705,6.8335,0.0,0.0,0.0,6.6848,6.6602,0.0,0.0,0.0,0.0,0.0,0.0,0.0,0.0,0.0,0.0,0.0,0.0,0.0,0.0,0.0,0.0,6.6999,6.6999,6.6999,6.6999,6.6999,6.6999,6.6999,6.6999,6.6999,6.6999,6.6999,6.6999,6.6999,6.6999,6.6999,6.6999,0.0,0.0,0.0,6.7119,6.727,6.727,6.7454,6.7759,6.8062,6.8363,6.8631,6.8866,6.9012,6.9012,6.892,6.8889,6.8889,6.8889,6.8889,6.8889,6.8889,6.8889,6.8889,6.8889,6.8889,6.8889,6.8889,0.0,0.0,6.8889,6.8889,6.8889,6.8889,6.8889,6.8889,6.8889,6.8889,6.8889,6.8889,6.8889,6.8889,6.8889,6.8889,6.8889,6.8889,6.8889,6.8889,6.8889,6.8889,6.8889,6.8889,6.8889,6.8889,6.8889,6.8889,6.8889,6.8889,6.8889,6.8889,6.8889,0.0,0.0,6.8889,6.8889,6.8889,6.8889,6.8889,6.8889,6.8889,6.8889,6.8889,6.8889,6.8889,6.8889,6.8889,6.8889,6.8889,6.8858,6.7689,6.7135,0.0,0.0,0.0,0.0,0.0,0.0,0.0,0.0,0.0,0.0,0.0,0.0,0.0,0.0,0.0,6.6999,6.6999,6.6999,6.6999,6.6999,6.6999,6.6999,6.6999,6.6999,6.6999,6.6999,6.6999,6.6999,6.6999,6.6999,6.6999,6.6999,6.7238,6.7777,6.7777,6.8171,6.893,6.8992,6.9178,6.9517,6.9579,0.0,7.0098,6.9517,6.9451,6.9659,6.9105,6.8889,6.8889,6.8889,6.8889,6.8889,6.8889,6.8889,6.8889,6.8889,6.8889,6.8889,6.8889,6.8889,6.8889,6.8889,6.8889,6.8889,6.8889,6.8889,0.0,6.8889,6.8889,6.8889,6.8889,6.8889,6.8889,6.8889,6.8889,6.8889,6.8889,6.8889,6.8889,6.8889,6.8889,6.8889,6.8889,6.8889,6.8889,6.8889,6.8889,6.8889,6.8889,6.8889,6.8889,6.8889,6.8889,6.8889,6.8889,6.8889,6.8889,6.8889,6.8889,6.8889,6.8889,6.8889,6.8889,6.8889,6.8889,6.8889,6.8889,6.8889,6.8889,6.8889,6.8612,6.8489,0.0,0.0,0.0,0.0,0.0,0.0,0.0,0.0,0.0,0.0,0.0,6.6999,6.6999,0.0,6.6999,6.6999,6.6999,6.6999,6.6999,6.6999,6.6999,6.6999,6.6999,6.6999,6.6999,6.6999,6.6999,6.6999,6.6999,6.7148,6.7478,6.7478,6.7777,6.8465,6.8495,6.8833,6.9446,6.9351,6.9601,7.0281,7.0066,7.0251,7.0678,7.031,7.0217,7.0367,6.969,6.9382,6.9351,6.9012,6.8889,6.8889,6.8889,6.8889,6.8889,6.8889,6.8889,6.8889,6.8889,6.8889,6.8889,6.8889,6.8889,6.8889,6.8889,6.8889,6.8889,6.8889,6.8889,6.8889,6.8889,6.8889,6.8889,6.8889,6.8889,6.8889,6.8889,6.8889,6.8889,6.8889,6.9166,6.9382,6.9382,6.9659,6.9659,6.8982,6.9166,6.9382,6.9382,6.969,6.9905,6.9905,6.9597,6.9382,6.9382,6.9074,6.8889,6.8889,6.8889,6.8889,6.8889,6.8889,6.8889,6.8889,6.8889,6.8889,6.8889,6.8889,6.8889,6.8889,6.8889,6.8889,0.0,0.0,0.0,0.0,0.0,0.0,0.0,6.6999,6.6999,6.6999,6.6999,6.6999,6.6999,6.6999,6.6999,6.6999,6.6999,6.6999,6.6999,6.6999,6.6999,6.6999,6.6999,6.6999,6.6999,6.6999,6.6999,6.6999,6.7119,6.7418,6.7956,6.8106,6.8558,6.931,6.931,6.9496,6.9901,6.9742,7.0056,7.0801,7.0647,7.0832,7.129,7.1167,7.1105,7.1075,7.0398,7.0028,6.9843,6.932,6.9012,6.8889,6.8889,6.8889,6.8889,6.8889,6.8889,6.8889,6.8889,6.8889,6.8889,6.8889,6.8889,6.8889,6.8889,6.8889,6.8889,6.8889,6.8889,6.8889,6.8889,6.8889,6.8889,6.8889,6.8889,6.8889,6.8889,6.8982,6.9074,6.9074,6.9628,7.009,7.009,7.0551,7.0521,6.9443,6.9751,7.009,7.009,7.0582,7.089,7.089,7.0428,7.009,7.009,6.9597,6.9228,6.9074,6.9074,6.9012,6.8889,6.8889,6.8889,6.8889,6.8889,6.8889,6.8889,6.8889,6.8889,6.8889,6.8889,6.8889,6.6999,6.6999,6.6999,6.6999,6.6999,6.6999,0.0,6.6999,6.6999,6.6999,6.6999,6.6999,6.6999,6.6999,6.6999,6.6999,6.6999,6.6999,6.6999,6.6999,6.6999,6.6999,6.6999,6.6999,6.6999,6.6999,6.6999,6.6999,6.7537,6.7897,6.7956,6.8555,6.931,7.0287,7.0317,7.0588,7.1194,7.1797,7.2017,7.1828,7.2394,7.2706,7.2737,7.2121,7.1844,7.1813,7.1105,7.0459,6.9874,6.9813,6.9443,6.8889,6.8889,6.8889,6.8889,6.8889,6.8889,6.8889,6.8889,6.8889,6.8889,6.8889,6.8889,6.8889,6.8889,6.8889,6.8889,6.8889,6.8889,6.8889,6.8889,6.8889,6.8889,6.8889,6.8889,6.8889,6.8889,6.9351,6.9782,6.9782,7.0336,7.0798,7.0798,7.0859,7.0859,7.0705,7.0736,7.0798,7.0798,7.0859,7.089,7.089,7.0828,7.0798,7.0798,7.0736,7.0428,6.9813,6.9782,6.9505,6.892,6.8889,6.8889,6.8889,6.8889,6.8889,6.8889,6.8889,6.8889,6.8889,6.8889,6.8889,6.6999,6.6999,6.6999,6.6999,6.6999,6.6999,6.6999,6.6999,6.6999,6.6999,6.6999,6.6999,6.6999,6.6999,6.6999,6.6999,6.6999,6.6999,6.6999,6.6999,6.6999,6.6999,6.6999,6.6999,6.6999,6.6999,6.7148,6.7537,6.7807,6.8315,6.9093,6.9423,6.9935,7.0693,7.0693,7.1036,7.1722,7.1819,7.2073,7.2546,7.2671,7.2796,7.2983,7.2706,7.2337,7.1967,7.166,7.1136,7.049,7.049,7.0305,7.0028,6.9628,6.9474,6.9413,6.9043,6.8889,6.8889,6.8889,6.8889,6.8889,6.8889,6.8889,6.8889,6.8889,6.8889,6.8889,6.8889,6.8889,6.8889,6.8889,6.8889,6.8982,6.9382,6.9474,6.9566,6.9967,7.0274,7.049,7.049,7.1044,7.1536,7.1536,7.1844,7.2121,7.2121,7.1783,7.1536,7.1536,7.1875,7.1967,7.1567,7.1536,7.1352,7.0952,7.089,7.0767,7.049,7.049,7.0182,6.9505,6.9474,6.9289,6.8889,6.8889,6.8889,6.8889,6.8889,6.8889,6.8889,6.8889,6.8889,6.6999,6.6999,6.6999,6.6999,6.6999,6.6999,6.6999,6.6999,6.6999,6.6999,6.6999,6.6999,6.6999,6.6999,6.6999,6.6999,6.6999,6.6999,6.6999,6.7148,6.7268,6.7268,6.7418,6.7537,6.7537,6.7358,6.7537,6.8196,6.8435,6.8944,6.9931,7.0269,7.0633,7.1178,7.1307,7.1564,7.2104,7.1947,7.22,7.2859,7.2734,7.2796,7.2983,7.2983,7.2706,7.2244,7.2244,7.1844,7.1198,7.1198,7.1075,7.0859,7.0367,7.0182,7.012,6.9628,6.9197,6.8889,6.8889,6.8889,6.8889,6.8889,6.8889,6.8889,6.8889,6.8889,6.892,6.9105,6.9166,6.9197,6.9382,6.9443,6.9566,7.0059,7.0182,7.0305,7.0798,7.1075,7.1198,7.1198,7.1752,7.2244,7.2244,7.2645,7.2983,7.2983,7.2583,7.2244,7.2244,7.2675,7.2798,7.2306,7.2244,7.2029,7.1506,7.1475,7.1413,7.1229,7.1198,7.089,7.0182,7.0182,6.9843,6.9166,6.9166,6.9074,6.8889,6.8889,6.8889,6.8889,6.8889,6.8889,6.6999,6.6999,6.6999,6.6999,6.6999,6.6999,6.6999,6.6999,6.6999,6.6999,6.6999,6.6999,6.6999,6.6999,6.6999,6.6999,6.6999,6.6999,6.6999,6.7537,6.7956,6.7956,6.8525,6.8944,6.8944,6.8345,6.8226,6.8914,6.9542,6.9931,6.9991,7.0882,7.1533,7.1913,7.2294,7.2452,7.2452,7.2796,7.2796,7.2546,7.2859,7.2983,7.2983,7.2983,7.2983,7.2952,7.2952,7.2583,7.1937,7.1937,7.1536,7.089,7.089,7.089,7.0859,7.0859,6.9997,6.8889,6.8889,6.8889,6.8889,6.8889,6.8889,6.8889,6.8889,6.8889,6.9012,6.969,6.9874,7.0028,7.0675,7.0828,7.0859,7.0859,7.089,7.089,7.089,7.1444,7.1937,7.1937,7.2491,7.2952,7.2952,7.2983,7.2983,7.2983,7.2952,7.2952,7.2952,7.2983,7.2983,7.2952,7.2952,7.2952,7.2922,7.2922,7.2645,7.1998,7.1937,7.1629,7.089,7.089,7.0551,6.9874,6.9874,6.9536,6.8889,6.8889,6.8889,6.8889,6.8889,6.8889,6.6999,6.6999,6.6999,6.6999,6.6999,6.6999,6.6999,6.6999,6.6999,6.6999,6.6999,6.6999,6.6999,6.6999,6.7148,6.7567,6.7627,6.7807,6.8256,6.8525,6.8645,6.8645,6.8854,6.9183,6.9602,6.9064,6.8944,6.9602,6.9842,7.0299,7.0912,7.1251,7.1564,7.2007,7.2104,7.2294,7.2515,7.2608,7.2734,7.2859,7.2921,7.2983,7.2983,7.2983,7.2983,7.2983,7.2983,7.286,7.2645,7.2645,7.2491,7.2244,7.1783,7.1629,7.1567,7.1075,7.0613,7.0213,7.0213,7.0213,7.0213,7.0213,7.0213,7.0213,7.0213,7.0213,7.0274,7.049,7.0551,7.0613,7.0828,7.089,7.1013,7.1506,7.1629,7.1752,7.2183,7.246,7.2645,7.2645,7.2829,7.2983,7.2983,7.2983,7.2983,7.2983,7.2983,7.2983,7.2983,7.2983,7.2983,7.2983,7.2983,7.2983,7.2983,7.2983,7.2891,7.2645,7.2645,7.2337,7.1629,7.1629,7.129,7.0582,7.0551,7.0459,7.0213,7.0213,6.9997,6.9566,6.9566,6.932,6.6999,6.6999,6.6999,6.6999,6.6999,6.6999,6.6999,6.6999,6.6999,6.6999,6.6999,6.6999,6.6999,6.7178,6.7478,6.7897,6.8166,6.8495,6.8944,6.9213,6.9363,6.9363,6.9542,6.9905,7.0453,6.9995,6.9935,7.0483,7.0513,7.0821,7.1533,7.1756,7.1883,7.2167,7.2294,7.2605,7.3008,7.3008,7.3134,7.3322,7.3106,7.2983,7.2983,7.2983,7.2983,7.2983,7.2983,7.2983,7.2983,7.2983,7.2983,7.2952,7.2521,7.2337,7.2275,7.1813,7.166,7.1567,7.1075,7.089,7.089,7.089,7.089,7.089,7.089,7.089,7.0952,7.1229,7.129,7.1352,7.1598,7.166,7.1752,7.2214,7.2337,7.246,7.2891,7.2983,7.2983,7.2983,7.2983,7.2983,7.2983,7.3385,7.3661,7.3661,7.3995,7.3934,7.3107,7.2983,7.2983,7.2983,7.2983,7.2983,7.2983,7.2983,7.2983,7.2983,7.2983,7.2798,7.2368,7.2337,7.1998,7.129,7.129,7.1167,7.089,7.089,7.0675,7.0244,7.0244,7.0028,6.6999,6.6999,6.6999,6.6999,6.6999,6.6999,6.6999,6.6999,6.6999,6.6999,6.6999,6.6999,6.6999,6.7537,6.7986,6.8016,6.8585,6.9064,6.9093,6.9632,7.0021,7.0021,7.056,7.1018,7.1341,7.1113,7.1018,7.1341,7.1341,7.1564,7.2007,7.2294,7.2483,7.2576,7.292,7.3353,7.403,7.403,7.403,7.403,7.3353,7.3045,7.3045,7.3014,7.2983,7.2983,7.2983,7.2983,7.2983,7.2983,7.2983,7.2983,7.2983,7.2983,7.2983,7.2983,7.2983,7.2798,7.1475,7.1013,7.1013,7.1013,7.1013,7.1013,7.1013,7.1013,7.1136,7.1844,7.2029,7.2183,7.2829,7.2983,7.2983,7.2983,7.2983,7.3045,7.3107,7.3107,7.3107,7.3169,7.3139,7.3107,7.3107,7.4055,7.483,7.4889,7.588,7.5765,7.3508,7.3139,7.3139,7.3139,7.3139,7.3139,7.3139,7.3139,7.3139,7.3139,7.3139,7.3139,7.3139,7.3077,7.2799,7.2274,7.209,7.1751,7.1134,7.1074,7.0982,7.0952,7.0952,7.0952,6.6999,6.6999,6.6999,6.6999,6.6999,6.6999,6.6999,6.6999,6.6999,6.6999,6.6999,6.6999,6.6999,6.7537,6.8136,6.8645,6.9303,6.9901,7.035,7.056,7.0679,7.0679,7.0799,7.0889,7.1048,7.0954,7.1018,7.1341,7.1178,7.1307,7.2007,7.2071,7.2601,7.3596,7.3659,7.4061,7.4738,7.4738,7.4738,7.4738,7.4061,7.3753,7.3722,7.3199,7.2983,7.2983,7.2983,7.2983,7.2983,7.2983,7.2983,7.2983,7.2983,7.2983,7.2983,7.2983,7.2983,7.2922,7.2583,7.246,7.246,7.246,7.246,7.246,7.246,7.246,7.2491,7.2675,7.2737,7.2768,7.2952,7.2983,7.2983,7.2983,7.2983,7.3262,7.4176,7.4325,7.4624,7.5534,7.498,7.4325,7.4325,7.4624,7.5125,7.5995,7.6395,7.6395,7.5765,7.5707,7.5707,7.5707,7.5707,7.5707,7.5707,7.5707,7.5707,7.5707,7.5707,7.5707,7.5707,7.4802,7.4707,7.5394,7.3624,7.3075,7.3791,7.2889,7.2183,7.169,7.169,7.1413,6.6999,6.6999,6.6999,6.6999,6.6999,6.6999,6.6999,6.6999,6.6999,6.6999,6.6999,6.6999,6.6999,6.7777,6.8555,6.8944,6.9782,7.05,7.0859,7.0889,7.0889,7.0889,7.1018,7.1178,7.1371,7.1242,7.1341,7.1819,7.1435,7.1435,7.2167,7.2505,7.3094,7.3968,7.4276,7.4769,7.5446,7.5446,7.5446,7.5446,7.4769,7.443,7.4399,7.3722,7.3414,7.3414,7.3106,7.2983,7.2983,7.2983,7.2983,7.2983,7.2983,7.2983,7.2983,7.2983,7.2983,7.2983,7.2983,7.2983,7.2983,7.2983,7.2983,7.2983,7.2983,7.2983,7.2983,7.2983,7.2983,7.2983,7.2983,7.2983,7.2983,7.2983,7.2983,7.32,7.3874,7.4445,7.5183,7.6395,7.6053,7.5592,7.5592,7.6021,7.6589,7.7291,7.7839,7.8197,7.8197,7.7236,7.6621,7.6621,7.6621,7.6621,7.6621,7.6621,7.6621,7.6621,7.6621,7.6621,7.6621,7.5938,7.5938,7.6621,7.5242,7.4624,7.4771,7.4116,7.3352,7.2429,7.2429,7.2214,6.6999,6.6999,6.6999,6.6999,6.6999,6.6999,6.6999,6.6999,6.6999,6.6999,6.6999,6.6999,6.6999,6.8106,6.9004,6.9004,7.0081,7.0889,7.0889,7.0889,7.0889,7.0889,7.1178,7.15,7.185,7.1718,7.1813,7.2542,7.2031,7.1967,7.2605,7.3311,7.3836,7.4245,7.4922,7.5538,7.6154,7.6154,7.6154,7.6123,7.5446,7.5138,7.5107,7.443,7.4091,7.3968,7.3383,7.3076,7.2983,7.2983,7.2983,7.2983,7.2983,7.2983,7.2983,7.2983,7.2983,7.2983,7.2983,7.2983,7.2983,7.2983,7.2983,7.2983,7.2983,7.2983,7.2983,7.2983,7.2983,7.2983,7.2983,7.2983,7.2983,7.2983,7.3107,7.3262,7.3447,7.4564,7.5791,7.6677,7.6846,7.6846,7.6846,7.773,7.8465,7.8624,7.9528,8.0209,8.0209,7.8358,7.7069,7.7069,7.7069,7.7069,7.7069,7.7069,7.7069,7.7069,7.7069,7.7069,7.7069,7.6958,7.6902,7.7069,7.679,7.6167,7.53,7.5125,7.4385,7.3262,7.3262,7.3139,6.6999,6.6999,6.6999,6.6999,6.6999,6.6999,6.6999,6.6999,6.6999,6.6999,6.6999,6.6999,6.6999,6.8106,6.9004,6.9004,7.0081,7.0889,7.0889,7.0889,7.0889,7.0889,7.0954,7.1113,7.15,7.2012,7.2474,7.2891,7.3313,7.3472,7.3308,7.392,7.4755,7.563,7.6308,7.6739,7.6831,7.6831,7.6831,7.6831,7.6154,7.5846,7.5815,7.5138,7.4522,7.3968,7.3876,7.3506,7.2983,7.2983,7.2983,7.2983,7.2983,7.2983,7.2983,7.2983,7.2983,7.2983,7.2983,7.2983,7.2983,7.2983,7.2983,7.2983,7.2983,7.2983,7.2983,7.2983,7.2983,7.2983,7.2983,7.2983,7.2983,7.2983,7.3783,7.4771,7.5765,7.773,7.9027,7.825,7.8056,7.8056,7.8056,7.825,7.873,7.9734,8.0074,8.0209,8.0209,7.9819,7.958,7.958,7.958,7.958,7.958,7.958,7.958,7.958,7.958,7.958,7.958,7.8624,7.8571,7.958,7.7621,7.7013,7.7785,7.6757,7.565,7.4505,7.4505,7.3934,6.6999,6.6999,6.6999,6.6999,6.6999,6.6999,6.6999,6.6999,6.6999,6.6999,6.6999,6.6999,6.6999,6.8106,6.9004,6.9004,7.0081,7.0889,7.0889,7.0889,7.0889,7.0889,7.1018,7.1212,7.1341,7.2038,7.269,7.3236,7.405,7.4389,7.4042,7.4817,7.5621,7.6523,7.6862,7.7016,7.7016,7.7016,7.7016,7.7016,7.6677,7.6523,7.6523,7.5846,7.5138,7.4491,7.4153,7.3599,7.2983,7.2983,7.2983,7.2983,7.2983,7.2983,7.2983,7.2983,7.2983,7.2983,7.2983,7.2983,7.2983,7.2983,7.2983,7.2983,7.2983,7.2983,7.2983,7.2983,7.2983,7.2983,7.2983,7.2983,7.3139,7.3783,7.4862,7.611,7.7291,7.8465,7.9288,7.9321,7.934,7.934,7.934,7.934,7.9528,8.0074,8.0209,8.0209,8.0209,8.0209,8.0209,8.0209,8.0209,8.0209,8.0209,8.0209,8.0209,8.0209,8.0209,8.0209,8.0209,7.9632,7.958,8.0209,7.9079,7.8465,7.8411,7.7839,7.6958,7.5765,7.5765,7.5417,6.6999,6.6999,6.6999,6.6999,6.6999,6.6999,6.6999,6.6999,6.6999,6.6999,6.6999,6.6999,6.6999,6.8106,6.9004,6.9004,7.0081,7.0889,7.0889,7.0889,7.0919,7.0954,7.1178,7.1401,7.1809,7.2284,7.2997,7.3889,7.4759,7.5216,7.5058,7.5809,7.6461,7.7016,7.7016,7.7016,7.7016,7.7016,7.7016,7.7016,7.7016,7.7016,7.7016,7.6461,7.5784,7.4984,7.443,7.3753,7.2983,7.2983,7.2983,7.2983,7.2983,7.2983,7.2983,7.2983,7.2983,7.2983,7.2983,7.2983,7.2983,7.2983,7.2983,7.2983,7.2983,7.2983,7.2983,7.2983,7.2983,7.3045,7.3324,7.3385,7.3783,7.5242,7.6306,7.7346,7.8518,7.8783,7.9079,8.0023,8.0209,8.0209,8.0209,8.0209,8.0209,8.0209,8.0209,8.0209,8.0209,8.0209,8.0209,8.0209,8.0209,8.0209,8.0209,8.0209,8.0209,8.0209,8.0209,8.0209,8.0209,8.0209,8.0209,8.0209,8.0209,7.9734,7.8783,7.8783,7.8197,7.7013,7.7013,7.6846,6.6999,6.6999,6.6999,6.6999,6.6999,6.6999,6.6999,6.6999,6.6999,6.6999,6.6999,6.6999,6.6999,6.8106,6.9004,6.9004,7.0081,7.0889,7.0889,7.0889,7.1018,7.1307,7.1083,7.1582,7.3181,7.3334,7.3905,7.5234,7.5968,7.6498,7.6765,7.6827,7.6954,7.7016,7.7016,7.7016,7.7016,7.7016,7.7016,7.7016,7.7016,7.7016,7.7016,7.6954,7.6215,7.5015,7.4922,7.4184,7.2983,7.2983,7.2983,7.2983,7.2983,7.2983,7.2983,7.2983,7.2983,7.2983,7.2983,7.2983,7.2983,7.2983,7.2983,7.2983,7.2983,7.2983,7.2983,7.2983,7.2983,7.3262,7.4325,7.4593,7.5242,7.7511,7.8164,7.8571,7.9734,8.0023,8.0074,8.0209,8.0209,8.0209,8.0209,8.0209,8.0209,8.0209,8.0209,8.0209,8.0209,8.0209,8.0209,8.0209,8.0209,8.0209,8.0209,8.0209,8.0209,8.0209,8.0209,8.0209,8.0209,8.0209,8.0209,8.0209,8.0209,8.0158,8.0023,8.0023,7.9425,7.825,7.825,7.7621,6.6999,6.6999,6.6999,6.6999,6.6999,6.6999,6.6999,6.6999,6.6999,6.6999,6.6999,6.6999,6.6999,6.8106,6.9004,6.9004,7.0081,7.0889,7.0889,7.0889,7.0954,7.1083,7.1178,7.1642,7.2789,7.3425,7.4405,7.5998,7.6533,7.6884,7.7016,7.7016,7.7016,7.7016,7.7016,7.7016,7.7016,7.7016,7.7016,7.7016,7.7016,7.7016,7.7016,7.7016,7.6277,7.5015,7.5015,7.4245,7.2983,7.2983,7.2983,7.2983,7.2983,7.2983,7.2983,7.2983,7.2983,7.2983,7.2983,7.2983,7.2983,7.2983,7.2983,7.2983,7.2983,7.2983,7.2983,7.2983,7.2983,7.3107,7.36,7.4802,7.6306,7.8002,7.8974,7.9632,8.0107,8.0209,8.0209,8.0209,8.0209,8.0209,8.0209,8.0209,8.0209,8.0209,8.0209,8.0209,8.0209,8.0209,8.0209,8.0209,8.0209,8.0209,8.0209,8.0209,8.0209,8.0209,8.0209,8.0209,8.0209,8.0209,8.0209,8.0209,8.0209,8.0209,8.0209,8.0209,7.9972,7.9477,7.9477,7.9236,6.6999,6.6999,6.6999,6.6999,6.6999,6.6999,6.6999,6.6999,6.6999,6.6999,6.6999,6.6999,6.6999,6.7926,6.8764,6.8974,6.9931,7.0709,7.0889,7.0889,7.0919,7.1048,7.1178,7.1767,7.2997,7.4107,7.5216,7.6396,7.6752,7.6884,7.7016,7.7016,7.7016,7.7016,7.7016,7.7016,7.7016,7.7016,7.7016,7.7016,7.7016,7.7016,7.7016,7.7016,7.6277,7.5015,7.5015,7.4245,7.2983,7.2983,7.2983,7.2983,7.2983,7.2983,7.2983,7.2983,7.2983,7.2983,7.2983,7.2983,7.2983,7.2983,7.2983,7.2983,7.2983,7.2983,7.2983,7.2983,7.3477,7.4055,7.4055,7.588,7.7893,7.873,7.958,8.0209,8.0209,8.0209,8.0209,8.0209,8.0209,8.0209,8.0209,8.0209,8.0209,8.0209,8.0209,8.0209,8.0209,8.0209,8.0209,8.0209,8.0209,8.0209,8.0209,8.0209,8.0209,8.0209,8.0209,8.0209,8.0209,8.0209,8.0209,8.0209,8.0209,8.0209,8.0209,8.0209,8.0209,8.0209,8.0209,8.0209,6.6999,6.6999,6.6999,6.6999,6.6999,6.6999,6.6999,6.6999,6.6999,6.6999,6.6999,6.6999,6.6999,6.7537,6.8196,6.8884,6.9542,7.0201,7.0829,7.0889,7.1018,7.1371,7.1113,7.1883,7.4253,7.5662,7.6457,7.6488,7.6488,7.6686,7.695,7.7016,7.7016,7.7016,7.7016,7.7016,7.7016,7.7016,7.7016,7.7016,7.7016,7.7016,7.7016,7.7016,7.6277,7.5015,7.5015,7.4245,7.2983,7.2983,7.2983,7.2983,7.2983,7.2983,7.2983,7.2983,7.2983,7.2983,7.2983,7.2983,7.2983,7.2983,7.2983,7.2983,7.2983,7.2983,7.2983,7.2983,7.4743,7.6565,7.6565,7.8358,8.0158,8.0209,8.0209,8.0209,8.0209,8.0209,8.0209,8.0209,8.0209,8.0209,8.0209,8.0209,8.0209,8.0209,8.0209,8.0209,8.0209,8.0209,8.0209,8.0209,8.0209,8.0209,8.0209,8.0209,8.0209,8.0209,8.0209,8.0209,8.0209,8.0209,8.0209,8.0209,8.0209,8.0209,8.0209,8.0209,8.0209,8.0209,8.0209,8.0209,6.6999,6.6999,6.6999,6.6999,6.6999,6.6999,6.6999,6.6999,6.6999,6.6999,6.6999,6.6999,6.6999,6.7537,6.8196,6.8884,6.9542,7.0201,7.0829,7.0889,7.1018,7.1371,7.2149,7.3236,7.473,7.5621,7.6327,7.6788,7.6818,7.6884,7.7016,7.7016,7.7016,7.7016,7.7016,7.7016,7.7016,7.7016,7.7016,7.7016,7.7016,7.7016,7.7016,7.7016,7.6277,7.5015,7.5015,7.4245,7.2983,7.2983,7.2983,7.2983,7.2983,7.2983,7.2983,7.2983,7.2983,7.2983,7.2983,7.2983,7.2983,7.2983,7.2983,7.2983,7.2983,7.2983,7.2983,7.2983,7.4116,7.5592,7.6395,7.7785,7.9184,8.0023,8.0209,8.0209,8.0209,8.0209,8.0209,8.0209,8.0209,8.0209,8.0209,8.0209,8.0209,8.0209,8.0209,8.0209,8.0209,8.0209,8.0209,8.0209,8.0209,8.0209,8.0209,8.0209,8.0209,8.0209,8.0209,8.0209,8.0209,8.0209,8.0209,8.0209,8.0209,8.0209,8.0209,8.0209,8.0209,8.0209,8.0209,8.0209,6.6999,6.6999,6.6999,6.6999,6.6999,6.6999,6.6999,6.6999,6.6999,6.6999,6.6999,6.6999,6.6999,6.7328,6.7897,6.8854,6.9333,6.9901,7.0769,7.0889,7.1018,7.1371,7.2651,7.3864,7.473,7.5535,7.6277,7.6954,7.7016,7.7016,7.7016,7.7016,7.7016,7.7016,7.7016,7.7016,7.7016,7.7016,7.7016,7.7016,7.7016,7.7016,7.7016,7.6769,7.6031,7.4984,7.4738,7.3999,0.0,7.2983,7.2983,7.2983,7.2983,7.2983,7.2983,7.2983,7.2983,7.2983,7.2983,7.2983,7.2983,7.2983,7.2983,7.2983,7.2983,7.2983,7.2983,7.2983,7.4176,7.565,7.6395,7.7511,7.8571,7.934,7.9528,7.9528,7.9528,7.987,8.0209,8.0209,8.0209,8.0209,8.0209,8.0209,8.0209,8.0209,8.0209,8.0209,8.0209,8.0209,8.0209,8.0209,8.0209,8.0209,8.0209,8.0209,8.0209,8.0209,8.0209,8.0209,8.0209,8.0209,8.0209,8.0209,8.0209,8.0209,8.0209,8.0209,8.0209,8.0209,8.0209,8.0209,0.0,6.6999,6.6999,6.6999,6.6999,6.6999,6.6999,6.6999,0.0,6.6999,6.6999,6.6999,6.6999,6.6999,6.7418,6.8764,6.9004,6.9453,7.0709,7.0919,7.1018,7.1341,7.2621,7.3675,7.4409,7.5375,7.6246,7.6954,7.7016,7.7016,7.7016,7.7016,7.7016,7.7016,7.7016,7.7016,7.7016,7.7016,7.7016,7.7016,7.7016,7.7016,7.6985,7.6308,7.563,7.4953,7.4276,7.3599,7.2983,7.2983,7.2983,7.2983,7.2983,7.2983,7.2983,7.2983,7.2983,7.2983,7.2983,7.2983,7.2983,7.2983,7.2983,7.2983,7.2983,7.2983,7.2983,7.2983,7.4684,7.6508,7.6508,7.7346,7.8304,7.8411,7.8411,7.8411,7.8518,7.9425,8.0209,8.0209,8.0209,8.0209,8.0209,8.0209,8.0209,8.0209,8.0209,8.0209,8.0209,8.0209,8.0209,8.0209,8.0209,8.0209,8.0209,8.0209,8.0209,8.0209,8.0209,8.0209,8.0209,8.0209,8.0209,8.0209,8.0209,8.0209,8.0209,8.0209,8.0209,8.0209,8.0209,8.0209,6.6999,0.0,6.6999,6.6999,6.6999,6.6999,0.0,6.6999,6.6999,6.6999,6.6999,6.6999,6.6999,6.6999,6.7418,6.8764,6.9004,6.9453,7.0709,7.1113,7.1307,7.1405,7.2226,7.3219,7.4348,7.4945,7.5723,7.6923,7.7016,7.7016,7.7016,7.7016,7.7016,7.7016,7.7016,7.7016,7.7016,7.7016,7.7016,7.7016,7.7016,7.7016,7.6985,7.6308,7.563,7.4953,7.4276,7.3599,7.2983,7.2983,7.2983,7.2983,7.2983,7.2983,7.2983,7.2983,7.2983,7.2983,7.2983,7.2983,7.2983,7.2983,7.2983,7.2983,7.2983,7.2983,7.2983,7.2983,7.4055,7.5242,7.5242,7.6078,7.7236,7.8197,7.8411,7.8624,7.958,7.9972,8.0209,8.0209,8.0209,8.0209,8.0209,8.0209,8.0209,8.0209,8.0209,8.0209,8.0209,8.0209,8.0209,8.0209,8.0209,8.0209,8.0209,8.0209,8.0209,8.0209,8.0209,8.0209,8.0209,8.0209,8.0209,8.0209,8.0209,8.0209,8.0209,8.0209,8.0209,8.0209,8.0209,8.0209,6.6999,6.6999,6.6999,6.6999,6.6999,6.6999,6.6999,6.6999,6.6999,6.6999,6.6999,6.6999,6.6999,6.7238,6.7777,6.8824,6.9243,6.9782,7.0769,7.1148,7.15,7.1628,7.2137,7.3066,7.4605,7.4856,7.5569,7.6923,7.7016,7.7016,7.7016,7.7016,7.7016,7.7016,7.7016,7.7016,7.7016,7.7016,7.7016,7.7016,7.7016,7.6862,7.6523,7.5846,7.5169,7.4491,7.3814,7.3322,7.2983,7.2983,7.2983,7.2983,7.2983,7.2983,7.2983,7.2983,7.2983,7.2983,7.2983,7.2983,7.2983,7.2983,7.2983,7.2983,7.2983,7.2983,7.2983,7.2983,7.3874,7.4771,7.4771,7.53,7.6078,7.7291,7.7566,7.7893,7.9131,7.9819,8.0209,8.0209,8.0209,8.0209,8.0209,8.0209,8.0209,8.0209,8.0209,8.0209,8.0209,8.0209,8.0209,8.0209,8.0209,8.0209,8.0209,8.0209,8.0209,8.0209,8.0209,8.0209,8.0209,8.0209,8.0209,8.0209,8.0209,8.0209,8.0209,8.0209,8.0209,8.0209,8.0209,8.0209,6.6999,6.6999,6.6999,6.6999,6.6999,6.6999,6.6999,6.6999,6.6999,6.6999,6.6999,6.6999,6.6999,6.7537,6.8196,6.8884,6.9632,7.029,7.0894,7.1178,7.15,7.1944,7.2231,7.3066,7.4733,7.4951,7.5569,7.6923,7.7016,7.7016,7.7016,7.7016,7.7016,7.7016,7.7016,7.7016,7.7016,7.7016,7.7016,7.7016,7.7016,7.6677,7.6,7.5323,7.4645,7.3968,7.326,0.0,7.2983,7.2983,7.2983,7.2983,7.2983,7.2983,7.2983,7.2983,7.2983,7.2983,7.2983,7.2983,7.2983,7.2983,7.2983,7.2983,7.2983,7.2983,7.2983,7.2983,7.3722,7.4564,7.4564,7.4564,7.4889,7.6281,7.6621,7.7013,7.8358,7.9477,8.0209,8.0209,8.0209,8.0209,8.0209,8.0209,8.0209,8.0209,8.0209,8.0209,8.0209,8.0209,8.0209,8.0209,8.0209,8.0209,8.0209,8.0209,8.0209,8.0209,8.0209,8.0209,8.0209,8.0209,8.0209,8.0209,8.0209,8.0209,8.0209,8.0209,8.0209,8.0209,8.0209,8.0209,6.6999,6.6999,6.6999,6.6999,6.6999,6.6999,6.6999,6.6999,6.6999,6.6999,6.6999,6.6999,6.6999,6.7537,6.8196,6.8884,6.9991,7.0864,7.1277,7.1083,7.1242,7.1944,7.2071,7.2779,7.4412,7.4792,7.5569,7.6923,7.7016,7.7016,7.7016,7.7016,7.7016,7.7016,7.7016,7.7016,7.7016,7.7016,7.7016,7.7016,7.7016,7.6677,7.6,7.5323,7.4645,7.3968,0.0,7.2983,7.2983,7.2983,7.2983,7.2983,7.2983,7.2983,7.2983,7.2983,7.2983,7.2983,7.2983,7.2983,7.2983,7.2983,7.2983,7.2983,7.2983,7.2983,7.2983,7.2983,7.3139,7.3262,7.3262,7.3262,7.3844,7.6053,7.6621,7.7236,7.9425,8.0074,8.0209,8.0209,8.0209,8.0209,8.0209,8.0209,8.0209,8.0209,8.0209,8.0209,8.0209,8.0209,8.0209,8.0209,8.0209,8.0209,8.0209,8.0209,8.0209,8.0209,8.0209,8.0209,8.0209,8.0209,8.0209,8.0209,8.0209,8.0209,8.0209,8.0209,8.0209,8.0209,8.0209,8.0209,6.6999,6.6999,6.6999,6.6999,6.6999,6.6999,6.6999,6.6999,6.6999,6.6999,6.6999,6.6999,6.6999,6.7837,6.8917,7.0127,7.0787,7.1307,7.1628,7.1594,7.1722,7.2231,7.2294,7.2817,7.4083,7.4735,7.5415,7.64,7.6831,7.7016,7.7016,7.7016,7.7016,7.7016,7.6677,7.6461,7.6461,7.6123,7.6123,7.6461,7.6461,7.5938,7.4922,7.4584,7.4091,7.3414,0.0,7.2983,7.2983,7.2983,7.2983,7.2983,7.2983,7.2983,7.2983,7.2983,7.2983,7.2983,7.2983,7.2983,7.2983,7.2983,7.2983,7.2983,7.2983,7.2983,7.2983,7.2983,7.2983,7.2983,7.2983,7.3477,7.4385,7.6167,7.7125,7.8089,7.9819,8.0209,8.0209,8.0209,8.0209,8.0209,8.0209,8.0209,8.0209,8.0209,8.0209,8.0209,8.0209,8.0209,8.0209,8.0209,8.0209,8.0209,8.0209,8.0209,8.0209,8.0209,8.0209,8.0209,8.0209,8.0209,8.0209,8.0209,8.0209,8.0209,8.0209,8.0209,8.0209,8.0209,8.0209,8.0209,6.6999,6.6999,6.6999,6.6999,6.6999,6.6999,6.6999,6.6999,6.6999,6.6999,6.6999,6.6999,6.6999,6.8138,6.9613,7.113,7.15,7.1692,7.204,7.2071,7.2167,7.2608,7.2546,7.2916,7.3937,7.4461,7.5046,7.5723,7.6246,7.6554,7.6554,7.6554,7.6554,7.6554,7.6031,7.5784,7.5784,7.5261,7.5261,7.5784,7.5784,7.5138,7.3999,7.3999,7.363,7.2983,7.2983,7.2983,7.2983,7.2983,7.2983,7.2983,7.2983,7.2983,7.2983,7.2983,7.2983,7.2983,7.2983,7.2983,7.2983,7.2983,7.2983,7.2983,7.2983,7.2983,7.2983,7.2983,7.2983,7.3045,7.3324,7.4116,7.5183,7.6677,7.773,7.873,7.9921,8.0209,8.0209,8.0209,8.0209,8.0209,8.0209,8.0209,8.0209,8.0209,8.0209,8.0209,8.0209,8.0209,8.0209,8.0209,8.0209,8.0209,8.0209,8.0209,8.0209,8.0209,8.0209,8.0209,8.0209,8.0209,8.0209,8.0209,8.0209,8.0209,8.0209,8.0209,8.0209,8.0209,8.0209,8.0209,6.6999,6.6999,6.6999,6.6999,6.6999,6.6999,6.6999,6.6999,6.6999,6.6999,6.6999,6.6999,6.6999,6.8387,6.9898,7.1194,7.1722,7.204,7.242,7.2167,7.2231,7.2921,7.2671,7.2916,7.3937,7.403,7.4338,7.5015,7.5107,7.5138,7.5138,7.5138,7.5138,7.5138,7.5107,7.5076,7.5076,7.5015,7.5015,7.5076,7.5076,7.4707,7.3999,7.3999,7.363,7.2983,7.2983,7.2983,7.2983,7.2983,7.2983,7.2983,7.2983,7.2983,7.2983,7.2983,7.2983,7.2983,7.2983,7.2983,7.2983,7.2983,7.2983,7.2983,7.2983,7.2983,7.2983,7.2983,7.2983,7.3262,7.4385,7.4711,7.5417,7.773,7.8358,7.873,7.9921,8.0209,8.0209,8.0209,8.0209,8.0209,8.0209,8.0209,8.0209,8.0209,8.0209,8.0209,8.0209,8.0209,8.0209,8.0209,8.0209,8.0209,8.0209,8.0209,8.0209,8.0209,8.0209,8.0209,8.0209,8.0209,8.0209,8.0209,8.0209,8.0209,8.0209,8.0209,8.0209,8.0209,8.0209,8.0209,6.6999,6.6999,6.6999,6.6999,6.6999,6.6999,6.6999,6.6999,6.6999,6.6999,6.6999,6.7238,6.8076,6.8958,7.0024,7.151,7.2104,7.242,7.2796,7.2671,7.2734,7.2983,7.2921,7.2951,7.3353,7.3753,7.4091,7.4368,7.4769,7.5015,7.5015,7.5015,7.5015,7.5015,7.4584,7.4368,7.4368,7.3968,7.3753,7.3753,7.4184,7.403,7.3353,7.3353,7.3229,7.2983,7.2983,7.2983,7.2983,7.2983,7.2983,7.2983,7.2983,7.2983,7.2983,7.2983,7.2983,7.2983,7.2983,7.2983,7.2983,7.2983,7.2983,7.2983,7.2983,7.2983,7.2983,7.2983,7.2983,7.3107,7.3539,7.4802,7.6167,7.7069,7.8411,7.9632,8.0074,8.0209,8.0209,8.0209,8.0209,8.0209,8.0209,8.0209,8.0209,8.0209,8.0209,8.0209,8.0209,8.0209,8.0209,8.0209,8.0209,8.0209,8.0209,8.0209,8.0209,8.0209,8.0209,8.0209,8.0209,8.0209,8.0209,8.0209,8.0209,8.0209,8.0209,8.0209,8.0209,8.0209,8.0209,8.0209,6.6999,6.6999,6.6999,6.6999,6.6999,6.6999,6.6999,6.6999,6.6999,6.6999,6.6999,6.7449,6.886,6.9414,7.0149,7.1701,7.2357,7.2734,7.2983,7.2983,7.2983,7.2983,7.2983,7.2983,7.2983,7.3414,7.366,7.366,7.4091,7.4368,7.4368,7.4368,7.4368,7.4368,7.3907,7.366,7.366,7.3199,7.2983,7.2983,7.3445,7.3445,7.2983,7.2983,7.2983,7.2983,7.2983,7.2983,7.2983,7.2983,7.2983,7.2983,7.2983,7.2983,7.2983,7.2983,7.2983,7.2983,7.2983,7.2983,7.2983,7.2983,7.2983,7.2983,7.2983,7.2983,7.2983,7.2983,7.2983,7.2983,7.2983,7.4505,7.6224,7.7013,7.8411,7.9768,8.0124,8.0209,8.0209,8.0209,8.0209,8.0209,8.0209,8.0209,8.0209,8.0209,8.0209,8.0209,8.0209,8.0209,8.0209,8.0209,8.0209,8.0209,8.0209,8.0209,8.0209,8.0209,8.0209,8.0209,8.0209,8.0209,8.0209,8.0209,8.0209,8.0209,8.0209,8.0209,8.0209,8.0209,8.0209,8.0209,6.6999,6.6999,6.6999,6.6999,6.6999,6.6999,6.6999,6.6999,6.6999,6.6999,6.6999,6.7511,6.9143,6.9695,7.046,7.1764,7.2546,7.2983,7.2983,7.2983,7.2983,7.2983,7.2983,7.2983,7.2983,7.2983,7.2983,7.2983,7.2983,7.2983,7.2983,7.2983,7.2983,7.2983,7.2983,7.2983,7.2983,7.2983,7.2983,7.2983,7.2983,7.2983,7.2983,7.2983,7.2983,7.2983,7.2983,7.2983,7.2983,7.2983,7.2983,7.2983,7.2983,7.2983,7.2983,7.2983,7.2983,7.2983,7.2983,7.2983,7.2983,7.2983,7.2983,7.2983,7.2983,7.2983,7.2983,7.2983,7.2983,7.2983,7.2983,7.3874,7.5417,7.7785,7.8411,7.873,7.9921,8.0209,8.0209,8.0209,8.0209,8.0209,8.0209,8.0209,8.0209,8.0209,8.0209,8.0209,8.0209,8.0209,8.0209,8.0209,8.0209,8.0209,8.0209,8.0209,8.0209,8.0209,8.0209,8.0209,8.0209,8.0209,8.0209,8.0209,8.0209,8.0209,8.0209,8.0209,8.0209,8.0209,8.0209,8.0209,6.6999,6.6999,6.6999,6.6999,6.6999,6.6999,6.6999,6.6999,6.706,6.7304,6.7365,6.7879,6.9515,7.0066,7.077,7.2143,7.2734,7.2983,7.2983,7.2983,7.2983,7.2983,7.2983,7.2983,7.2983,7.2983,7.2983,7.2983,7.2983,7.2983,7.2983,7.2983,7.2983,7.2983,7.2983,7.2983,7.2983,7.2983,7.2983,7.2983,7.2983,7.2983,7.2983,7.2983,7.2983,7.2983,7.2983,7.2983,7.2983,7.2983,7.2983,7.2983,7.2983,7.2983,7.2983,7.2983,7.2983,7.2983,7.2983,7.2983,7.2983,7.2983,7.2983,7.2983,7.2983,7.2983,7.2983,7.2983,7.2983,7.32,7.4055,7.4564,7.5183,7.6757,7.8411,7.9734,8.0124,8.0209,8.0209,8.0209,8.0209,8.0209,8.0209,8.0209,8.0209,8.0209,8.0209,8.0209,8.0209,8.0209,8.0209,8.0209,8.0209,8.0209,8.0209,8.0209,8.0209,8.0209,8.0209,8.0209,8.0209,8.0209,8.0209,8.0209,8.0209,8.0209,8.0209,8.0209,8.0209,8.0209,8.0209,8.0209,6.6999,6.6999,6.6999,6.6999,6.6999,6.6999,6.6999,6.6999,6.7121,6.7608,6.7608,6.8061,6.9823,7.0343,7.0955,7.2238,7.2796,7.2983,7.2983,7.2983,7.2983,7.2983,7.2983,7.2983,7.2983,7.2983,7.2983,7.2983,7.2983,7.2983,7.2983,7.2983,7.2983,7.2983,7.2983,7.2983,7.2983,7.2983,7.2983,7.2983,7.2983,7.2983,7.2983,7.2983,7.2983,7.2983,7.2983,7.2983,7.2983,7.2983,7.2983,7.2983,7.2983,7.2983,7.2983,7.2983,7.2983,7.2983,7.2983,7.2983,7.2983,7.2983,7.2983,7.2983,7.2983,7.2983,7.2983,7.2983,7.2983,7.3262,7.4505,7.5183,7.5823,7.7013,7.8411,7.9632,8.0107,8.0209,8.0209,8.0209,8.0209,8.0209,8.0209,8.0209,8.0209,8.0209,8.0209,8.0209,8.0209,8.0209,8.0209,8.0209,8.0209,8.0209,8.0209,8.0209,8.0209,8.0209,8.0209,8.0209,8.0209,8.0209,8.0209,8.0209,8.0209,8.0209,8.0209,8.0209,8.0209,8.0209,8.0209,8.0209,6.6999,6.6999,6.6999,6.6999,6.6999,6.6999,6.6999,6.706,6.7243,6.785,6.7789,6.8183,7.0068,7.0526,7.0955,7.2301,7.2796,7.2983,7.2983,7.2983,7.2983,7.2983,7.2983,7.2983,7.2983,7.2983,7.2983,7.2983,7.2983,7.2983,7.2983,7.2983,7.2983,7.2983,7.2983,7.2983,7.2983,7.2983,7.2983,7.2983,7.2983,7.2983,7.2983,7.2983,7.2983,7.2983,7.2983,7.2983,7.2983,7.2983,7.2983,7.2983,7.2983,7.2983,7.2983,7.2983,7.2983,7.2983,7.2983,7.2983,7.2983,7.2983,7.2983,7.2983,7.2983,7.2983,7.2983,7.2983,7.2983,7.3324,7.4624,7.5765,7.6958,7.825,7.8571,7.8836,7.9972,8.0209,8.0209,8.0209,8.0209,8.0209,8.0209,8.0209,8.0209,8.0209,8.0209,8.0209,8.0209,8.0209,8.0209,8.0209,8.0209,8.0209,8.0209,8.0209,8.0209,8.0209,8.0209,8.0209,8.0209,8.0209,8.0209,8.0209,8.0209,8.0209,8.0209,8.0209,8.0209,8.0209,8.0209,8.0209,6.6999,6.6999,6.6999,6.6999,6.6999,6.6999,6.6999,6.7182,6.7487,6.791,6.8119,6.8755,7.0463,7.08,7.123,7.2706,7.2921,7.2983,7.2983,7.2983,7.2983,7.2983,7.2983,7.2983,7.2983,7.2983,7.2983,7.2983,7.2983,7.2983,7.2983,7.2983,7.2983,7.2983,7.2983,7.2983,7.2983,7.2983,7.2983,7.2983,7.2983,7.2983,7.2983,7.2983,7.2983,7.2983,7.2983,7.2983,7.2983,7.2983,7.2983,7.2983,7.2983,7.2983,7.2983,7.2983,7.2983,7.2983,7.2983,7.2983,7.2983,7.2983,7.2983,7.2983,7.2983,7.2983,7.2983,7.2983,7.2983,7.3508,7.565,7.6395,7.7125,7.9288,7.9819,7.987,8.0124,8.0209,8.0209,8.0209,8.0209,8.0209,8.0209,8.0209,8.0209,8.0209,8.0209,8.0209,8.0209,8.0209,8.0209,8.0209,8.0209,8.0209,8.0209,8.0209,8.0209,8.0209,8.0209,8.0209,8.0209,8.0209,8.0209,8.0209,8.0209,8.0209,8.0209,8.0209,8.0209,8.0209,8.0209,8.0209,6.6999,6.6999,6.6999,6.6999,6.6999,6.706,6.7182,6.7365,6.7669,6.8059,6.8298,6.8934,7.0584,7.089,7.1352,7.2768,7.2983,7.2983,7.2983,7.2983,7.2983,7.2983,7.2983,7.2983,7.2983,7.2983,7.2983,7.2983,7.2983,7.2983,7.2983,7.2983,7.2983,7.2983,7.2983,7.2983,7.2983,7.2983,7.2983,7.2983,7.2983,7.2983,7.2983,7.2983,7.2983,7.2983,7.2983,7.2983,7.2983,7.2983,7.2983,7.2983,7.2983,7.2983,7.2983,7.2983,7.2983,7.2983,7.2983,7.2983,7.2983,7.2983,7.2983,7.2983,7.2983,7.2983,7.2983,7.2983,7.2983,7.357,7.5995,7.6621,7.7236,7.9632,8.0209,8.0209,8.0209,8.0209,8.0209,8.0209,8.0209,8.0209,8.0209,8.0209,8.0209,8.0209,8.0209,8.0209,8.0209,8.0209,8.0209,8.0209,8.0209,8.0209,8.0209,8.0209,8.0209,8.0209,8.0209,8.0209,8.0209,8.0209,8.0209,8.0209,8.0209,8.0209,8.0209,8.0209,8.0209,8.0209,8.0209,8.0209,6.6999,6.6999,6.6999,6.6999,6.6999,6.706,6.7365,6.7487,6.7729,6.8238,6.8358,6.8903,7.043,7.0828,7.1321,7.2614,7.2891,7.2983,7.2983,7.2983,7.2983,7.2983,7.2983,7.2983,7.2983,7.2983,7.2983,7.2983,7.2983,7.2983,7.2983,7.2983,7.2983,7.2983,7.2983,7.2983,7.2983,7.2983,7.2983,7.2983,7.2983,7.2983,7.2983,7.2983,7.2983,7.2983,7.2983,7.2983,7.2983,7.2983,7.2983,7.2983,7.2983,7.2983,7.2983,7.2983,7.2983,7.2983,7.2983,7.2983,7.2983,7.2983,7.2983,7.2983,7.2983,7.2983,7.2983,7.2983,7.2983,7.357,7.5995,7.6621,7.7236,7.9632,8.0209,8.0209,8.0209,8.0209,8.0209,8.0209,8.0209,8.0209,8.0209,8.0209,8.0209,8.0209,8.0209,8.0209,8.0209,8.0209,8.0209,8.0209,8.0209,8.0209,8.0209,8.0209,8.0209,8.0209,8.0209,8.0209,8.0209,8.0209,8.0209,8.0209,8.0209,8.0209,8.0209,8.0209,8.0209,8.0209,8.0209,8.0209,6.6999,6.6999,6.6999,6.6999,6.6999,6.6999,6.706,6.7548,6.797,6.803,6.8238,6.875,6.9815,7.0521,7.1167,7.1967,7.2614,7.2983,7.2983,7.2983,7.2983,7.2983,7.2983,7.2983,7.2983,7.2983,7.2983,7.2983,7.2983,7.2983,7.2983,7.2983,7.2983,7.2983,7.2983,7.2983,7.2983,7.2983,7.2983,7.2983,7.2983,7.2983,7.2983,7.2983,7.2983,7.2983,7.2983,7.2983,7.2983,7.2983,7.2983,7.2983,7.2983,7.2983,7.2983,7.2983,7.2983,7.2983,7.2983,7.2983,7.2983,7.2983,7.2983,7.2983,7.2983,7.2983,7.2983,7.2983,7.2983,7.357,7.5995,7.6621,7.7236,7.9632,8.0209,8.0209,8.0209,8.0209,8.0209,8.0209,8.0209,8.0209,8.0209,8.0209,8.0209,8.0209,8.0209,8.0209,8.0209,8.0209,8.0209,8.0209,8.0209,8.0209,8.0209,8.0209,8.0209,8.0209,8.0209,8.0209,8.0209,8.0209,8.0209,8.0209,8.0209,8.0209,8.0209,8.0209,8.0209,8.0209,8.0209,8.0209,6.6999,6.6999,6.6999,6.6999,6.7121,6.7365,6.7548,6.7789,6.809,6.8417,6.8476,6.8719,6.9692,7.0459,7.1136,7.1844,7.2552,7.2983,7.2983,7.2983,7.2983,7.2983,7.2983,7.2983,7.2983,7.2983,7.2983,7.2983,7.2983,7.2983,7.2983,7.2983,7.2983,7.2983,7.2983,7.2983,7.2983,7.2983,7.2983,7.2983,7.2983,7.2983,7.2983,7.2983,7.2983,7.2983,7.2983,7.2983,7.2983,7.2983,7.2983,7.2983,7.2983,7.2983,7.2983,7.2983,7.2983,7.2983,7.2983,7.2983,7.2983,7.2983,7.2983,7.2983,7.2983,7.2983,7.2983,7.2983,7.2983,7.3385,7.5125,7.611,7.7069,7.8783,7.9184,7.9184,7.9184,7.9683,8.0209,8.0209,8.0209,8.0209,8.0209,8.0209,8.0209,8.0209,8.0209,8.0209,8.0209,8.0209,8.0209,8.0209,8.0209,8.0209,8.0209,8.0209,8.0209,8.0209,8.0209,8.0209,8.0209,8.0209,8.0209,8.0209,8.0209,8.0209,8.0209,8.0209,8.0209,8.0209,8.0209,8.0209,6.6999,6.6999,6.6999,6.6999,6.7243,6.7548,6.785,6.803,6.8238,6.8713,6.8654,6.8748,6.9476,7.0336,7.1075,7.1629,7.2429,7.2983,7.2983,7.2983,7.2983,7.2983,7.2983,7.2983,7.2983,7.2983,7.2983,7.2983,7.2983,7.2983,7.2983,7.2983,7.2983,7.2983,7.2983,7.2983,7.2983,7.2983,7.2983,7.2983,7.2983,7.2983,7.2983,7.2983,7.2983,7.2983,7.2983,7.2983,7.2983,7.2983,7.2983,7.2983,7.2983,7.2983,7.2983,7.2983,7.2983,7.2983,7.2983,7.2983,7.2983,7.2983,7.2983,7.2983,7.2983,7.2983,7.2983,7.2983,7.2983,7.3262,7.4505,7.5475,7.6532,7.8002,7.8411,7.8411,7.8411,7.9131,7.9819,8.0158,8.0209,8.0209,8.0209,8.0209,8.0209,8.0209,8.0209,8.0209,8.0209,8.0209,8.0209,8.0209,8.0209,8.0209,8.0209,8.0209,8.0209,8.0209,8.0209,8.0209,8.0209,8.0209,8.0209,8.0209,8.0209,8.0209,8.0209,8.0209,8.0209,8.0209,8.0209,8.0209,6.6999,6.6999,6.6999,6.6999,6.7243,6.7487,6.7548,6.7939,6.8386,6.8386,6.8623,6.8889,6.892,7.0028,7.0921,7.0952,7.2091,7.2983,7.2983,7.2983,7.2983,7.2983,7.2983,7.2983,7.2983,7.2983,7.2983,7.2983,7.2983,7.2983,7.2983,7.2983,7.2983,7.2983,7.2983,7.2983,7.2983,7.2983,7.2983,7.2983,7.2983,7.2983,7.2983,7.2983,7.2983,7.2983,7.2983,7.2983,7.2983,7.2983,7.2983,7.2983,7.2983,7.2983,7.2983,7.2983,7.2983,7.2983,7.2983,7.2983,7.2983,7.2983,7.2983,7.2983,7.2983,7.2983,7.2983,7.2983,7.2983,7.3262,7.4505,7.483,7.5475,7.7839,7.8411,7.8411,7.8411,7.8465,7.8836,7.9972,8.0209,8.0209,8.0209,8.0209,8.0209,8.0209,8.0209,8.0209,8.0209,8.0209,8.0209,8.0209,8.0209,8.0209,8.0209,8.0209,8.0209,8.0209,8.0209,8.0209,8.0209,8.0209,8.0209,8.0209,8.0209,8.0209,8.0209,8.0209,8.0209,8.0209,8.0209,8.0209,6.6999,6.6999,6.6999,6.6999,6.7243,6.7548,6.7789,6.8119,6.8446,6.8713,6.883,6.8889,6.8889,6.9628,7.0398,7.0828,7.1721,7.2491,7.2922,7.2983,7.2983,7.2983,7.2983,7.2983,7.2983,7.2983,7.2983,7.2983,7.2983,7.2983,7.2983,7.2983,7.2983,7.2983,7.2983,7.2983,7.2983,7.2983,7.2983,7.2983,7.2983,7.2983,7.2983,7.2983,7.2983,7.2983,7.2983,7.2983,7.2983,7.2983,7.2983,7.2983,7.2983,7.2983,7.2983,7.2983,7.2983,7.2983,7.2983,7.2983,7.2983,7.2983,7.2983,7.2983,7.2983,7.2983,7.2983,7.2983,7.2983,7.3107,7.3539,7.4205,7.5242,7.6813,7.7839,7.8411,7.8411,7.8411,7.873,7.9972,8.0209,8.0209,8.0209,8.0209,8.0209,8.0209,8.0209,8.0209,8.0209,8.0209,8.0209,8.0209,8.0209,8.0209,8.0209,8.0209,8.0209,8.0209,8.0209,8.0209,8.0209,8.0209,8.0209,8.0209,8.0209,8.0209,8.0209,8.0209,8.0209,8.0209,8.0209,8.0209,6.7121,6.7182,6.7182,6.7304,6.7578,6.7879,6.8059,6.8358,6.8623,6.883,6.8889,6.8889,6.8889,6.9259,6.9843,7.0767,7.1506,7.2214,7.2891,7.2983,7.2983,7.2983,7.2983,7.2983,7.2983,7.2983,7.2983,7.2983,7.2983,7.2983,7.2983,7.2983,7.2983,7.2983,7.2983,7.2983,7.2983,7.2983,7.2983,7.2983,7.2983,7.2983,7.2983,7.2983,7.2983,7.2983,7.2983,7.2983,7.2983,7.2983,7.2983,7.2983,7.2983,7.2983,7.2983,7.2983,7.2983,7.2983,7.2983,7.2983,7.2983,7.2983,7.2983,7.2983,7.2983,7.2983,7.2983,7.2983,7.2983,7.2983,7.2983,7.4176,7.5707,7.6958,7.8143,7.9027,7.9027,7.8677,7.873,7.9972,8.0209,8.0209,8.0209,8.0209,8.0209,8.0209,8.0209,8.0209,8.0209,8.0209,8.0209,8.0209,8.0209,8.0209,8.0209,8.0209,8.0209,8.0209,8.0209,8.0209,8.0209,8.0209,8.0209,8.0209,8.0209,8.0209,8.0209,8.0209,8.0209,8.0209,8.0209,8.0209,0.0,0.0,0.0,6.791,6.8179,6.8386,6.8386,6.8654,6.8889,6.8889,6.8889,6.8889,6.8889,6.8889,6.932,7.0644,7.1475,7.2183,7.286,7.2983,7.2983,7.2983,7.2983,7.2983,7.2983,7.2983,7.2983,7.2983,7.2983,7.2983,7.2983,7.2983,7.2983,7.2983,7.2983,7.2983,7.2983,7.2983,7.2983,7.2983,7.2983,7.2983,7.2983,7.2983,7.2983,7.2983,7.2983,7.2983,7.2983,7.2983,7.2983,7.2983,7.2983,7.2983,7.2983,7.2983,7.2983,7.2983,7.2983,7.2983,7.2983,7.2983,7.2983,7.2983,7.2983,7.2983,7.2983,7.2983,7.2983,7.2983,7.3045,7.4862,7.6958,7.811,7.9288,8.0209,8.0209,7.9288,7.8783,7.9972,8.0209,8.0209,8.0209,8.0209,8.0209,8.0209,8.0209,8.0209,8.0209,8.0209,8.0209,8.0209,8.0209,8.0209,8.0209,8.0209,8.0209,8.0209,8.0209,8.0209,8.0209,8.0209,8.0209,8.0209,8.0209,8.0209,8.0209,8.0209,8.0209,8.0209,8.0209,8.0209,6.7426,0.0,0.0,0.0,0.0,0.0,6.8358,6.8446,6.8595,6.883,6.8889,6.8889,6.8889,6.8889,6.9166,7.0028,7.0736,7.1444,7.2152,7.2675,7.2983,7.2983,7.2983,7.2983,7.2983,7.2983,7.2983,7.2983,7.2983,7.2983,7.2983,7.2983,7.2983,7.2983,7.2983,7.2983,7.2983,7.2983,7.2983,7.2983,7.2983,7.2983,7.2983,7.2983,7.2983,7.2983,7.2983,7.2983,7.2983,7.2983,7.2983,7.2983,7.2983,7.2983,7.2983,7.2983,7.2983,7.2983,7.2983,7.2983,7.2983,7.2983,7.2983,7.2983,7.2983,7.2983,7.2983,7.2983,7.2983,7.32,7.4055,7.6078,7.8002,7.8304,7.9288,8.0209,8.0209,7.9921,7.9819,8.0158,8.0209,8.0209,8.0209,8.0209,8.0209,8.0209,8.0209,8.0209,8.0209,8.0209,8.0209,8.0209,8.0209,8.0209,8.0209,8.0209,8.0209,8.0209,8.0209,8.0209,8.0209,8.0209,8.0209,8.0209,8.0209,8.0209,8.0209,8.0209,8.0209,8.0209,8.0209,8.0209,6.7608,6.7759,6.7939,6.8298,0.0,0.0,6.8595,6.8595,6.8623,6.8889,6.8889,6.8889,6.8889,6.8889,6.9012,6.9413,7.0274,7.1167,7.1875,7.2552,7.2983,7.2983,7.2983,7.2983,7.2983,7.2983,7.2983,7.2983,7.2983,7.2983,7.2983,7.2983,7.2983,7.2983,7.2983,7.2983,7.2983,7.2983,7.2983,7.2983,7.2983,7.2983,7.2983,7.2983,7.2983,7.2983,7.2983,7.2983,7.2983,7.2983,7.2983,7.2983,7.2983,7.2983,7.2983,7.2983,7.2983,7.2983,7.2983,7.2983,7.2983,7.2983,7.2983,7.2983,7.2983,7.3385,7.3783,7.3783,7.3783,7.3934,7.4624,7.6192,7.7785,7.8304,7.9288,8.0209,8.0209,8.0209,8.0209,8.0209,8.0209,8.0209,8.0209,8.0209,8.0209,8.0209,8.0209,8.0209,8.0209,8.0209,8.0209,8.0209,8.0209,8.0209,8.0209,8.0209,8.0209,8.0209,8.0209,8.0209,8.0209,8.0209,8.0209,8.0209,8.0209,8.0209,8.0209,8.0209,8.0209,8.0209,8.0209,8.0209,6.797,6.8238,6.8446,6.883,6.8889,0.0,6.8889,6.8889,6.8889,6.8889,6.8889,6.8889,6.8889,6.8889,6.8889,6.8889,6.9967,7.1044,7.1752,7.2521,7.2983,7.2983,7.2983,7.2983,7.2983,7.2983,7.2983,7.2983,7.2983,7.2983,7.2983,7.2983,7.2983,7.2983,7.2983,7.2983,7.2983,7.2983,7.2983,7.2983,7.2983,7.2983,7.2983,7.2983,7.2983,7.2983,7.2983,7.2983,7.2983,7.2983,7.2983,7.2983,7.2983,7.2983,7.2983,7.2983,7.2983,7.2983,7.2983,7.2983,7.2983,7.2983,7.2983,7.2983,7.2983,7.3783,7.4624,7.4624,7.4684,7.4771,7.4771,7.5823,7.7069,7.811,7.9288,8.0209,8.0209,8.0209,8.0209,8.0209,8.0209,8.0209,8.0209,8.0209,8.0209,8.0209,8.0209,8.0209,8.0209,8.0209,8.0209,8.0209,8.0209,8.0209,8.0209,8.0209,8.0209,8.0209,8.0209,8.0209,8.0209,8.0209,8.0209,8.0209,8.0209,8.0209,8.0209,8.0209,8.0209,8.0209,8.0209,8.0209,6.8179,6.8327,6.8446,6.883,6.8889,0.0,6.8889,6.8889,6.8889,6.8889,6.8889,6.8889,6.8889,6.8889,6.8889,6.8889,6.9566,7.0336,7.1013,7.2183,7.2983,7.2983,7.2983,7.2983,7.2983,7.2983,7.2983,7.2983,7.2983,7.2983,7.2983,7.2983,7.2983,7.2983,7.2983,7.2983,7.2983,7.2983,7.2983,7.2983,7.2983,7.2983,7.2983,7.2983,7.2983,7.2983,7.2983,7.2983,7.2983,7.2983,7.2983,7.2983,7.2983,7.2983,7.2983,7.2983,7.2983,7.2983,7.2983,7.2983,7.2983,7.2983,7.2983,7.2983,7.2983,7.3139,7.3385,7.3385,7.4055,7.4771,7.4771,7.6419,7.8143,7.8358,7.9288,8.0209,8.0209,8.0209,8.0209,8.0209,8.0209,8.0209,8.0209,8.0209,8.0209,8.0209,8.0209,8.0209,8.0209,8.0209,8.0209,8.0209,8.0209,8.0209,8.0209,8.0209,8.0209,8.0209,8.0209,8.0209,8.0209,8.0209,8.0209,8.0209,8.0209,8.0209,8.0209,8.0209,8.0209,8.0209,8.0209,8.0209,6.8327,6.8505,6.8713,6.8889,6.8889,0.0,0.0,6.8889,6.8889,6.8889,6.8889,6.8889,6.8889,6.8889,6.8889,6.8889,6.9443,7.012,7.0798,7.1813,7.2614,7.2952,7.2983,7.2983,7.2983,7.2983,7.2983,7.2983,7.2983,7.2983,7.2983,7.2983,7.2983,7.2983,7.2983,7.2983,7.2983,7.2983,7.2983,7.2983,7.2983,7.2983,7.2983,7.2983,7.2983,7.2983,7.2983,7.2983,7.2983,7.2983,7.2983,7.2983,7.2983,7.2983,7.2983,7.2983,7.2983,7.2983,7.2983,7.2983,7.2983,7.2983,7.2983,7.3107,7.3722,7.4357,7.4684,7.4055,7.4325,7.4771,7.4771,7.5675,7.6925,7.811,7.8411,7.873,7.9921,7.9734,7.9477,8.0074,8.0209,8.0209,8.0209,8.0209,8.0209,8.0209,8.0209,8.0209,8.0209,8.0209,8.0209,8.0209,8.0209,8.0209,8.0209,8.0209,8.0209,8.0209,8.0209,8.0209,8.0209,8.0209,8.0209,8.0209,8.0209,8.0209,8.0209,8.0209,8.0209,8.0209,8.0209,8.0209,6.8446,6.8713,6.8889,6.8889,6.8889,6.8889,0.0,0.0,0.0,6.8889,6.8889,6.8889,6.8889,6.8889,6.8889,6.8889,6.9351,6.9997,7.0798,7.1413,7.206,7.2891,7.2983,7.2983,7.2983,7.2983,7.2983,7.2983,7.2983,7.2983,7.2983,7.2983,7.2983,7.2983,7.2983,7.2983,7.2983,7.2983,7.2983,7.2983,7.2983,7.2983,7.2983,7.2983,7.2983,7.2983,7.2983,7.2983,7.3045,7.3262,7.3324,7.3324,7.3107,7.3169,7.3324,7.3324,7.3324,7.3324,7.3324,7.32,7.2983,7.2983,7.3139,7.3539,7.4505,7.5475,7.5995,7.4771,7.4445,7.4505,7.4711,7.4771,7.5359,7.7566,7.7291,7.718,7.9373,7.9079,7.873,7.9972,8.0209,8.0209,8.0209,8.0209,8.0209,8.0209,8.0209,8.0209,8.0209,8.0209,8.0209,8.0209,8.0209,8.0209,8.0209,8.0209,8.0209,8.0209,8.0209,8.0209,8.0209,8.0209,8.0209,8.0209,8.0209,8.0209,8.0209,8.0209,8.0209,8.0209,8.0209,8.0209,6.8772,6.8889,6.8889,6.8889,6.8889,6.8889,6.8889,0.0,6.8889,6.8889,0.0,6.8889,6.8889,0.0,0.0,6.8889,6.8951,6.9443,7.0736,7.0982,7.1506,7.2829,7.2983,7.2983,7.2983,7.2983,7.2983,7.2983,7.2983,7.2983,7.2983,7.2983,7.2983,7.2983,7.2983,7.2983,7.2983,7.2983,7.2983,7.2983,7.2983,7.2983,7.2983,7.2983,7.2983,7.2983,7.2983,7.2983,7.3107,7.4176,7.4624,7.4505,7.3447,7.3661,7.4624,7.4624,7.4624,7.4624,7.4624,7.3874,7.2983,7.2983,7.3722,7.4624,7.4771,7.4889,7.4711,7.3539,7.32,7.3416,7.4505,7.4771,7.5125,7.6508,7.6734,7.6958,7.8304,7.8518,7.873,7.9972,8.0209,8.0209,8.0209,8.0209,8.0209,8.0209,8.0209,8.0209,8.0209,8.0209,8.0209,8.0209,8.0209,8.0209,8.0209,8.0209,8.0209,8.0209,8.0209,8.0209,8.0209,8.0209,8.0209,8.0209,8.0209,8.0209,8.0209,8.0209,8.0209,8.0209,8.0209,8.0209,6.8889,6.8889,6.8889,6.8889,6.8889,6.8889,6.8889,6.8889,6.8889,6.8889,0.0,0.0,0.0,0.0,0.0,0.0,6.8889,6.9228,7.0182,7.0644,7.1413,7.2829,7.2983,7.2983,7.2983,7.2983,7.2983,7.2983,7.2983,7.2983,7.2983,7.2983,7.2983,7.2983,7.2983,7.2983,7.2983,7.2983,7.2983,7.2983,7.2983,7.2983,7.2983,7.2983,7.2983,7.2983,7.2983,7.3385,7.4116,7.4624,7.5242,7.5823,7.53,7.5417,7.588,7.588,7.588,7.588,7.588,7.5534,7.5098,7.5098,7.5417,7.5707,7.5007,7.4771,7.4564,7.3324,7.3477,7.4325,7.5534,7.53,7.5475,7.8056,7.7092,7.6249,7.8888,7.8922,7.873,7.9972,8.0209,8.0209,8.0209,8.0209,8.0209,8.0209,8.0209,8.0209,8.0209,8.0209,8.0209,8.0209,8.0209,8.0209,8.0209,8.0209,8.0209,8.0209,8.0209,8.0209,8.0209,8.0209,8.0209,8.0209,8.0209,8.0209,8.0209,8.0209,8.0209,8.0209,8.0209,8.0209,6.8889,6.8889,6.8889,6.8889,6.8889,6.8889,6.8889,6.8889,6.8889,6.8889,6.8889,0.0,0.0,0.0,6.8889,6.8889,0.0,6.9105,6.9813,7.049,7.1352,7.2552,7.286,7.2983,7.2983,7.2983,7.2983,7.2983,7.2983,7.2983,7.2983,7.2983,7.2983,7.2983,7.2983,7.2983,7.2983,7.2983,7.2983,7.2983,7.2983,7.2983,7.2983,7.2983,7.2983,7.2983,7.2983,7.3661,7.483,7.5183,7.5963,7.7125,7.7456,7.7566,7.7566,7.7236,7.7125,7.7125,7.7125,7.6902,7.6677,7.7013,7.7125,7.6958,7.6021,7.5592,7.5125,7.4236,7.4385,7.5183,7.6701,7.6224,7.6021,7.9027,7.7424,7.6078,7.9079,7.9027,7.873,7.9972,8.0209,8.0209,8.0209,8.0209,8.0209,8.0209,8.0209,8.0209,8.0209,8.0209,8.0209,8.0209,8.0209,8.0209,8.0209,8.0209,8.0209,8.0209,8.0209,8.0209,8.0209,8.0209,8.0209,8.0209,8.0209,8.0209,8.0209,8.0412,8.0479,8.0479,8.0276,8.031,6.8889,6.8889,6.8889,6.8889,6.8889,6.8889,6.8889,6.8889,6.8889,6.8889,6.8889,6.8889,6.8889,6.8889,6.8889,6.8889,6.8889,0.0,0.0,7.049,7.1167,7.1906,7.2583,7.2983,7.2983,7.2983,7.2983,7.2983,7.2983,7.2983,7.2983,7.2983,7.2983,7.2983,7.2983,7.2983,7.2983,7.2983,7.2983,7.2983,7.2983,7.2983,7.2983,7.2983,7.2983,7.2983,7.2983,7.3661,7.4889,7.6053,7.7236,7.8465,7.9632,8.0074,7.9921,7.8783,7.8358,7.8358,7.8358,7.7566,7.679,7.7948,7.8358,7.8358,7.8304,7.7456,7.6565,7.6508,7.5707,7.5359,7.773,7.7456,7.6902,7.811,7.7456,7.6902,7.8197,7.8411,7.873,7.9972,8.0209,8.0209,8.0209,8.0209,8.0209,8.0209,8.0209,8.0209,8.0209,8.0209,8.0209,8.0209,8.0209,8.0209,8.0209,8.0209,8.0209,8.0209,8.0209,8.0209,8.0209,8.0209,8.0209,8.0209,8.0209,8.0209,8.0209,8.0919,8.1257,8.1224,8.0513,8.0581,0.0,0.0,6.8889,6.8889,6.8889,6.8889,6.8889,6.8889,6.8889,6.8889,6.8889,6.8889,6.8889,6.8889,6.8889,6.8889,6.8889,6.8951,0.0,7.0182,7.1352,7.2491,7.2829,7.2983,7.2983,7.2983,7.2983,7.2983,7.2983,0.0,7.2983,7.2983,7.2983,7.2983,7.2983,7.2983,7.2983,7.2983,7.2983,7.2983,7.2983,7.2983,7.2983,7.2983,7.2983,7.2983,7.2983,7.3661,7.4889,7.611,7.7291,7.8518,7.9734,8.0209,8.0124,7.9734,7.958,7.958,7.958,7.9288,7.9027,7.9477,7.9079,7.8411,7.8411,7.7566,7.6621,7.6621,7.6869,7.7401,7.8164,7.811,7.8089,7.9288,7.8677,7.811,7.934,7.958,7.9683,8.0124,8.0209,8.0209,8.0209,8.0209,8.0209,8.0209,8.0209,8.0209,8.0209,8.0209,8.0209,8.0209,8.0209,8.0209,8.0209,8.0209,8.0209,8.0209,8.0209,8.0209,8.0209,8.0209,8.0209,8.0209,8.0209,8.0445,8.0919,8.1156,8.1528,8.2035,8.1765,8.1799,6.8889,6.8889,0.0,6.8889,6.8889,0.0,6.8889,6.8889,6.8889,6.8889,6.8889,6.8889,6.8889,6.8889,6.8889,6.8889,6.8889,6.9043,0.0,7.0367,7.1413,7.2829,7.2983,7.2983,7.2983,7.2983,7.2983,7.2983,7.2983,7.2983,7.2983,7.2983,7.2983,7.2983,7.2983,7.2983,7.2983,7.2983,7.2983,7.2983,7.2983,7.2983,7.2983,7.2983,7.2983,7.3045,7.3416,7.4325,7.5534,7.6701,7.7948,7.9131,7.9921,8.0209,8.0209,8.0209,8.0209,8.0209,8.0209,8.0209,8.0209,8.0209,7.9683,7.9027,7.9027,7.8197,7.7346,7.773,7.811,7.8518,7.8922,7.9027,7.9236,8.0023,7.958,7.9236,8.0023,8.0209,8.0209,8.0209,8.0209,8.0209,8.0209,8.0209,8.0209,8.0209,8.0209,8.0209,8.0209,8.0209,8.0209,8.0209,8.0209,8.0209,8.0209,8.0209,8.0209,8.0209,8.0209,8.0209,8.0209,8.0209,8.0581,8.1359,8.0851,8.1224,8.2475,8.2205,8.234,8.2813,8.3084,8.3186]}]]